Darstellungsparameter: Aktuell verwendete Einstellungen:
Skalierung der Graphiken ... ?
xyx+y,   Skalierungsfaktor:      Skalierung: Modus: x, Faktor: 1
Darstellungszeitraum ... ?
Vom - - bis: - -   Zeitraum: 04.12.2013 - 03.06.2014
Min/Max/Avg-Anzeige ... ?
Zeige MMA aktuell
Zeige MMA Monat
Zeige MMA alles
Zeige --A aktuell
Zeige --A Monat
Zeige --A alles
Keine MMA-Anzeige
MMA:
Keine MMA-Graphiken
MMA-Basis: 04.12.2013 - 03.06.2014
Quicknavigation für Darstellung... ?
Tage:      1T, 2T, 3T, 5T -1T -2T -3T -5T +1T +2T +3T +5T
Wochen: 1W, 2W, 3W -1W -2W -3W +1W +2W +3W
Monate: 1M, 3M, 6M -1M -3M -6M +1M +3M +6M
Jahre:    1J, 3J, 5J, 10J -1J -3J -5J -10J +1J +3J +5J +10J
Nutze für die Darstellung ... ?
Originaldaten oder ...
Mittelwerte Minima Maxima auf...
Stundenbasis Tagesbasis Wochenbasis
Monatsbasis Jahresbasis      Datenbasis: Mittelwerte auf Stundenbasis
Darstellen als:
Statistik (Auto) Statistik J:M      Darstellung:
Zur Graphik,    zurück zur Übersicht aller Sensoren.
 
Tabellarische Datenbersicht: ?
 
Sensor: Nr:Datum:Temp:Abs-Feuchte:Windchill:Wind:
Aussen-T/F 1 04-12-2013 00:00:00 1.09167 C 5.07 g/m*3 1.09 C 2.68333 km/h
2 04-12-2013 01:00:00 1.175 C 5.05 g/m*3 1.18 C 4.80833 km/h
3 04-12-2013 02:00:00 1.29167 C 5 g/m*3 -1.36 C 8.475 km/h
4 04-12-2013 03:00:00 1.3 C 4.95 g/m*3 -2.28 C 12.23333 km/h
5 04-12-2013 04:00:00 1.44167 C 4.97 g/m*3 -1.44 C 9.41667 km/h
6 04-12-2013 05:00:00 1.65 C 5.05 g/m*3 -0.09 C 5.90833 km/h
7 04-12-2013 06:00:00 1.75 C 5.13 g/m*3 -0.9 C 8.74167 km/h
8 04-12-2013 07:00:00 2 C 5.21 g/m*3 -0.78 C 9.43333 km/h
9 04-12-2013 08:00:00 2.41667 C 5.31 g/m*3 -0.64 C 10.9 km/h
10 04-12-2013 09:00:00 2.71667 C 5.4 g/m*3 -0.24 C 10.75833 km/h
11 04-12-2013 10:00:00 2.98333 C 5.51 g/m*3 0.56 C 8.74167 km/h
12 04-12-2013 11:00:00 3.29167 C 5.58 g/m*3 0.72 C 9.56667 km/h
13 04-12-2013 12:00:00 3.6 C 5.64 g/m*3 1.47 C 8.075 km/h
14 04-12-2013 13:00:00 3.99167 C 5.72 g/m*3 2.42 C 6.43333 km/h
15 04-12-2013 14:00:00 4.48333 C 5.67 g/m*3 2.7 C 7.39167 km/h
16 04-12-2013 15:00:00 4.81667 C 5.7 g/m*3 2.51 C 9.68333 km/h
17 04-12-2013 16:00:00 4.74167 C 5.74 g/m*3 2.93 C 7.64167 km/h
18 04-12-2013 17:00:00 4.84167 C 5.84 g/m*3 2.6 C 9.40833 km/h
19 04-12-2013 18:00:00 4.875 C 6 g/m*3 1.97 C 12.76667 km/h
20 04-12-2013 19:00:00 4.80833 C 6.06 g/m*3 1.93 C 12.5 km/h
21 04-12-2013 20:00:00 4.9 C 6.15 g/m*3 2.35 C 10.9 km/h
22 04-12-2013 21:00:00 4.8 C 6.26 g/m*3 2.74 C 8.60833 km/h
23 04-12-2013 22:00:00 4.76667 C 6.37 g/m*3 3.73 C 5.21667 km/h
24 04-12-2013 23:00:00 4.96667 C 6.51 g/m*3 4.97 C 3.2 km/h
25 05-12-2013 00:00:00 4.275 C 6.21 g/m*3 4.28 C 2.53333 km/h
Sensor: Nr:Datum:Temp:Abs-Feuchte:Windchill:Wind:
Aussen-T/F 26 05-12-2013 01:00:00 3.025 C 5.74 g/m*3 3.03 C 2.13333 km/h
27 05-12-2013 02:00:00 2.44167 C 5.55 g/m*3 2.44 C 1.73333 km/h
28 05-12-2013 03:00:00 2.275 C 5.49 g/m*3 2.28 C 4.675 km/h
29 05-12-2013 04:00:00 2.24167 C 5.48 g/m*3 -0.2 C 8.33333 km/h
30 05-12-2013 05:00:00 2.15833 C 5.45 g/m*3 -0.1 C 7.65833 km/h
31 05-12-2013 06:00:00 2.4 C 5.53 g/m*3 0.35 C 7.10833 km/h
32 05-12-2013 07:00:00 2.34444 C 5.45 g/m*3 0.1 C 7.7 km/h
33 05-12-2013 08:00:00 1.41667 C 5.1 g/m*3 1.42 C 4.81667 km/h
34 05-12-2013 09:00:00 2.30833 C 5.4 g/m*3 -0.19 C 8.58333 km/h
35 05-12-2013 10:00:00 3.31667 C 5.61 g/m*3 0.72 C 9.675 km/h
36 05-12-2013 11:00:00 3.81667 C 5.63 g/m*3 0.51 C 13.7 km/h
37 05-12-2013 12:00:00 3.925 C 5.42 g/m*3 -0.09 C 18.5 km/h
38 05-12-2013 13:00:00 4.18333 C 5.33 g/m*3 0.59 C 15.96667 km/h
39 05-12-2013 14:00:00 4.56667 C 5.33 g/m*3 0.86 C 17.43333 km/h
40 05-12-2013 15:00:00 5.13333 C 5.24 g/m*3 0.48 C 27.1 km/h
41 05-12-2013 16:00:00 5.50833 C 5.03 g/m*3 0.81 C 28.83333 km/h
42 05-12-2013 17:00:00 5.51111 C 5.26 g/m*3 1.15 C 25.2 km/h
43 05-12-2013 18:00:00 5.53333 C 5.71 g/m*3 1.07 C 26.41667 km/h
44 05-12-2013 19:00:00 5.26667 C 5.96 g/m*3 0.73 C 26.29167 km/h
45 05-12-2013 20:00:00 5.20833 C 6.17 g/m*3 1.21 C 21.03333 km/h
46 05-12-2013 21:00:00 6.91667 C 6.02 g/m*3 3.4 C 20.79167 km/h
47 05-12-2013 22:00:00 5.70833 C 5.51 g/m*3 2.33 C 17.04167 km/h
48 05-12-2013 23:00:00 4.95 C 5.34 g/m*3 1.41 C 16.90833 km/h
49 06-12-2013 00:00:00 3.075 C 5.34 g/m*3 0.01 C 11.55833 km/h
50 06-12-2013 01:00:00 3.5 C 5.09 g/m*3 1.07 C 9.13333 km/h
Sensor: Nr:Datum:Temp:Abs-Feuchte:Windchill:Wind:
Aussen-T/F 51 06-12-2013 02:00:00 3.60833 C 4.73 g/m*3 0.92 C 10.35 km/h
52 06-12-2013 03:00:00 3.55 C 4.71 g/m*3 0.76 C 10.75833 km/h
53 06-12-2013 04:00:00 4.15833 C 4.78 g/m*3 0.86 C 14.1 km/h
54 06-12-2013 05:00:00 4.48333 C 4.62 g/m*3 1.04 C 15.44167 km/h
55 06-12-2013 06:00:00 4.28333 C 4.57 g/m*3 0.78 C 15.56667 km/h
56 06-12-2013 07:00:00 3.60833 C 4.58 g/m*3 -0.08 C 15.7 km/h
57 06-12-2013 08:00:00 3.68333 C 4.32 g/m*3 0.56 C 12.5 km/h
58 06-12-2013 09:00:00 3.85 C 4.33 g/m*3 0.16 C 16.1 km/h
59 06-12-2013 10:00:00 4.28333 C 4.37 g/m*3 0.32 C 18.775 km/h
60 06-12-2013 11:00:00 4.54167 C 4.39 g/m*3 0.9 C 16.9 km/h
61 06-12-2013 12:00:00 4.725 C 4.44 g/m*3 0.93 C 18.36667 km/h
62 06-12-2013 13:00:00 4.89167 C 4.3 g/m*3 0.9 C 20.23333 km/h
63 06-12-2013 14:00:00 4.88333 C 4.27 g/m*3 0.97 C 19.575 km/h
64 06-12-2013 15:00:00 4.6 C 4.32 g/m*3 0.93 C 17.16667 km/h
65 06-12-2013 16:00:00 4.225 C 4.48 g/m*3 1.03 C 13.56667 km/h
66 06-12-2013 17:00:00 2.83333 C 5 g/m*3 0.65 C 7.775 km/h
67 06-12-2013 18:00:00 2.23333 C 5.07 g/m*3 -0.36 C 8.88333 km/h
68 06-12-2013 19:00:00 2.4 C 5.05 g/m*3 0.35 C 7.10833 km/h
69 06-12-2013 20:00:00 2.725 C 5.01 g/m*3 0.23 C 8.85 km/h
70 06-12-2013 21:00:00 3.225 C 4.85 g/m*3 0.17 C 11.7 km/h
71 06-12-2013 22:00:00 3.41667 C 4.74 g/m*3 0.6 C 10.75833 km/h
72 06-12-2013 23:00:00 3.5 C 4.77 g/m*3 0.29 C 12.76667 km/h
73 07-12-2013 00:00:00 3.325 C 4.74 g/m*3 0.73 C 9.7 km/h
74 07-12-2013 01:00:00 3.35 C 4.73 g/m*3 0.76 C 9.68333 km/h
75 07-12-2013 02:00:00 3.06667 C 4.74 g/m*3 1.04 C 7.38333 km/h
Sensor: Nr:Datum:Temp:Abs-Feuchte:Windchill:Wind:
Aussen-T/F 76 07-12-2013 03:00:00 3.1 C 4.78 g/m*3 1.21 C 6.98333 km/h
77 07-12-2013 04:00:00 3.375 C 4.78 g/m*3 1.33 C 7.65 km/h
78 07-12-2013 05:00:00 3.34167 C 4.74 g/m*3 1.25 C 7.79167 km/h
79 07-12-2013 06:00:00 2.90833 C 4.68 g/m*3 0.55 C 8.45833 km/h
80 07-12-2013 07:00:00 2.74167 C 4.72 g/m*3 0.07 C 9.55833 km/h
81 07-12-2013 08:00:00 2.8 C 4.87 g/m*3 0.61 C 7.78333 km/h
82 07-12-2013 09:00:00 2.53333 C 5.17 g/m*3 0.98 C 5.75833 km/h
83 07-12-2013 10:00:00 2.71667 C 5.41 g/m*3 2.72 C 1.6 km/h
84 07-12-2013 11:00:00 3.24167 C 5.63 g/m*3 3.24 C 4.83333 km/h
85 07-12-2013 12:00:00 4.175 C 5.86 g/m*3 1.62 C 10.225 km/h
86 07-12-2013 13:00:00 4.80833 C 6.05 g/m*3 2.08 C 11.69167 km/h
87 07-12-2013 14:00:00 5.34167 C 6.22 g/m*3 2.35 C 13.83333 km/h
88 07-12-2013 15:00:00 5.94167 C 6.37 g/m*3 3.29 C 12.625 km/h
89 07-12-2013 16:00:00 5.94167 C 6.41 g/m*3 3.36 C 12.225 km/h
90 07-12-2013 17:00:00 6.00833 C 6.45 g/m*3 3.42 C 12.35833 km/h
91 07-12-2013 18:00:00 5.98333 C 6.44 g/m*3 3.79 C 10.225 km/h
92 07-12-2013 19:00:00 6.13333 C 6.55 g/m*3 4.17 C 9.275 km/h
93 07-12-2013 20:00:00 6.23333 C 6.55 g/m*3 4.06 C 10.35 km/h
94 07-12-2013 21:00:00 6.18333 C 6.52 g/m*3 4.2 C 9.40833 km/h
95 07-12-2013 22:00:00 6.01667 C 6.48 g/m*3 4.06 C 9.14167 km/h
96 07-12-2013 23:00:00 6.025 C 6.42 g/m*3 4.39 C 7.8 km/h
97 08-12-2013 00:00:00 5.76667 C 6.29 g/m*3 4.12 C 7.65833 km/h
98 08-12-2013 01:00:00 5.54167 C 6.29 g/m*3 4.09 C 6.825 km/h
99 08-12-2013 02:00:00 5.525 C 6.36 g/m*3 4.65 C 5.08333 km/h
100 08-12-2013 03:00:00 5.65833 C 6.36 g/m*3 4.38 C 6.30833 km/h
Sensor: Nr:Datum:Temp:Abs-Feuchte:Windchill:Wind:
Aussen-T/F 101 08-12-2013 04:00:00 5.69167 C 6.31 g/m*3 5.69 C 3.34167 km/h
102 08-12-2013 05:00:00 5.63333 C 6.36 g/m*3 4.44 C 6.03333 km/h
103 08-12-2013 06:00:00 6.05 C 6.49 g/m*3 4.76 C 6.56667 km/h
104 08-12-2013 07:00:00 6.10833 C 6.52 g/m*3 4.52 C 7.65833 km/h
105 08-12-2013 08:00:00 6.06667 C 6.62 g/m*3 3.94 C 9.95 km/h
106 08-12-2013 09:00:00 6.56667 C 6.68 g/m*3 4.35 C 10.9 km/h
107 08-12-2013 10:00:00 6.73333 C 6.76 g/m*3 4.74 C 9.94167 km/h
108 08-12-2013 11:00:00 7.68333 C 6.95 g/m*3 5.32 C 13.16667 km/h
109 08-12-2013 12:00:00 7.90833 C 7.01 g/m*3 5.44 C 14.23333 km/h
110 08-12-2013 13:00:00 7.71667 C 7.04 g/m*3 5.84 C 10.35 km/h
111 08-12-2013 14:00:00 7.74167 C 7.05 g/m*3 5.97 C 9.81667 km/h
112 08-12-2013 15:00:00 8.075 C 6.99 g/m*3 5.95 C 12.21667 km/h
113 08-12-2013 16:00:00 7.66667 C 6.96 g/m*3 5.36 C 12.76667 km/h
114 08-12-2013 17:00:00 7.31667 C 6.9 g/m*3 4.75 C 13.96667 km/h
115 08-12-2013 18:00:00 7.33333 C 6.95 g/m*3 4.83 C 13.56667 km/h
116 08-12-2013 19:00:00 7.38333 C 6.99 g/m*3 5.44 C 10.34167 km/h
117 08-12-2013 20:00:00 7.78333 C 6.98 g/m*3 5.04 C 16.1 km/h
118 08-12-2013 21:00:00 8.21667 C 6.96 g/m*3 5.3 C 18.36667 km/h
119 08-12-2013 22:00:00 8.1 C 6.93 g/m*3 5.58 C 14.9 km/h
120 08-12-2013 23:00:00 7.85833 C 6.97 g/m*3 5.44 C 13.83333 km/h
121 09-12-2013 00:00:00 7.90833 C 6.97 g/m*3 5.68 C 12.625 km/h
122 09-12-2013 01:00:00 7.825 C 6.85 g/m*3 5.19 C 15.3 km/h
123 09-12-2013 02:00:00 7.44167 C 6.63 g/m*3 5.27 C 11.7 km/h
124 09-12-2013 03:00:00 6.875 C 6.46 g/m*3 4.99 C 9.55 km/h
125 09-12-2013 04:00:00 6.78333 C 6.3 g/m*3 4.97 C 9.14167 km/h
Sensor: Nr:Datum:Temp:Abs-Feuchte:Windchill:Wind:
Aussen-T/F 126 09-12-2013 05:00:00 6.78333 C 6.19 g/m*3 4.36 C 12.36667 km/h
127 09-12-2013 06:00:00 6.625 C 6.11 g/m*3 3.91 C 13.96667 km/h
128 09-12-2013 07:00:00 6.26667 C 6.05 g/m*3 4.51 C 8.475 km/h
129 09-12-2013 08:00:00 6.55833 C 6.1 g/m*3 4.15 C 11.96667 km/h
130 09-12-2013 09:00:00 6.91667 C 6.11 g/m*3 4.18 C 14.5 km/h
131 09-12-2013 10:00:00 7.28333 C 6.19 g/m*3 4.43 C 15.96667 km/h
132 09-12-2013 11:00:00 7.49167 C 6.33 g/m*3 5.24 C 12.225 km/h
133 09-12-2013 12:00:00 8.21667 C 6.64 g/m*3 6.9 C 8.05833 km/h
134 09-12-2013 13:00:00 8.40833 C 6.71 g/m*3 6.89 C 9.15 km/h
135 09-12-2013 14:00:00 7.95 C 6.56 g/m*3 5.97 C 11.16667 km/h
136 09-12-2013 15:00:00 7.825 C 6.53 g/m*3 6.18 C 9.26667 km/h
137 09-12-2013 16:00:00 6.73333 C 6.4 g/m*3 5.98 C 5.2 km/h
138 09-12-2013 17:00:00 6.23333 C 6.35 g/m*3 5.45 C 5.075 km/h
139 09-12-2013 18:00:00 6.16667 C 6.34 g/m*3 4.9 C 6.55 km/h
140 09-12-2013 19:00:00 5.30833 C 6.16 g/m*3 5.31 C 1.6 km/h
141 09-12-2013 20:00:00 3.975 C 5.9 g/m*3 3.98 C 0.4 km/h
142 09-12-2013 21:00:00 3.43333 C 5.75 g/m*3 3.43 C 0.4 km/h
143 09-12-2013 22:00:00 2.79167 C 5.56 g/m*3 2.79 C 0 km/h
144 09-12-2013 23:00:00 2.33333 C 5.42 g/m*3 2.33 C 0 km/h
145 10-12-2013 00:00:00 1.9 C 5.3 g/m*3 1.9 C 0 km/h
146 10-12-2013 01:00:00 1.625 C 5.2 g/m*3 1.63 C 0.4 km/h
147 10-12-2013 02:00:00 1.20833 C 5.07 g/m*3 1.21 C 0 km/h
148 10-12-2013 03:00:00 1.125 C 5.08 g/m*3 1.13 C 0.13333 km/h
149 10-12-2013 04:00:00 1.43333 C 5.19 g/m*3 1.43 C 0.13333 km/h
150 10-12-2013 05:00:00 1.59167 C 5.24 g/m*3 1.59 C 0.26667 km/h
Sensor: Nr:Datum:Temp:Abs-Feuchte:Windchill:Wind:
Aussen-T/F 151 10-12-2013 06:00:00 1.66667 C 5.27 g/m*3 1.67 C 0.26667 km/h
152 10-12-2013 07:00:00 1.725 C 5.29 g/m*3 1.73 C 1.33333 km/h
153 10-12-2013 08:00:00 1.85 C 5.32 g/m*3 1.85 C 1.2 km/h
154 10-12-2013 09:00:00 2.25 C 5.42 g/m*3 2.25 C 2.8 km/h
155 10-12-2013 10:00:00 2.96667 C 5.69 g/m*3 2.97 C 1.6 km/h
156 10-12-2013 11:00:00 3.54167 C 5.92 g/m*3 3.54 C 2.53333 km/h
157 10-12-2013 12:00:00 4.35833 C 6.22 g/m*3 4.36 C 4.00833 km/h
158 10-12-2013 13:00:00 4.925 C 6.37 g/m*3 4.93 C 2.66667 km/h
159 10-12-2013 14:00:00 5.60833 C 6.57 g/m*3 5.61 C 0.66667 km/h
160 10-12-2013 15:00:00 5.16667 C 6.4 g/m*3 5.17 C 0.26667 km/h
161 10-12-2013 16:00:00 4.55 C 6.28 g/m*3 4.55 C 0.13333 km/h
162 10-12-2013 17:00:00 4.68333 C 6.39 g/m*3 4.68 C 0.13333 km/h
163 10-12-2013 18:00:00 4.80833 C 6.44 g/m*3 4.81 C 0 km/h
164 10-12-2013 19:00:00 4.9 C 6.48 g/m*3 4.9 C 0 km/h
165 10-12-2013 20:00:00 4.85 C 6.46 g/m*3 4.85 C 0 km/h
166 10-12-2013 21:00:00 4.33333 C 6.24 g/m*3 4.33 C 1.6 km/h
167 10-12-2013 22:00:00 3.65 C 5.99 g/m*3 3.65 C 2.93333 km/h
168 10-12-2013 23:00:00 3.25833 C 5.87 g/m*3 3.26 C 3.2 km/h
169 11-12-2013 00:00:00 3.03333 C 5.78 g/m*3 3.03 C 2.53333 km/h
170 11-12-2013 01:00:00 2.79167 C 5.7 g/m*3 2.79 C 3.6 km/h
171 11-12-2013 02:00:00 2.51667 C 5.62 g/m*3 2.52 C 4.13333 km/h
172 11-12-2013 03:00:00 2.24167 C 5.53 g/m*3 2.24 C 3.06667 km/h
173 11-12-2013 04:00:00 2.28333 C 5.55 g/m*3 2.28 C 2.93333 km/h
174 11-12-2013 05:00:00 2.275 C 5.55 g/m*3 2.28 C 3.46667 km/h
175 11-12-2013 06:00:00 2.24167 C 5.54 g/m*3 2.24 C 4.95 km/h
Sensor: Nr:Datum:Temp:Abs-Feuchte:Windchill:Wind:
Aussen-T/F 176 11-12-2013 07:00:00 2.29167 C 5.55 g/m*3 2.29 C 4.275 km/h
177 11-12-2013 08:00:00 2.34167 C 5.57 g/m*3 2.34 C 4.41667 km/h
178 11-12-2013 09:00:00 2.475 C 5.62 g/m*3 2.48 C 4.66667 km/h
179 11-12-2013 10:00:00 2.775 C 5.74 g/m*3 2.78 C 4.4 km/h
180 11-12-2013 11:00:00 3.24167 C 5.87 g/m*3 1.9 C 5.475 km/h
181 11-12-2013 12:00:00 3.83333 C 6.08 g/m*3 3.83 C 2.8 km/h
182 11-12-2013 13:00:00 4.375 C 6.26 g/m*3 4.38 C 1.2 km/h
183 11-12-2013 14:00:00 4.725 C 6.41 g/m*3 4.72 C 0.8 km/h
184 11-12-2013 15:00:00 4.91667 C 6.48 g/m*3 4.92 C 0.4 km/h
185 11-12-2013 16:00:00 5.275 C 6.64 g/m*3 5.28 C 0 km/h
186 11-12-2013 17:00:00 5.44167 C 6.72 g/m*3 5.44 C 0.53333 km/h
187 11-12-2013 18:00:00 5.41667 C 6.69 g/m*3 5.42 C 0.13333 km/h
188 11-12-2013 19:00:00 5.29167 C 6.58 g/m*3 5.29 C 1.73333 km/h
189 11-12-2013 20:00:00 5.14167 C 6.5 g/m*3 5.14 C 1.46667 km/h
190 11-12-2013 21:00:00 4.99167 C 6.41 g/m*3 4.99 C 2.68333 km/h
191 11-12-2013 22:00:00 4.81667 C 6.35 g/m*3 4.82 C 2.80833 km/h
192 11-12-2013 23:00:00 4.65833 C 6.24 g/m*3 4.66 C 4.15 km/h
193 12-12-2013 00:00:00 4.45833 C 6.16 g/m*3 4.46 C 1.46667 km/h
194 12-12-2013 01:00:00 4.325 C 6.11 g/m*3 4.33 C 2.93333 km/h
195 12-12-2013 02:00:00 4.25833 C 6.08 g/m*3 4.26 C 1.73333 km/h
196 12-12-2013 03:00:00 4.29167 C 6.12 g/m*3 4.29 C 0.13333 km/h
197 12-12-2013 04:00:00 4.3 C 6.1 g/m*3 4.3 C 1.73333 km/h
198 12-12-2013 05:00:00 4.26667 C 6.08 g/m*3 4.27 C 1.20833 km/h
199 12-12-2013 06:00:00 4.14167 C 6.03 g/m*3 4.14 C 3.075 km/h
200 12-12-2013 07:00:00 4.025 C 5.93 g/m*3 4.03 C 3.2 km/h
Sensor: Nr:Datum:Temp:Abs-Feuchte:Windchill:Wind:
Aussen-T/F 201 12-12-2013 08:00:00 3.85 C 5.83 g/m*3 3.85 C 2.66667 km/h
202 12-12-2013 09:00:00 3.91667 C 5.81 g/m*3 3.92 C 4.53333 km/h
203 12-12-2013 10:00:00 4.11667 C 5.79 g/m*3 4.12 C 3.33333 km/h
204 12-12-2013 11:00:00 4.26667 C 5.82 g/m*3 4.27 C 4.26667 km/h
205 12-12-2013 12:00:00 4.6 C 5.95 g/m*3 4.6 C 3.2 km/h
206 12-12-2013 13:00:00 4.78333 C 5.99 g/m*3 3.66 C 5.475 km/h
207 12-12-2013 14:00:00 4.99167 C 6.07 g/m*3 4.99 C 2.26667 km/h
208 12-12-2013 15:00:00 4.74167 C 5.97 g/m*3 4.74 C 3.73333 km/h
209 12-12-2013 16:00:00 3.84167 C 5.76 g/m*3 3.84 C 4.4 km/h
210 12-12-2013 17:00:00 3.6 C 5.69 g/m*3 3.6 C 2.8 km/h
211 12-12-2013 18:00:00 3.6 C 5.69 g/m*3 3.6 C 0.66667 km/h
212 12-12-2013 19:00:00 3.54167 C 5.67 g/m*3 3.54 C 0.4 km/h
213 12-12-2013 20:00:00 3.525 C 5.73 g/m*3 3.53 C 0 km/h
214 12-12-2013 21:00:00 3.60833 C 5.76 g/m*3 3.61 C 0 km/h
215 12-12-2013 22:00:00 3.6 C 5.76 g/m*3 3.6 C 0 km/h
216 12-12-2013 23:00:00 3.50833 C 5.67 g/m*3 3.51 C 0.66667 km/h
217 13-12-2013 00:00:00 3.325 C 5.5 g/m*3 3.33 C 4.01667 km/h
218 13-12-2013 01:00:00 2.99167 C 5.34 g/m*3 1.46 C 5.86667 km/h
219 13-12-2013 02:00:00 2.55 C 5.27 g/m*3 0.66 C 6.70833 km/h
220 13-12-2013 03:00:00 2.4 C 5.25 g/m*3 0.27 C 7.38333 km/h
221 13-12-2013 04:00:00 2.4 C 5.25 g/m*3 0.58 C 6.41667 km/h
222 13-12-2013 05:00:00 2.31667 C 5.21 g/m*3 0.05 C 7.78333 km/h
223 13-12-2013 06:00:00 2.3 C 5.18 g/m*3 0.07 C 7.65 km/h
224 13-12-2013 07:00:00 2.11667 C 5.15 g/m*3 -0.39 C 8.48333 km/h
225 13-12-2013 08:00:00 2.075 C 5.14 g/m*3 0.25 C 6.3 km/h
Sensor: Nr:Datum:Temp:Abs-Feuchte:Windchill:Wind:
Aussen-T/F 226 13-12-2013 09:00:00 2.05 C 5.12 g/m*3 0.59 C 5.35 km/h
227 13-12-2013 10:00:00 2.275 C 5.16 g/m*3 0.29 C 6.84167 km/h
228 13-12-2013 11:00:00 2.625 C 5.25 g/m*3 0.44 C 7.66667 km/h
229 13-12-2013 12:00:00 2.96667 C 5.32 g/m*3 1.29 C 6.28333 km/h
230 13-12-2013 13:00:00 3.2 C 5.36 g/m*3 1.7 C 5.875 km/h
231 13-12-2013 14:00:00 3.45 C 5.44 g/m*3 3.45 C 3.2 km/h
232 13-12-2013 15:00:00 3.38333 C 5.39 g/m*3 3.38 C 4.80833 km/h
233 13-12-2013 16:00:00 3.11667 C 5.35 g/m*3 3.12 C 2.13333 km/h
234 13-12-2013 17:00:00 2.83333 C 5.29 g/m*3 2.83 C 1.6 km/h
235 13-12-2013 18:00:00 2.89167 C 5.36 g/m*3 2.89 C 1.2 km/h
236 13-12-2013 19:00:00 2.76667 C 5.24 g/m*3 2.77 C 3.46667 km/h
237 13-12-2013 20:00:00 2.55833 C 5.19 g/m*3 2.56 C 1.46667 km/h
238 13-12-2013 21:00:00 2.66667 C 5.27 g/m*3 2.67 C 2.8 km/h
239 13-12-2013 22:00:00 2.425 C 5.18 g/m*3 2.42 C 4.675 km/h
240 13-12-2013 23:00:00 2.08333 C 5.02 g/m*3 0.67 C 5.24167 km/h
241 14-12-2013 00:00:00 1.89167 C 4.96 g/m*3 0.09 C 6.16667 km/h
242 14-12-2013 01:00:00 1.88333 C 4.96 g/m*3 -0.7 C 8.61667 km/h
243 14-12-2013 02:00:00 1.625 C 4.93 g/m*3 1.63 C 4.81667 km/h
244 14-12-2013 03:00:00 1.71667 C 5.01 g/m*3 1.72 C 4.40833 km/h
245 14-12-2013 04:00:00 1.93333 C 5.09 g/m*3 1.93 C 0.26667 km/h
246 14-12-2013 05:00:00 2.18333 C 5.23 g/m*3 2.18 C 0 km/h
247 14-12-2013 06:00:00 2.56667 C 5.37 g/m*3 2.57 C 4.55833 km/h
248 14-12-2013 07:00:00 3.05833 C 5.6 g/m*3 0.41 C 9.69167 km/h
249 14-12-2013 08:00:00 3.3 C 5.76 g/m*3 0.97 C 8.6 km/h
250 14-12-2013 09:00:00 3.43 C 5.81 g/m*3 0.75 C 10.15 km/h
Sensor: Nr:Datum:Temp:Abs-Feuchte:Windchill:Wind:
Aussen-T/F 251 14-12-2013 10:00:00 3.74167 C 5.92 g/m*3 1.2 C 9.81667 km/h
252 14-12-2013 11:00:00 4.11667 C 6.05 g/m*3 1.78 C 9.25833 km/h
253 14-12-2013 12:00:00 4.78333 C 6.24 g/m*3 2.35 C 10.21667 km/h
254 14-12-2013 13:00:00 5.13333 C 6.38 g/m*3 3.21 C 8.33333 km/h
255 14-12-2013 14:00:00 5.56667 C 6.47 g/m*3 3.49 C 9.28333 km/h
256 14-12-2013 15:00:00 5.43333 C 6.4 g/m*3 4.04 C 6.56667 km/h
257 14-12-2013 16:00:00 5.375 C 6.37 g/m*3 3.98 C 6.55833 km/h
258 14-12-2013 17:00:00 4.76667 C 6.16 g/m*3 3.79 C 5.08333 km/h
259 14-12-2013 18:00:00 3.075 C 5.7 g/m*3 3.08 C 3.33333 km/h
260 14-12-2013 19:00:00 3.76667 C 5.96 g/m*3 1.78 C 7.65833 km/h
261 14-12-2013 20:00:00 3.93333 C 5.89 g/m*3 2.64 C 5.60833 km/h
262 14-12-2013 21:00:00 3.83333 C 5.83 g/m*3 2.19 C 6.56667 km/h
263 14-12-2013 22:00:00 4.24167 C 5.9 g/m*3 1.8 C 9.80833 km/h
264 14-12-2013 23:00:00 4.775 C 6.06 g/m*3 1.66 C 13.825 km/h
265 15-12-2013 00:00:00 5.04167 C 6.07 g/m*3 3 C 8.71667 km/h
266 15-12-2013 01:00:00 4.9 C 6.08 g/m*3 3.56 C 6.15 km/h
267 15-12-2013 02:00:00 5.04167 C 6.12 g/m*3 4 C 5.35833 km/h
268 15-12-2013 03:00:00 5.16667 C 6.15 g/m*3 5.17 C 4.825 km/h
269 15-12-2013 04:00:00 5.075 C 6.1 g/m*3 5.08 C 3.2 km/h
270 15-12-2013 05:00:00 4.90833 C 6.08 g/m*3 3.2 C 7.375 km/h
271 15-12-2013 06:00:00 5.55833 C 6 g/m*3 4.11 C 6.83333 km/h
272 15-12-2013 07:00:00 5.11667 C 5.91 g/m*3 5.12 C 2.80833 km/h
273 15-12-2013 08:00:00 4.84167 C 5.97 g/m*3 4.84 C 1.06667 km/h
274 15-12-2013 09:00:00 5.45 C 5.92 g/m*3 3.83 C 7.38333 km/h
275 15-12-2013 10:00:00 6.65833 C 5.82 g/m*3 4.79 C 9.25833 km/h
Sensor: Nr:Datum:Temp:Abs-Feuchte:Windchill:Wind:
Aussen-T/F 276 15-12-2013 11:00:00 6.95 C 5.82 g/m*3 4.39 C 13.43333 km/h
277 15-12-2013 12:00:00 7.69167 C 5.87 g/m*3 4.97 C 15.7 km/h
278 15-12-2013 13:00:00 8.21667 C 5.88 g/m*3 5.73 C 14.9 km/h
279 15-12-2013 14:00:00 7.91667 C 6.04 g/m*3 6.74 C 7.25833 km/h
280 15-12-2013 15:00:00 6.39167 C 6.11 g/m*3 6.39 C 3.74167 km/h
281 15-12-2013 16:00:00 5.075 C 5.93 g/m*3 5.08 C 3.33333 km/h
282 15-12-2013 17:00:00 4.43333 C 5.76 g/m*3 4.43 C 2.53333 km/h
283 15-12-2013 18:00:00 4.51667 C 5.91 g/m*3 4.52 C 0.93333 km/h
284 15-12-2013 19:00:00 3.54167 C 5.58 g/m*3 3.54 C 0.8 km/h
285 15-12-2013 20:00:00 2.64167 C 5.37 g/m*3 2.64 C 0.26667 km/h
286 15-12-2013 21:00:00 2.09167 C 5.22 g/m*3 2.09 C 0.26667 km/h
287 15-12-2013 22:00:00 1.48333 C 5.03 g/m*3 1.48 C 0.53333 km/h
288 15-12-2013 23:00:00 1.21667 C 4.99 g/m*3 1.22 C 0.13333 km/h
289 16-12-2013 00:00:00 1.05 C 4.95 g/m*3 1.05 C 0.66667 km/h
290 16-12-2013 01:00:00 0.78333 C 4.86 g/m*3 0.78 C 0 km/h
291 16-12-2013 02:00:00 0.475 C 4.76 g/m*3 0.48 C 0.66667 km/h
292 16-12-2013 03:00:00 0.325 C 4.71 g/m*3 0.33 C 0.66667 km/h
293 16-12-2013 04:00:00 -0.03333 C 4.6 g/m*3 -0.03 C 0.13333 km/h
294 16-12-2013 05:00:00 0.29167 C 4.74 g/m*3 0.29 C 0.26667 km/h
295 16-12-2013 06:00:00 0 C 4.63 g/m*3 0 C 0.43636 km/h
296 16-12-2013 07:00:00 -0.3 C 4.56 g/m*3 -0.3 C 0 km/h
297 16-12-2013 08:00:00 -0.30833 C 4.55 g/m*3 -0.31 C 0.8 km/h
298 16-12-2013 09:00:00 -0.3 C 4.56 g/m*3 -0.3 C 0.26667 km/h
299 16-12-2013 10:00:00 0.31667 C 4.75 g/m*3 0.32 C 0.4 km/h
300 16-12-2013 11:00:00 1.24167 C 5.03 g/m*3 1.24 C 0.13333 km/h
Sensor: Nr:Datum:Temp:Abs-Feuchte:Windchill:Wind:
Aussen-T/F 301 16-12-2013 12:00:00 2.31667 C 5.37 g/m*3 2.32 C 1.46667 km/h
302 16-12-2013 13:00:00 3.33333 C 5.66 g/m*3 3.33 C 2.8 km/h
303 16-12-2013 14:00:00 4.175 C 5.92 g/m*3 4.18 C 3.73333 km/h
304 16-12-2013 15:00:00 4.49167 C 6.02 g/m*3 4.49 C 3.06667 km/h
305 16-12-2013 16:00:00 4.09167 C 5.84 g/m*3 4.09 C 2.66667 km/h
306 16-12-2013 17:00:00 3.225 C 5.62 g/m*3 3.23 C 1.6 km/h
307 16-12-2013 18:00:00 2.575 C 5.4 g/m*3 2.58 C 0.66667 km/h
308 16-12-2013 19:00:00 2.29167 C 5.38 g/m*3 2.29 C 0.13333 km/h
309 16-12-2013 20:00:00 1.78333 C 5.19 g/m*3 1.78 C 0.93333 km/h
310 16-12-2013 21:00:00 1.1 C 4.97 g/m*3 1.1 C 0 km/h
311 16-12-2013 22:00:00 0.88333 C 4.94 g/m*3 0.88 C 0.8 km/h
312 16-12-2013 23:00:00 0.64167 C 4.87 g/m*3 0.64 C 0.26667 km/h
313 17-12-2013 00:00:00 0.15 C 4.7 g/m*3 0.15 C 0.26667 km/h
314 17-12-2013 01:00:00 -0.175 C 4.62 g/m*3 -0.18 C 0 km/h
315 17-12-2013 02:00:00 -0.325 C 4.6 g/m*3 -0.33 C 0 km/h
316 17-12-2013 03:00:00 -0.575 C 4.52 g/m*3 -0.57 C 0 km/h
317 17-12-2013 04:00:00 -0.86667 C 4.43 g/m*3 -0.87 C 0.13333 km/h
318 17-12-2013 05:00:00 -1.175 C 4.33 g/m*3 -1.18 C 0 km/h
319 17-12-2013 06:00:00 -1.15 C 4.34 g/m*3 -1.15 C 0.66667 km/h
320 17-12-2013 07:00:00 -1.34167 C 4.28 g/m*3 -1.34 C 0.8 km/h
321 17-12-2013 08:00:00 -1.5 C 4.23 g/m*3 -1.5 C 0 km/h
322 17-12-2013 09:00:00 -0.94167 C 4.41 g/m*3 -0.94 C 0.93333 km/h
323 17-12-2013 10:00:00 -0.50833 C 4.55 g/m*3 -0.51 C 0 km/h
324 17-12-2013 11:00:00 1.175 C 5.15 g/m*3 1.18 C 1.6 km/h
325 17-12-2013 12:00:00 3.04167 C 5.84 g/m*3 3.04 C 0.66667 km/h
Sensor: Nr:Datum:Temp:Abs-Feuchte:Windchill:Wind:
Aussen-T/F 326 17-12-2013 13:00:00 4.44167 C 6.26 g/m*3 4.44 C 2.8 km/h
327 17-12-2013 14:00:00 5.31667 C 6.34 g/m*3 5.32 C 2.93333 km/h
328 17-12-2013 15:00:00 5.86667 C 6.4 g/m*3 5.87 C 4.53333 km/h
329 17-12-2013 16:00:00 5.10833 C 6.07 g/m*3 5.11 C 2.66667 km/h
330 17-12-2013 17:00:00 3.84167 C 5.8 g/m*3 3.84 C 1.06667 km/h
331 17-12-2013 18:00:00 3.00833 C 5.54 g/m*3 3.01 C 0.4 km/h
332 17-12-2013 19:00:00 2.35833 C 5.37 g/m*3 2.36 C 0 km/h
333 17-12-2013 20:00:00 1.66667 C 5.15 g/m*3 1.67 C 0.26667 km/h
334 17-12-2013 21:00:00 1.08333 C 5 g/m*3 1.08 C 0 km/h
335 17-12-2013 22:00:00 0.99167 C 4.99 g/m*3 0.99 C 0.53333 km/h
336 17-12-2013 23:00:00 0.61667 C 4.87 g/m*3 0.62 C 0 km/h
337 18-12-2013 00:00:00 0.35833 C 4.82 g/m*3 0.36 C 0.13333 km/h
338 18-12-2013 01:00:00 0.4 C 4.83 g/m*3 0.4 C 0 km/h
339 18-12-2013 02:00:00 0.75833 C 4.95 g/m*3 0.76 C 0.26667 km/h
340 18-12-2013 03:00:00 1.04167 C 5.05 g/m*3 1.04 C 0.13333 km/h
341 18-12-2013 04:00:00 1.2 C 5.1 g/m*3 1.2 C 0 km/h
342 18-12-2013 05:00:00 1.49167 C 5.22 g/m*3 1.49 C 0.13333 km/h
343 18-12-2013 06:00:00 1.70833 C 5.29 g/m*3 1.71 C 0.93333 km/h
344 18-12-2013 07:00:00 1.775 C 5.31 g/m*3 1.78 C 1.06667 km/h
345 18-12-2013 08:00:00 1.93333 C 5.37 g/m*3 1.93 C 0.93333 km/h
346 18-12-2013 09:00:00 2.66667 C 5.64 g/m*3 2.67 C 2 km/h
347 18-12-2013 10:00:00 3.29167 C 5.83 g/m*3 3.29 C 2.4 km/h
348 18-12-2013 11:00:00 3.98333 C 6.01 g/m*3 3.98 C 1.86667 km/h
349 18-12-2013 12:00:00 4.475 C 6.15 g/m*3 4.47 C 0 km/h
350 18-12-2013 13:00:00 6.85833 C 7.1 g/m*3 5.54 C 7.11667 km/h
Sensor: Nr:Datum:Temp:Abs-Feuchte:Windchill:Wind:
Aussen-T/F 351 18-12-2013 14:00:00 8.98333 C 7.6 g/m*3 8.15 C 6.56667 km/h
352 18-12-2013 15:00:00 8.75 C 7.61 g/m*3 8.75 C 4.68333 km/h
353 18-12-2013 16:00:00 8.20833 C 7.46 g/m*3 8.21 C 2.13333 km/h
354 18-12-2013 17:00:00 7.35 C 7.26 g/m*3 7.35 C 2 km/h
355 18-12-2013 18:00:00 7.11667 C 7.07 g/m*3 7.12 C 3.2 km/h
356 18-12-2013 19:00:00 5.9 C 6.66 g/m*3 5.9 C 2.8 km/h
357 18-12-2013 20:00:00 5.23333 C 6.47 g/m*3 5.23 C 3.2 km/h
358 18-12-2013 21:00:00 5.11667 C 6.49 g/m*3 5.12 C 3.06667 km/h
359 18-12-2013 22:00:00 5.80833 C 6.77 g/m*3 5.81 C 4.13333 km/h
360 18-12-2013 23:00:00 6.38333 C 6.94 g/m*3 6.38 C 2.93333 km/h
361 19-12-2013 00:00:00 7.03333 C 7.09 g/m*3 7.03 C 4.40833 km/h
362 19-12-2013 01:00:00 8.35833 C 7.24 g/m*3 7.54 C 6.16667 km/h
363 19-12-2013 02:00:00 9.18333 C 7.31 g/m*3 8.53 C 6.025 km/h
364 19-12-2013 03:00:00 9.3 C 7.4 g/m*3 8.42 C 6.975 km/h
365 19-12-2013 04:00:00 9.38333 C 7.47 g/m*3 9.38 C 4.40833 km/h
366 19-12-2013 05:00:00 9.01667 C 7.83 g/m*3 9.02 C 4.675 km/h
367 19-12-2013 06:00:00 8.66667 C 7.99 g/m*3 8.67 C 4.94167 km/h
368 19-12-2013 07:00:00 8.53333 C 8.04 g/m*3 8.53 C 4.95 km/h
369 19-12-2013 08:00:00 8.45833 C 8.14 g/m*3 8.46 C 3.46667 km/h
370 19-12-2013 09:00:00 8.925 C 8.37 g/m*3 8.93 C 4.69167 km/h
371 19-12-2013 10:00:00 9.725 C 8.59 g/m*3 9.22 C 5.775 km/h
372 19-12-2013 11:00:00 10.64167 C 8.36 g/m*3 8.77 C 14.48333 km/h
373 19-12-2013 12:00:00 10.80833 C 7.93 g/m*3 9.03 C 13.96667 km/h
374 19-12-2013 13:00:00 10.6 C 7.65 g/m*3 9.19 C 11.025 km/h
375 19-12-2013 14:00:00 10.23333 C 7.41 g/m*3 8.57 C 12.21667 km/h
Sensor: Nr:Datum:Temp:Abs-Feuchte:Windchill:Wind:
Aussen-T/F 376 19-12-2013 15:00:00 9.3 C 7.17 g/m*3 7.6 C 11.16667 km/h
377 19-12-2013 16:00:00 8.6 C 7 g/m*3 7.1 C 9.275 km/h
378 19-12-2013 17:00:00 7.6 C 7.02 g/m*3 7.6 C 2.4 km/h
379 19-12-2013 18:00:00 6.58333 C 6.84 g/m*3 6.58 C 2.93333 km/h
380 19-12-2013 19:00:00 6.25 C 6.94 g/m*3 6.25 C 2 km/h
381 19-12-2013 20:00:00 5.425 C 6.61 g/m*3 5.43 C 2.13333 km/h
382 19-12-2013 21:00:00 4.9 C 6.42 g/m*3 4.9 C 1.33333 km/h
383 19-12-2013 22:00:00 4.19167 C 6.14 g/m*3 4.19 C 2 km/h
384 19-12-2013 23:00:00 3.575 C 5.91 g/m*3 3.58 C 0.66667 km/h
385 20-12-2013 00:00:00 2.98333 C 5.71 g/m*3 2.98 C 1.33333 km/h
386 20-12-2013 01:00:00 2.61667 C 5.59 g/m*3 2.62 C 0.53333 km/h
387 20-12-2013 02:00:00 2.99167 C 5.76 g/m*3 2.99 C 0.53333 km/h
388 20-12-2013 03:00:00 2.96667 C 5.75 g/m*3 2.97 C 0.53333 km/h
389 20-12-2013 04:00:00 2.98333 C 5.76 g/m*3 2.98 C 0 km/h
390 20-12-2013 05:00:00 3.275 C 5.9 g/m*3 3.28 C 0.4 km/h
391 20-12-2013 06:00:00 3.15833 C 5.83 g/m*3 3.16 C 0.53333 km/h
392 20-12-2013 07:00:00 4.04167 C 6.24 g/m*3 4.04 C 2 km/h
393 20-12-2013 08:00:00 4.05833 C 6.2 g/m*3 4.06 C 0.93333 km/h
394 20-12-2013 09:00:00 4.65 C 6.41 g/m*3 4.65 C 4.14167 km/h
395 20-12-2013 10:00:00 5.73333 C 6.57 g/m*3 5.73 C 4.53333 km/h
396 20-12-2013 11:00:00 6.35833 C 6.64 g/m*3 5.11 C 6.575 km/h
397 20-12-2013 12:00:00 6.35 C 6.54 g/m*3 5.53 C 5.23333 km/h
398 20-12-2013 13:00:00 6.50833 C 6.38 g/m*3 5.03 C 7.51667 km/h
399 20-12-2013 14:00:00 6.325 C 6.28 g/m*3 5.04 C 6.69167 km/h
400 20-12-2013 15:00:00 5.9 C 6.24 g/m*3 4.88 C 5.61667 km/h
Sensor: Nr:Datum:Temp:Abs-Feuchte:Windchill:Wind:
Aussen-T/F 401 20-12-2013 16:00:00 5.36667 C 6.09 g/m*3 5.37 C 4.26667 km/h
402 20-12-2013 17:00:00 4.2 C 5.88 g/m*3 4.2 C 4.40833 km/h
403 20-12-2013 18:00:00 4.05 C 5.84 g/m*3 4.05 C 4.66667 km/h
404 20-12-2013 19:00:00 4.20833 C 5.77 g/m*3 3.1 C 5.20833 km/h
405 20-12-2013 20:00:00 4.05 C 5.7 g/m*3 2.92 C 5.21667 km/h
406 20-12-2013 21:00:00 3.45 C 5.62 g/m*3 3.45 C 3.2 km/h
407 20-12-2013 22:00:00 3.675 C 5.72 g/m*3 3.68 C 4.675 km/h
408 20-12-2013 23:00:00 5.31667 C 5.97 g/m*3 3.79 C 6.975 km/h
409 21-12-2013 00:00:00 4.89167 C 5.84 g/m*3 3.38 C 6.7 km/h
410 21-12-2013 01:00:00 5.125 C 5.88 g/m*3 3.86 C 6.01667 km/h
411 21-12-2013 02:00:00 4.625 C 5.73 g/m*3 4.63 C 4.53333 km/h
412 21-12-2013 03:00:00 3.28333 C 5.48 g/m*3 3.28 C 2.8 km/h
413 21-12-2013 04:00:00 2.675 C 5.4 g/m*3 2.68 C 3.33333 km/h
414 21-12-2013 05:00:00 2.76667 C 5.44 g/m*3 2.77 C 1.33333 km/h
415 21-12-2013 06:00:00 3.28333 C 5.56 g/m*3 3.28 C 1.6 km/h
416 21-12-2013 07:00:00 3.925 C 5.59 g/m*3 3.93 C 2.54167 km/h
417 21-12-2013 08:00:00 3.45833 C 5.51 g/m*3 3.46 C 0.8 km/h
418 21-12-2013 09:00:00 2.93333 C 5.46 g/m*3 2.93 C 0.8 km/h
419 21-12-2013 10:00:00 4.5 C 5.71 g/m*3 4.5 C 1.2 km/h
420 21-12-2013 11:00:00 6 C 5.81 g/m*3 6 C 3.33333 km/h
421 21-12-2013 12:00:00 6.95 C 5.57 g/m*3 5.35 C 8.31667 km/h
422 21-12-2013 13:00:00 7.21667 C 5.51 g/m*3 6.57 C 5.09167 km/h
423 21-12-2013 14:00:00 6.9 C 5.59 g/m*3 6.9 C 1.86667 km/h
424 21-12-2013 15:00:00 6.31667 C 5.45 g/m*3 6.32 C 2.13333 km/h
425 21-12-2013 16:00:00 5.65833 C 5.32 g/m*3 5.66 C 2.13333 km/h
Sensor: Nr:Datum:Temp:Abs-Feuchte:Windchill:Wind:
Aussen-T/F 426 21-12-2013 17:00:00 5.025 C 5.3 g/m*3 5.03 C 2 km/h
427 21-12-2013 18:00:00 4.86667 C 5.15 g/m*3 4.87 C 2.13333 km/h
428 21-12-2013 19:00:00 4.81667 C 5.2 g/m*3 4.82 C 2.66667 km/h
429 21-12-2013 20:00:00 5.00833 C 5.25 g/m*3 5.01 C 4.01667 km/h
430 21-12-2013 21:00:00 4.78333 C 5.31 g/m*3 4.78 C 2.8 km/h
431 21-12-2013 22:00:00 4.79167 C 5.23 g/m*3 4.79 C 3.06667 km/h
432 21-12-2013 23:00:00 5.725 C 4.99 g/m*3 5.73 C 4.40833 km/h
433 22-12-2013 00:00:00 6.39167 C 4.57 g/m*3 5.12 C 6.69167 km/h
434 22-12-2013 01:00:00 7.3 C 4.31 g/m*3 6.62 C 5.21667 km/h
435 22-12-2013 02:00:00 7.425 C 4.9 g/m*3 6.31 C 6.7 km/h
436 22-12-2013 03:00:00 8.35 C 5.78 g/m*3 5.47 C 18.375 km/h
437 22-12-2013 04:00:00 8.01667 C 6.26 g/m*3 5.34 C 15.96667 km/h
438 22-12-2013 05:00:00 7.28333 C 6.84 g/m*3 4.5 C 15.43333 km/h
439 22-12-2013 06:00:00 7.34167 C 7.01 g/m*3 4.14 C 18.9 km/h
440 22-12-2013 07:00:00 7.66667 C 7.3 g/m*3 5.5 C 11.94167 km/h
441 22-12-2013 08:00:00 7.35833 C 7.46 g/m*3 7.36 C 2.13333 km/h
442 22-12-2013 09:00:00 8.13333 C 7.78 g/m*3 7.48 C 5.49167 km/h
443 22-12-2013 10:00:00 9.16667 C 7.91 g/m*3 7.88 C 8.71667 km/h
444 22-12-2013 11:00:00 9.46667 C 7.94 g/m*3 8.65 C 6.83333 km/h
445 22-12-2013 12:00:00 9.71667 C 8.04 g/m*3 9.33 C 5.35833 km/h
446 22-12-2013 13:00:00 10.16667 C 8.01 g/m*3 8.69 C 10.88333 km/h
447 22-12-2013 14:00:00 10.21667 C 7.99 g/m*3 8.34 C 13.7 km/h
448 22-12-2013 15:00:00 9.96667 C 8.05 g/m*3 8.06 C 13.56667 km/h
449 22-12-2013 16:00:00 10.09167 C 7.95 g/m*3 8.12 C 14.23333 km/h
450 22-12-2013 17:00:00 10 C 7.92 g/m*3 7.93 C 14.9 km/h
Sensor: Nr:Datum:Temp:Abs-Feuchte:Windchill:Wind:
Aussen-T/F 451 22-12-2013 18:00:00 9.925 C 7.93 g/m*3 7.51 C 17.7 km/h
452 22-12-2013 19:00:00 9.9 C 7.95 g/m*3 7.19 C 20.65 km/h
453 22-12-2013 20:00:00 9.93333 C 7.94 g/m*3 7.23 C 20.63333 km/h
454 22-12-2013 21:00:00 9.725 C 8 g/m*3 7.67 C 14.23333 km/h
455 22-12-2013 22:00:00 9.38333 C 8.15 g/m*3 8.08 C 9.00833 km/h
456 22-12-2013 23:00:00 8.63333 C 8.06 g/m*3 8.63 C 3.60833 km/h
457 23-12-2013 00:00:00 8.025 C 7.84 g/m*3 8.03 C 4.26667 km/h
458 23-12-2013 01:00:00 7.83333 C 7.39 g/m*3 5.43 C 13.675 km/h
459 23-12-2013 02:00:00 5.83333 C 6.77 g/m*3 5.83 C 4.14167 km/h
460 23-12-2013 03:00:00 5.975 C 6.82 g/m*3 5.11 C 5.20833 km/h
461 23-12-2013 04:00:00 5.9 C 6.82 g/m*3 5.9 C 4.13333 km/h
462 23-12-2013 05:00:00 7.15833 C 6.88 g/m*3 5.19 C 10.21667 km/h
463 23-12-2013 06:00:00 6.43333 C 6.73 g/m*3 5.4 C 5.9 km/h
464 23-12-2013 07:00:00 5.95 C 6.74 g/m*3 5.95 C 3.46667 km/h
465 23-12-2013 08:00:00 5.51667 C 6.58 g/m*3 5.52 C 2 km/h
466 23-12-2013 09:00:00 5.175 C 6.53 g/m*3 5.18 C 0.8 km/h
467 23-12-2013 10:00:00 6.825 C 7.14 g/m*3 5.17 C 8.4625 km/h
468 23-12-2013 11:00:00 8.99167 C 7.38 g/m*3 7.67 C 8.73333 km/h
469 23-12-2013 12:00:00 9.54167 C 7.54 g/m*3 8.54 C 7.65833 km/h
470 23-12-2013 13:00:00 10.1125 C 7.52 g/m*3 9.7 C 5.625 km/h
471 23-12-2013 14:00:00 10.69167 C 7.61 g/m*3 9.76 C 8.325 km/h
472 23-12-2013 15:00:00 10.9 C 7.6 g/m*3 9.88 C 9 km/h
473 23-12-2013 16:00:00 10.1 C 7.61 g/m*3 9.48 C 6.4 km/h
474 23-12-2013 17:00:00 10.58333 C 7.78 g/m*3 9.82 C 7.4 km/h
475 23-12-2013 18:00:00 10.55833 C 7.8 g/m*3 10.21 C 5.625 km/h
Sensor: Nr:Datum:Temp:Abs-Feuchte:Windchill:Wind:
Aussen-T/F 476 23-12-2013 19:00:00 9.97778 C 7.59 g/m*3 9.43 C 6.07778 km/h
477 23-12-2013 20:00:00 10.26667 C 7.46 g/m*3 9.2 C 8.58333 km/h
478 23-12-2013 21:00:00 10.21667 C 7.42 g/m*3 9.19 C 8.34167 km/h
479 23-12-2013 22:00:00 10.43333 C 7.42 g/m*3 9.23 C 9.54167 km/h
480 23-12-2013 23:00:00 10.25833 C 7.26 g/m*3 8.99 C 9.69167 km/h
481 24-12-2013 00:00:00 9.9 C 6.99 g/m*3 8.72 C 8.86667 km/h
482 24-12-2013 01:00:00 9.575 C 6.84 g/m*3 8.62 C 7.5 km/h
483 24-12-2013 02:00:00 8.85833 C 6.65 g/m*3 7.9 C 6.98333 km/h
484 24-12-2013 03:00:00 8.51667 C 6.66 g/m*3 7.88 C 5.61667 km/h
485 24-12-2013 04:00:00 8.625 C 6.75 g/m*3 7.96 C 5.75833 km/h
486 24-12-2013 05:00:00 9.61667 C 6.84 g/m*3 8.88 C 6.575 km/h
487 24-12-2013 06:00:00 9.81667 C 6.97 g/m*3 9.26 C 6.01667 km/h
488 24-12-2013 07:00:00 9.95833 C 7.05 g/m*3 9.12 C 7.25 km/h
489 24-12-2013 08:00:00 11.84167 C 7.24 g/m*3 11.84 C 8.05833 km/h
490 24-12-2013 09:00:00 12.26667 C 7.36 g/m*3 12.27 C 8.18333 km/h
491 24-12-2013 10:00:00 12.8 C 7.57 g/m*3 12.8 C 8.73333 km/h
492 24-12-2013 11:00:00 13.88333 C 7.48 g/m*3 13.88 C 16.10833 km/h
493 24-12-2013 12:00:00 13.96667 C 7.71 g/m*3 13.97 C 9.94167 km/h
494 24-12-2013 13:00:00 13.85833 C 7.8 g/m*3 13.86 C 10.71667 km/h
495 24-12-2013 14:00:00 13.90833 C 7.92 g/m*3 13.91 C 10.225 km/h
496 24-12-2013 15:00:00 13.08333 C 8.39 g/m*3 13.08 C 8.45833 km/h
497 24-12-2013 16:00:00 12.75 C 8.32 g/m*3 12.75 C 8.6 km/h
498 24-12-2013 17:00:00 12.74167 C 8.3 g/m*3 12.74 C 9.26667 km/h
499 24-12-2013 18:00:00 12.78333 C 8.22 g/m*3 12.78 C 6.70833 km/h
500 24-12-2013 19:00:00 12.73333 C 8.25 g/m*3 12.73 C 8.05 km/h
Sensor: Nr:Datum:Temp:Abs-Feuchte:Windchill:Wind:
Aussen-T/F 501 24-12-2013 20:00:00 12.58333 C 8.27 g/m*3 12.58 C 8.6 km/h
502 24-12-2013 21:00:00 11.98182 C 8.58 g/m*3 11.98 C 9.82727 km/h
503 24-12-2013 22:00:00 11.16 C 8.77 g/m*3 11.16 C 5.3 km/h
504 24-12-2013 23:00:00 10.575 C 8.62 g/m*3 10.58 C 4.81667 km/h
505 25-12-2013 00:00:00 10.85833 C 8.53 g/m*3 10 C 8.05833 km/h
506 25-12-2013 01:00:00 10.64167 C 8.6 g/m*3 10.14 C 6.29167 km/h
507 25-12-2013 02:00:00 10.675 C 8.56 g/m*3 9.9 C 7.50833 km/h
508 25-12-2013 03:00:00 10.8 C 8.7 g/m*3 10.22 C 6.70833 km/h
509 25-12-2013 04:00:00 10.775 C 8.85 g/m*3 10.25 C 6.44167 km/h
510 25-12-2013 05:00:00 10.53333 C 8.86 g/m*3 9.52 C 8.6 km/h
511 25-12-2013 06:00:00 10.025 C 8.58 g/m*3 9.32 C 6.71667 km/h
512 25-12-2013 07:00:00 9.425 C 8.27 g/m*3 7.91 C 10.2 km/h
513 25-12-2013 08:00:00 8.275 C 7.57 g/m*3 7.44 C 6.16667 km/h
514 25-12-2013 09:00:00 7.55 C 7.47 g/m*3 7.55 C 2.93333 km/h
515 25-12-2013 11:00:00 8.16667 C 8.08 g/m*3 8.17 C 0 km/h
516 25-12-2013 16:00:00 7.775 C 7.82 g/m*3 7.78 C 0.26667 km/h
517 25-12-2013 17:00:00 7.40833 C 7.59 g/m*3 7.41 C 0.93333 km/h
518 25-12-2013 18:00:00 6.28333 C 7.06 g/m*3 6.28 C 2.66667 km/h
519 25-12-2013 19:00:00 5.85 C 6.94 g/m*3 5.85 C 1.46667 km/h
520 25-12-2013 20:00:00 6.275 C 7.11 g/m*3 6.28 C 0.8 km/h
521 25-12-2013 21:00:00 5.65 C 6.78 g/m*3 5.65 C 1.73333 km/h
522 25-12-2013 22:00:00 6.06667 C 7.01 g/m*3 6.07 C 1.74167 km/h
523 25-12-2013 23:00:00 6.375 C 7.09 g/m*3 6.38 C 1.33333 km/h
524 26-12-2013 00:00:00 5.80833 C 6.8 g/m*3 5.81 C 2.13333 km/h
525 26-12-2013 01:00:00 5.41667 C 6.69 g/m*3 5.42 C 0.26667 km/h
Sensor: Nr:Datum:Temp:Abs-Feuchte:Windchill:Wind:
Aussen-T/F 526 26-12-2013 02:00:00 5.30833 C 6.66 g/m*3 5.31 C 0.13333 km/h
527 26-12-2013 03:00:00 5.50833 C 6.76 g/m*3 5.51 C 0.13333 km/h
528 26-12-2013 04:00:00 5.79167 C 6.87 g/m*3 5.79 C 0 km/h
529 26-12-2013 05:00:00 5.74167 C 6.85 g/m*3 5.74 C 0 km/h
530 26-12-2013 06:00:00 5.65833 C 6.81 g/m*3 5.66 C 0 km/h
531 26-12-2013 07:00:00 5.7 C 6.83 g/m*3 5.7 C 0.4 km/h
532 26-12-2013 08:00:00 5.79167 C 6.91 g/m*3 5.79 C 0 km/h
533 26-12-2013 09:00:00 5.975 C 7.03 g/m*3 5.98 C 0 km/h
534 26-12-2013 10:00:00 6.15833 C 7.11 g/m*3 6.16 C 0 km/h
535 26-12-2013 11:00:00 6.39167 C 7.2 g/m*3 6.39 C 3.33333 km/h
536 26-12-2013 12:00:00 6.5 C 7.2 g/m*3 5.58 C 5.6 km/h
537 26-12-2013 13:00:00 7.42857 C 7.33 g/m*3 7.43 C 0.68571 km/h
538 26-12-2013 14:00:00 7.65 C 7.37 g/m*3 7.65 C 0.53333 km/h
539 26-12-2013 15:00:00 7.68 C 7.36 g/m*3 7.68 C 0.16 km/h
540 26-12-2013 16:00:00 7.21818 C 7.38 g/m*3 7.22 C 0 km/h
541 26-12-2013 17:00:00 7.05833 C 7.29 g/m*3 7.06 C 1.6 km/h
542 26-12-2013 18:00:00 6.65 C 7.19 g/m*3 6.65 C 2.53333 km/h
543 26-12-2013 19:00:00 6.11667 C 6.98 g/m*3 6.12 C 2.93333 km/h
544 26-12-2013 20:00:00 5.71667 C 6.84 g/m*3 5.72 C 2.66667 km/h
545 26-12-2013 21:00:00 4.83333 C 6.36 g/m*3 4.83 C 4.40833 km/h
546 26-12-2013 22:00:00 5.18333 C 6.41 g/m*3 4.11 C 5.49167 km/h
547 26-12-2013 23:00:00 5.55833 C 6.28 g/m*3 3.96 C 7.36667 km/h
548 27-12-2013 00:00:00 4.73333 C 6.05 g/m*3 3.32 C 6.29167 km/h
549 27-12-2013 01:00:00 4.975 C 6 g/m*3 3.35 C 7.1 km/h
550 27-12-2013 02:00:00 3.525 C 5.69 g/m*3 3.53 C 3.46667 km/h
Sensor: Nr:Datum:Temp:Abs-Feuchte:Windchill:Wind:
Aussen-T/F 551 27-12-2013 03:00:00 2.50833 C 5.46 g/m*3 2.51 C 2.53333 km/h
552 27-12-2013 04:00:00 3.53333 C 5.84 g/m*3 3.53 C 3.73333 km/h
553 27-12-2013 05:00:00 5.075 C 6.02 g/m*3 3.94 C 5.625 km/h
554 27-12-2013 06:00:00 4.95833 C 5.87 g/m*3 4.96 C 3.875 km/h
555 27-12-2013 07:00:00 4.25833 C 5.84 g/m*3 4.26 C 2.13333 km/h
556 27-12-2013 08:00:00 3.90833 C 5.78 g/m*3 3.91 C 3.46667 km/h
557 27-12-2013 09:00:00 5.175 C 5.95 g/m*3 4.15 C 5.35833 km/h
558 27-12-2013 10:00:00 6.55833 C 5.82 g/m*3 4.25 C 11.40833 km/h
559 27-12-2013 11:00:00 7.125 C 5.85 g/m*3 5.59 C 8.18333 km/h
560 27-12-2013 12:00:00 7.71111 C 6 g/m*3 5.96 C 9.68889 km/h
561 27-12-2013 13:00:00 8.35 C 6.26 g/m*3 6.43 C 11.275 km/h
562 27-12-2013 14:00:00 8.8 C 6.44 g/m*3 7.59 C 8.05 km/h
563 27-12-2013 16:00:00 9.2 C 6.71 g/m*3 8.05 C 8.0625 km/h
564 27-12-2013 17:00:00 8.85 C 6.96 g/m*3 8.45 C 5.0125 km/h
565 27-12-2013 18:00:00 8.9 C 7.1 g/m*3 7.82 C 7.525 km/h
566 27-12-2013 19:00:00 9.25 C 7.29 g/m*3 8.71 C 5.625 km/h
567 27-12-2013 20:00:00 9.66667 C 7.64 g/m*3 9.35 C 5.08333 km/h
568 27-12-2013 21:00:00 9.925 C 7.85 g/m*3 9.93 C 4.28333 km/h
569 27-12-2013 22:00:00 10.03333 C 8.25 g/m*3 9.3 C 6.84167 km/h
570 27-12-2013 23:00:00 9.675 C 8.39 g/m*3 9.09 C 6.025 km/h
571 28-12-2013 00:00:00 9.71667 C 8.38 g/m*3 9.72 C 4.675 km/h
572 28-12-2013 01:00:00 9.94167 C 8.27 g/m*3 9.94 C 3.2 km/h
573 28-12-2013 02:00:00 10.85 C 8.06 g/m*3 10.37 C 6.3 km/h
574 28-12-2013 03:00:00 10.79167 C 7.87 g/m*3 10.45 C 5.74167 km/h
575 28-12-2013 04:00:00 10.54167 C 7.77 g/m*3 10.54 C 4.8 km/h
Sensor: Nr:Datum:Temp:Abs-Feuchte:Windchill:Wind:
Aussen-T/F 576 28-12-2013 05:00:00 9.9 C 7.99 g/m*3 9.9 C 4.275 km/h
577 28-12-2013 06:00:00 9.20833 C 7.94 g/m*3 9.21 C 4.53333 km/h
578 28-12-2013 07:00:00 9.35 C 7.86 g/m*3 9.35 C 4.95 km/h
579 28-12-2013 08:00:00 10.06667 C 7.96 g/m*3 9.16 C 7.64167 km/h
580 28-12-2013 09:00:00 9.95833 C 7.92 g/m*3 8.95 C 8.05833 km/h
581 28-12-2013 10:00:00 10.25 C 8.07 g/m*3 8.87 C 10.34167 km/h
582 28-12-2013 11:00:00 10.48333 C 8.19 g/m*3 9.95 C 6.30833 km/h
583 28-12-2013 12:00:00 9.84167 C 8.47 g/m*3 9.84 C 2.54167 km/h
584 28-12-2013 13:00:00 9.45 C 8.51 g/m*3 9.45 C 0.4 km/h
585 28-12-2013 14:00:00 9.36667 C 8.57 g/m*3 9.37 C 0.13333 km/h
586 28-12-2013 15:00:00 9.24167 C 8.58 g/m*3 9.24 C 0 km/h
587 28-12-2013 16:00:00 8.86667 C 8.4 g/m*3 8.87 C 0 km/h
588 28-12-2013 17:00:00 8.51667 C 8.28 g/m*3 8.52 C 0.13333 km/h
589 28-12-2013 18:00:00 8.24167 C 8.15 g/m*3 8.24 C 0 km/h
590 28-12-2013 19:00:00 7.93333 C 7.98 g/m*3 7.93 C 0.4 km/h
591 28-12-2013 20:00:00 7.73333 C 7.9 g/m*3 7.73 C 0.13333 km/h
592 28-12-2013 21:00:00 7.29167 C 7.67 g/m*3 7.29 C 4.28333 km/h
593 28-12-2013 22:00:00 6.58333 C 7.08 g/m*3 5.58 C 5.89167 km/h
594 28-12-2013 23:00:00 5.34167 C 6.43 g/m*3 2.65 C 12.09167 km/h
595 29-12-2013 00:00:00 4.66667 C 6.21 g/m*3 3.19 C 6.45 km/h
596 29-12-2013 01:00:00 4.4 C 6.2 g/m*3 4.4 C 2.13333 km/h
597 29-12-2013 02:00:00 5.075 C 6.29 g/m*3 2.3 C 12.23333 km/h
598 29-12-2013 03:00:00 5.3 C 6.27 g/m*3 3.65 C 7.375 km/h
599 29-12-2013 04:00:00 5.60833 C 6.45 g/m*3 5.61 C 4.95 km/h
600 29-12-2013 05:00:00 5.46667 C 6.59 g/m*3 5.47 C 1.6 km/h
Sensor: Nr:Datum:Temp:Abs-Feuchte:Windchill:Wind:
Aussen-T/F 601 29-12-2013 06:00:00 5.51667 C 6.66 g/m*3 5.52 C 3.475 km/h
602 29-12-2013 07:00:00 5.025 C 6.48 g/m*3 5.03 C 2.93333 km/h
603 29-12-2013 08:00:00 5.10833 C 6.57 g/m*3 5.11 C 3.75 km/h
604 29-12-2013 09:00:00 4.925 C 6.46 g/m*3 4.93 C 3.86667 km/h
605 29-12-2013 10:00:00 5.05 C 6.47 g/m*3 5.05 C 4.97 km/h
606 29-12-2013 13:00:00 7.16667 C 6.66 g/m*3 5.1 C 10.76667 km/h
607 29-12-2013 18:00:00 3.62 C 6.2 g/m*3 3.62 C 3.84 km/h
608 29-12-2013 21:00:00 2.95 C 5.57 g/m*3 2.95 C 4.8 km/h
609 29-12-2013 22:00:00 3.375 C 5.74 g/m*3 3.38 C 4.95833 km/h
610 29-12-2013 23:00:00 2.65 C 5.51 g/m*3 2.65 C 2.54167 km/h
611 30-12-2013 00:00:00 3.13333 C 5.66 g/m*3 3.13 C 3.48333 km/h
612 30-12-2013 01:00:00 3.69167 C 5.82 g/m*3 3.69 C 2.80833 km/h
613 30-12-2013 02:00:00 4.26667 C 5.86 g/m*3 4.27 C 3.6 km/h
614 30-12-2013 03:00:00 3.89167 C 5.75 g/m*3 3.89 C 3.73333 km/h
615 30-12-2013 04:00:00 4.35 C 5.8 g/m*3 4.35 C 3.60833 km/h
616 30-12-2013 05:00:00 4.66667 C 5.76 g/m*3 4.67 C 3.075 km/h
617 30-12-2013 06:00:00 4.82 C 5.68 g/m*3 4.82 C 3.2 km/h
618 30-12-2013 07:00:00 4.8 C 5.63 g/m*3 4.8 C 3.2 km/h
619 30-12-2013 13:00:00 6 C 5.81 g/m*3 4.73 C 6.45 km/h
620 30-12-2013 14:00:00 5.77143 C 5.81 g/m*3 5.77 C 3.2 km/h
621 30-12-2013 15:00:00 4.7 C 5.86 g/m*3 4.7 C 2.4 km/h
622 30-12-2013 16:00:00 4.2 C 5.8 g/m*3 4.2 C 1.6 km/h
623 30-12-2013 18:00:00 4.16667 C 5.79 g/m*3 4.17 C 2.66667 km/h
624 30-12-2013 20:00:00 3.7 C 5.73 g/m*3 3.7 C 0 km/h
625 30-12-2013 21:00:00 3.70833 C 5.74 g/m*3 3.71 C 0 km/h
Sensor: Nr:Datum:Temp:Abs-Feuchte:Windchill:Wind:
Aussen-T/F 626 30-12-2013 22:00:00 3.8 C 5.77 g/m*3 3.8 C 0.53333 km/h
627 31-12-2013 01:00:00 3.33333 C 5.53 g/m*3 3.33 C 3.2 km/h
628 31-12-2013 02:00:00 3.2 C 5.48 g/m*3 3.2 C 3.2 km/h
629 31-12-2013 07:00:00 1.02727 C 4.96 g/m*3 1.03 C 2.03636 km/h
630 31-12-2013 08:00:00 1.075 C 4.96 g/m*3 1.08 C 0.4 km/h
631 31-12-2013 09:00:00 1.15 C 5 g/m*3 1.15 C 0.13333 km/h
632 31-12-2013 10:00:00 1.78333 C 5.26 g/m*3 1.78 C 0.26667 km/h
633 31-12-2013 11:00:00 2.7 C 5.56 g/m*3 2.7 C 0.64 km/h
634 31-12-2013 12:00:00 3.1 C 5.78 g/m*3 3.1 C 2.4 km/h
635 31-12-2013 13:00:00 4.35 C 5.92 g/m*3 4.35 C 1.2 km/h
636 31-12-2013 18:00:00 4.14444 C 5.4 g/m*3 1.93 C 8.76667 km/h
637 31-12-2013 19:00:00 4.60833 C 5.38 g/m*3 2.59 C 8.325 km/h
638 31-12-2013 20:00:00 4.35833 C 5.39 g/m*3 3.11 C 5.63333 km/h
639 31-12-2013 21:00:00 3.925 C 5.39 g/m*3 3.93 C 3.20833 km/h
640 31-12-2013 22:00:00 3.8 C 5.29 g/m*3 3.8 C 4.55 km/h
641 31-12-2013 23:00:00 2.775 C 5.23 g/m*3 2.78 C 2.13333 km/h
642 01-01-2014 00:00:00 2.65 C 5.19 g/m*3 2.65 C 1.46667 km/h
643 01-01-2014 01:00:00 3 C 5.35 g/m*3 3 C 1.2 km/h
644 01-01-2014 02:00:00 3.675 C 5.46 g/m*3 3.68 C 2.80833 km/h
645 01-01-2014 03:00:00 4.36667 C 5.71 g/m*3 4.37 C 2 km/h
646 01-01-2014 04:00:00 4.60833 C 5.98 g/m*3 4.61 C 1.46667 km/h
647 01-01-2014 05:00:00 5.16667 C 6.13 g/m*3 5.17 C 1.86667 km/h
648 01-01-2014 06:00:00 5.48333 C 6.37 g/m*3 5.48 C 0.66667 km/h
649 01-01-2014 07:00:00 5.575 C 6.53 g/m*3 5.58 C 0.53333 km/h
650 01-01-2014 08:00:00 5.025 C 6.34 g/m*3 5.03 C 2.26667 km/h
Sensor: Nr:Datum:Temp:Abs-Feuchte:Windchill:Wind:
Aussen-T/F 651 01-01-2014 09:00:00 5.1 C 6.48 g/m*3 5.1 C 1.24444 km/h
652 01-01-2014 10:00:00 6.325 C 6.68 g/m*3 6.33 C 1.6 km/h
653 01-01-2014 11:00:00 7.025 C 6.8 g/m*3 7.03 C 2.54167 km/h
654 01-01-2014 12:00:00 6.95833 C 6.82 g/m*3 6.96 C 2.93333 km/h
655 01-01-2014 13:00:00 8.69167 C 6.7 g/m*3 8.69 C 4.14167 km/h
656 01-01-2014 14:00:00 8.78333 C 6.79 g/m*3 8.78 C 4.68333 km/h
657 01-01-2014 15:00:00 8.39167 C 6.83 g/m*3 8.39 C 2.8 km/h
658 01-01-2014 16:00:00 7.6 C 6.76 g/m*3 7.6 C 4.55 km/h
659 01-01-2014 17:00:00 7.8 C 6.87 g/m*3 7.01 C 5.76667 km/h
660 01-01-2014 18:00:00 7.95 C 6.98 g/m*3 6.75 C 7.38333 km/h
661 01-01-2014 19:00:00 8.15 C 6.91 g/m*3 7.29 C 6.175 km/h
662 01-01-2014 20:00:00 7.91667 C 6.93 g/m*3 7.92 C 4.81667 km/h
663 01-01-2014 21:00:00 8.5 C 6.97 g/m*3 7.59 C 6.575 km/h
664 01-01-2014 22:00:00 8.13333 C 6.98 g/m*3 7.57 C 5.21667 km/h
665 01-01-2014 23:00:00 8.04167 C 7.02 g/m*3 7.42 C 5.35 km/h
666 02-01-2014 00:00:00 8.63333 C 7.11 g/m*3 8.09 C 5.35833 km/h
667 02-01-2014 01:00:00 8.89167 C 7.19 g/m*3 8.34 C 5.49167 km/h
668 02-01-2014 02:00:00 9.375 C 7.42 g/m*3 8.51 C 6.96667 km/h
669 02-01-2014 03:00:00 8.95833 C 7.53 g/m*3 8.96 C 4.95 km/h
670 02-01-2014 04:00:00 8.1 C 7.57 g/m*3 8.1 C 4.8 km/h
671 02-01-2014 05:00:00 7.69167 C 7.57 g/m*3 7.69 C 3.46667 km/h
672 02-01-2014 06:00:00 7.7 C 7.66 g/m*3 7.7 C 3.2 km/h
673 02-01-2014 07:00:00 7.84545 C 7.78 g/m*3 7.85 C 3.64545 km/h
674 02-01-2014 08:00:00 8.8 C 8.18 g/m*3 7.47 C 8.6 km/h
675 02-01-2014 09:00:00 9.08 C 8.05 g/m*3 9.08 C 3.52 km/h
Sensor: Nr:Datum:Temp:Abs-Feuchte:Windchill:Wind:
Aussen-T/F 676 02-01-2014 10:00:00 9.53333 C 8.18 g/m*3 9.53 C 4.68333 km/h
677 02-01-2014 11:00:00 10.38333 C 8.52 g/m*3 10.38 C 4.66667 km/h
678 02-01-2014 12:00:00 11.01667 C 8.3 g/m*3 11.02 C 9.79167 km/h
679 02-01-2014 13:00:00 10.89167 C 7.94 g/m*3 8.96 C 15.43333 km/h
680 02-01-2014 14:00:00 10.54167 C 7.84 g/m*3 8.63 C 14.63333 km/h
681 02-01-2014 15:00:00 9.29167 C 7.74 g/m*3 8.13 C 8.2 km/h
682 02-01-2014 16:00:00 8.70833 C 7.31 g/m*3 7.23 C 9.275 km/h
683 02-01-2014 17:00:00 7.71111 C 7.08 g/m*3 7.71 C 4.45556 km/h
684 02-01-2014 18:00:00 6.81667 C 7.02 g/m*3 6.82 C 2.8 km/h
685 02-01-2014 19:00:00 6.80833 C 7.14 g/m*3 6.81 C 3.2 km/h
686 02-01-2014 20:00:00 6.31667 C 7.01 g/m*3 6.32 C 2.93333 km/h
687 02-01-2014 21:00:00 6.06667 C 6.88 g/m*3 6.07 C 2.66667 km/h
688 02-01-2014 22:00:00 5.85 C 6.8 g/m*3 5.85 C 2.13333 km/h
689 02-01-2014 23:00:00 4.95833 C 6.43 g/m*3 4.96 C 0.13333 km/h
690 03-01-2014 00:00:00 4.025 C 6.1 g/m*3 4.03 C 0.26667 km/h
691 03-01-2014 01:00:00 3.80833 C 6.06 g/m*3 3.81 C 0.26667 km/h
692 03-01-2014 02:00:00 4.39167 C 6.33 g/m*3 4.39 C 1.73333 km/h
693 03-01-2014 03:00:00 5.03333 C 6.63 g/m*3 5.03 C 2.26667 km/h
694 03-01-2014 04:00:00 6.08333 C 7.02 g/m*3 6.08 C 3.46667 km/h
695 03-01-2014 05:00:00 5.925 C 6.8 g/m*3 5.93 C 3.48333 km/h
696 03-01-2014 06:00:00 5.71667 C 6.81 g/m*3 5.72 C 3.33333 km/h
697 03-01-2014 07:00:00 5.91667 C 6.9 g/m*3 5.92 C 2.8 km/h
698 03-01-2014 08:00:00 6.175 C 7.05 g/m*3 6.18 C 1.2 km/h
699 03-01-2014 09:00:00 7.31667 C 7.34 g/m*3 7.32 C 4.94167 km/h
700 03-01-2014 10:00:00 9.15 C 7.83 g/m*3 8.38 C 6.43333 km/h
Sensor: Nr:Datum:Temp:Abs-Feuchte:Windchill:Wind:
Aussen-T/F 701 03-01-2014 11:00:00 9.28333 C 8.08 g/m*3 8.83 C 5.36667 km/h
702 03-01-2014 12:00:00 10.55 C 8.46 g/m*3 8.95 C 12.225 km/h
703 03-01-2014 13:00:00 11.08333 C 8.48 g/m*3 11.08 C 8.18333 km/h
704 03-01-2014 14:00:00 12.00833 C 8.41 g/m*3 12.01 C 8.59167 km/h
705 03-01-2014 15:00:00 11.86667 C 8.37 g/m*3 11.87 C 4.68333 km/h
706 03-01-2014 16:00:00 11.06667 C 8.28 g/m*3 11.07 C 4.68333 km/h
707 03-01-2014 17:00:00 10.85 C 8.18 g/m*3 10.41 C 6.16667 km/h
708 03-01-2014 18:00:00 10.96667 C 8.17 g/m*3 10.08 C 8.33333 km/h
709 03-01-2014 19:00:00 11.86667 C 8.16 g/m*3 11.87 C 11.01667 km/h
710 03-01-2014 20:00:00 12.36667 C 8.05 g/m*3 12.37 C 20.78333 km/h
711 03-01-2014 21:00:00 12.08333 C 7.84 g/m*3 12.08 C 20.375 km/h
712 03-01-2014 22:00:00 11.55 C 7.49 g/m*3 11.55 C 16.63333 km/h
713 03-01-2014 23:00:00 10.88333 C 6.91 g/m*3 8.92 C 15.7 km/h
714 04-01-2014 00:00:00 9.73333 C 6.63 g/m*3 8.23 C 10.475 km/h
715 04-01-2014 01:00:00 8.58333 C 6.7 g/m*3 8.04 C 5.35 km/h
716 04-01-2014 02:00:00 7.55833 C 6.71 g/m*3 7.56 C 4.80833 km/h
717 04-01-2014 03:00:00 7.925 C 6.75 g/m*3 7.93 C 4.54167 km/h
718 04-01-2014 04:00:00 7.38333 C 6.81 g/m*3 7.38 C 2.66667 km/h
719 04-01-2014 05:00:00 6.20833 C 6.56 g/m*3 6.21 C 3.2 km/h
720 04-01-2014 06:00:00 5.3 C 6.37 g/m*3 5.3 C 3.6 km/h
721 04-01-2014 07:00:00 6.10833 C 6.59 g/m*3 5.17 C 5.48333 km/h
722 04-01-2014 08:00:00 7.01667 C 6.74 g/m*3 5.8 C 6.85 km/h
723 04-01-2014 09:00:00 7.20833 C 6.81 g/m*3 6.1 C 6.55 km/h
724 04-01-2014 10:00:00 7.91667 C 7.07 g/m*3 6.84 C 6.85 km/h
725 04-01-2014 11:00:00 8.275 C 7.14 g/m*3 7.09 C 7.51667 km/h
Sensor: Nr:Datum:Temp:Abs-Feuchte:Windchill:Wind:
Aussen-T/F 726 04-01-2014 12:00:00 9.04167 C 7.23 g/m*3 8.64 C 5.075 km/h
727 04-01-2014 13:00:00 9.41667 C 7.28 g/m*3 8.46 C 7.375 km/h
728 04-01-2014 14:00:00 9.04167 C 7.31 g/m*3 9.04 C 2.40833 km/h
729 04-01-2014 15:00:00 7.9 C 7.63 g/m*3 7.9 C 0.13333 km/h
730 04-01-2014 16:00:00 7.28333 C 7.53 g/m*3 7.28 C 0 km/h
731 04-01-2014 17:00:00 6.71667 C 7.3 g/m*3 6.72 C 0.26667 km/h
732 04-01-2014 18:00:00 6.66667 C 7.32 g/m*3 6.67 C 1.475 km/h
733 04-01-2014 19:00:00 6.59167 C 7.31 g/m*3 6.59 C 2 km/h
734 04-01-2014 20:00:00 6.575 C 7.31 g/m*3 6.58 C 0.4 km/h
735 04-01-2014 21:00:00 7.04167 C 7.54 g/m*3 7.04 C 2.4 km/h
736 04-01-2014 22:00:00 6.89167 C 7.39 g/m*3 6.89 C 2.8 km/h
737 04-01-2014 23:00:00 6.90833 C 7.45 g/m*3 6.91 C 3.73333 km/h
738 05-01-2014 00:00:00 6.85833 C 7.45 g/m*3 6.86 C 3.06667 km/h
739 05-01-2014 01:00:00 7.225 C 7.63 g/m*3 7.23 C 2.66667 km/h
740 05-01-2014 02:00:00 7.45 C 7.68 g/m*3 7.45 C 1.33333 km/h
741 05-01-2014 03:00:00 7.74167 C 7.68 g/m*3 6.75 C 6.425 km/h
742 05-01-2014 04:00:00 7.39167 C 7.46 g/m*3 7.39 C 3.86667 km/h
743 05-01-2014 05:00:00 7.10833 C 7.45 g/m*3 7.11 C 4.01667 km/h
744 05-01-2014 06:00:00 6.94167 C 7.33 g/m*3 6.94 C 4.4 km/h
745 05-01-2014 07:00:00 6.85833 C 7.1 g/m*3 5.65 C 6.70833 km/h
746 05-01-2014 08:00:00 6.00833 C 6.62 g/m*3 5.01 C 5.61667 km/h
747 05-01-2014 09:00:00 6 C 6.52 g/m*3 5.14 C 5.20833 km/h
748 05-01-2014 10:00:00 6.15833 C 6.48 g/m*3 4.92 C 6.43333 km/h
749 05-01-2014 11:00:00 6.5875 C 6.37 g/m*3 4.8 C 8.8625 km/h
750 05-01-2014 13:00:00 6.46667 C 6.24 g/m*3 4.07 C 11.8 km/h
Sensor: Nr:Datum:Temp:Abs-Feuchte:Windchill:Wind:
Aussen-T/F 751 05-01-2014 16:00:00 5.76667 C 6.12 g/m*3 4.82 C 5.36667 km/h
752 05-01-2014 17:00:00 5.6 C 6.23 g/m*3 5.6 C 2.74286 km/h
753 05-01-2014 18:00:00 5.79167 C 6.17 g/m*3 5.79 C 1.86667 km/h
754 05-01-2014 19:00:00 5.875 C 6.13 g/m*3 5.88 C 2.53333 km/h
755 05-01-2014 20:00:00 4.34167 C 5.83 g/m*3 4.34 C 2.26667 km/h
756 05-01-2014 21:00:00 3.85 C 5.76 g/m*3 3.85 C 2.8 km/h
757 05-01-2014 22:00:00 4.71667 C 6.01 g/m*3 4.72 C 2.13333 km/h
758 05-01-2014 23:00:00 3.925 C 5.78 g/m*3 3.93 C 2.93333 km/h
759 06-01-2014 00:00:00 3.31667 C 5.65 g/m*3 3.32 C 2.4 km/h
760 06-01-2014 01:00:00 3.59167 C 5.76 g/m*3 3.59 C 2.40833 km/h
761 06-01-2014 02:00:00 3.8 C 5.87 g/m*3 3.8 C 2.8 km/h
762 06-01-2014 03:00:00 5.075 C 6.28 g/m*3 5.08 C 3.06667 km/h
763 06-01-2014 04:00:00 5.69167 C 6.44 g/m*3 5.69 C 2.4 km/h
764 06-01-2014 05:00:00 5.95 C 6.44 g/m*3 5.95 C 1.73333 km/h
765 06-01-2014 06:00:00 6.25833 C 6.57 g/m*3 6.26 C 1.2 km/h
766 06-01-2014 07:00:00 6.51667 C 6.78 g/m*3 6.52 C 1.6 km/h
767 06-01-2014 08:00:00 7.2 C 7.2 g/m*3 7.2 C 1.46667 km/h
768 06-01-2014 09:00:00 8.21667 C 7.64 g/m*3 8.22 C 1.46667 km/h
769 06-01-2014 10:00:00 8.8 C 7.88 g/m*3 8.8 C 3.06667 km/h
770 06-01-2014 11:00:00 9.80833 C 8.22 g/m*3 9.81 C 3.475 km/h
771 06-01-2014 12:00:00 11.475 C 8.68 g/m*3 11.48 C 4.66667 km/h
772 06-01-2014 13:00:00 12.00833 C 8.73 g/m*3 12.01 C 3.475 km/h
773 06-01-2014 14:00:00 11.71667 C 8.42 g/m*3 11.72 C 4.00833 km/h
774 06-01-2014 15:00:00 10.71667 C 8.23 g/m*3 10.72 C 2.26667 km/h
775 06-01-2014 16:00:00 10.475 C 7.95 g/m*3 10.48 C 4.54167 km/h
Sensor: Nr:Datum:Temp:Abs-Feuchte:Windchill:Wind:
Aussen-T/F 776 06-01-2014 17:00:00 9.81667 C 7.97 g/m*3 9.82 C 2.94167 km/h
777 06-01-2014 18:00:00 10.275 C 8.08 g/m*3 10.28 C 4.80833 km/h
778 06-01-2014 19:00:00 10.65 C 8.52 g/m*3 10.47 C 5.08333 km/h
779 06-01-2014 20:00:00 9.79167 C 8.72 g/m*3 9.79 C 4.13333 km/h
780 06-01-2014 21:00:00 9.74167 C 8.78 g/m*3 9.74 C 3.33333 km/h
781 06-01-2014 22:00:00 9.61667 C 8.68 g/m*3 9.62 C 2.66667 km/h
782 06-01-2014 23:00:00 9.60833 C 8.65 g/m*3 8.68 C 7.38333 km/h
783 07-01-2014 00:00:00 10.76667 C 9.04 g/m*3 8.7 C 16.375 km/h
784 07-01-2014 01:00:00 10.70833 C 8.68 g/m*3 9.49 C 9.94167 km/h
785 07-01-2014 02:00:00 10.325 C 8.74 g/m*3 9.38 C 8.05833 km/h
786 07-01-2014 03:00:00 9.91667 C 8.47 g/m*3 9.45 C 5.74167 km/h
787 07-01-2014 04:00:00 9.28333 C 8.36 g/m*3 9.28 C 3.74167 km/h
788 07-01-2014 05:00:00 10.30833 C 8.25 g/m*3 9.44 C 7.64167 km/h
789 07-01-2014 06:00:00 10.31667 C 8.07 g/m*3 9.83 C 6.03333 km/h
790 07-01-2014 07:00:00 9.64167 C 7.91 g/m*3 9.64 C 4.8 km/h
791 07-01-2014 08:00:00 9.66667 C 7.87 g/m*3 9.27 C 5.35 km/h
792 07-01-2014 09:00:00 10.69167 C 7.91 g/m*3 9.65 C 8.86667 km/h
793 07-01-2014 10:00:00 11.35833 C 8.12 g/m*3 11.36 C 10.46667 km/h
794 07-01-2014 11:00:00 11.81667 C 8.24 g/m*3 11.82 C 8.59167 km/h
795 07-01-2014 12:00:00 11.84167 C 8.39 g/m*3 11.84 C 6.84167 km/h
796 07-01-2014 13:00:00 11.55 C 8.66 g/m*3 11.55 C 3.34167 km/h
797 07-01-2014 14:00:00 12.93333 C 8.39 g/m*3 12.93 C 6.975 km/h
798 07-01-2014 15:00:00 13.25 C 8.11 g/m*3 13.25 C 6.7 km/h
799 07-01-2014 16:00:00 11.85833 C 8.34 g/m*3 11.86 C 3.06667 km/h
800 07-01-2014 17:00:00 10.63333 C 8.39 g/m*3 10.63 C 2 km/h
Sensor: Nr:Datum:Temp:Abs-Feuchte:Windchill:Wind:
Aussen-T/F 801 07-01-2014 18:00:00 10.25 C 8.35 g/m*3 10.25 C 3.06667 km/h
802 07-01-2014 19:00:00 10.4 C 8.66 g/m*3 10.4 C 2.13333 km/h
803 07-01-2014 20:00:00 9.63333 C 8.6 g/m*3 9.63 C 1.86667 km/h
804 07-01-2014 21:00:00 9.79167 C 8.78 g/m*3 9.79 C 2.66667 km/h
805 07-01-2014 22:00:00 10.14167 C 8.8 g/m*3 10.14 C 2.26667 km/h
806 07-01-2014 23:00:00 10.40833 C 8.92 g/m*3 10.41 C 2.93333 km/h
807 08-01-2014 00:00:00 11.3 C 9.06 g/m*3 11.3 C 5.48333 km/h
808 08-01-2014 01:00:00 11.525 C 9.06 g/m*3 11.53 C 7.38333 km/h
809 08-01-2014 02:00:00 11.525 C 9.09 g/m*3 11.53 C 5.35 km/h
810 08-01-2014 03:00:00 11.08333 C 9.06 g/m*3 11.08 C 4.28333 km/h
811 08-01-2014 04:00:00 10.84167 C 9.09 g/m*3 10.84 C 3.34167 km/h
812 08-01-2014 05:00:00 11.51667 C 9.12 g/m*3 11.52 C 10.06667 km/h
813 08-01-2014 06:00:00 12.175 C 9.02 g/m*3 12.18 C 13.56667 km/h
814 08-01-2014 07:00:00 11.95833 C 8.82 g/m*3 11.96 C 10.9 km/h
815 08-01-2014 08:00:00 11.45 C 8.61 g/m*3 11.45 C 9.28333 km/h
816 08-01-2014 09:00:00 11.33333 C 8.48 g/m*3 11.33 C 8.06667 km/h
817 08-01-2014 10:00:00 11.52 C 8.46 g/m*3 11.52 C 9.68 km/h
818 08-01-2014 11:00:00 11.175 C 8.35 g/m*3 11.18 C 7.375 km/h
819 08-01-2014 12:00:00 11.25833 C 8.27 g/m*3 11.26 C 6.43333 km/h
820 08-01-2014 13:00:00 12.45833 C 8.34 g/m*3 12.46 C 10.06667 km/h
821 08-01-2014 14:00:00 12.03333 C 8.38 g/m*3 12.03 C 8.04167 km/h
822 08-01-2014 15:00:00 11.49167 C 8.25 g/m*3 11.49 C 8.45833 km/h
823 08-01-2014 16:00:00 10.38333 C 8.09 g/m*3 10.13 C 5.20833 km/h
824 08-01-2014 17:00:00 9.00833 C 7.92 g/m*3 9.01 C 2.66667 km/h
825 08-01-2014 18:00:00 8.2 C 7.7 g/m*3 8.2 C 1.33333 km/h
Sensor: Nr:Datum:Temp:Abs-Feuchte:Windchill:Wind:
Aussen-T/F 826 08-01-2014 19:00:00 7.325 C 7.47 g/m*3 7.33 C 0.26667 km/h
827 08-01-2014 20:00:00 6.98333 C 7.37 g/m*3 6.98 C 0.13333 km/h
828 08-01-2014 21:00:00 6.63333 C 7.26 g/m*3 6.63 C 0 km/h
829 08-01-2014 22:00:00 6.26667 C 7.09 g/m*3 6.27 C 0 km/h
830 09-01-2014 01:00:00 6.5 C 7.27 g/m*3 6.5 C 0.26667 km/h
831 09-01-2014 02:00:00 6.7 C 7.37 g/m*3 6.7 C 0.26667 km/h
832 09-01-2014 03:00:00 6.68333 C 7.36 g/m*3 6.68 C 0.4 km/h
833 09-01-2014 04:00:00 6.75833 C 7.4 g/m*3 6.76 C 0.8 km/h
834 09-01-2014 05:00:00 7 C 7.59 g/m*3 7 C 1.30909 km/h
835 09-01-2014 07:00:00 9.425 C 8.45 g/m*3 9.1 C 5 km/h
836 09-01-2014 08:00:00 9.53333 C 8.16 g/m*3 9.53 C 2.54167 km/h
837 09-01-2014 09:00:00 9.33333 C 8.2 g/m*3 9.33 C 2.53333 km/h
838 09-01-2014 10:00:00 10.01667 C 8.42 g/m*3 10.02 C 2.53333 km/h
839 09-01-2014 11:00:00 11.28333 C 8.54 g/m*3 11.28 C 8.19167 km/h
840 09-01-2014 12:00:00 12.46667 C 8.55 g/m*3 12.47 C 12.23333 km/h
841 09-01-2014 13:00:00 12.7 C 8.57 g/m*3 12.7 C 13.96667 km/h
842 09-01-2014 14:00:00 12.71667 C 8.6 g/m*3 12.72 C 18.64167 km/h
843 09-01-2014 15:00:00 11.45833 C 8.59 g/m*3 11.46 C 16.1 km/h
844 09-01-2014 16:00:00 10.44167 C 8.17 g/m*3 8.19 C 17.43333 km/h
845 09-01-2014 17:00:00 9.94167 C 8.04 g/m*3 7.79 C 15.43333 km/h
846 09-01-2014 18:00:00 9.91667 C 7.84 g/m*3 7.49 C 17.83333 km/h
847 09-01-2014 19:00:00 9.71667 C 7.78 g/m*3 7.27 C 17.575 km/h
848 09-01-2014 20:00:00 9.53333 C 7.25 g/m*3 7.35 C 14.9 km/h
849 09-01-2014 21:00:00 8.49167 C 6.36 g/m*3 6.14 C 14.35833 km/h
850 09-01-2014 22:00:00 6.95 C 5.84 g/m*3 5.48 C 7.79167 km/h
Sensor: Nr:Datum:Temp:Abs-Feuchte:Windchill:Wind:
Aussen-T/F 851 09-01-2014 23:00:00 6.425 C 5.86 g/m*3 6.43 C 4.275 km/h
852 10-01-2014 00:00:00 5.925 C 6.16 g/m*3 5.93 C 0 km/h
853 10-01-2014 01:00:00 5.7 C 6.3 g/m*3 5.7 C 1.33333 km/h
854 10-01-2014 02:00:00 6.2 C 6.35 g/m*3 6.2 C 3.86667 km/h
855 10-01-2014 03:00:00 5.88333 C 6.22 g/m*3 5.88 C 4.68333 km/h
856 10-01-2014 04:00:00 4.79167 C 5.95 g/m*3 4.79 C 4.80833 km/h
857 10-01-2014 05:00:00 5 C 5.95 g/m*3 3.02 C 8.45 km/h
858 10-01-2014 06:00:00 4.74167 C 5.91 g/m*3 3.76 C 5.075 km/h
859 10-01-2014 07:00:00 5.05833 C 6.02 g/m*3 3.05 C 8.61667 km/h
860 10-01-2014 08:00:00 5.41667 C 6.04 g/m*3 3 C 10.74167 km/h
861 10-01-2014 09:00:00 5.34167 C 6.1 g/m*3 3.7 C 7.38333 km/h
862 10-01-2014 10:00:00 5.69167 C 6.26 g/m*3 4.08 C 7.50833 km/h
863 10-01-2014 11:00:00 6.675 C 6.35 g/m*3 4.14 C 12.88333 km/h
864 10-01-2014 12:00:00 7.5 C 6.5 g/m*3 5.36 C 11.55 km/h
865 10-01-2014 13:00:00 7.71667 C 6.53 g/m*3 5.43 C 12.76667 km/h
866 10-01-2014 14:00:00 7.74167 C 6.59 g/m*3 5.89 C 10.20833 km/h
867 10-01-2014 15:00:00 7.85833 C 6.64 g/m*3 6.57 C 7.65 km/h
868 10-01-2014 16:00:00 6.5 C 6.37 g/m*3 6.5 C 4.26667 km/h
869 10-01-2014 17:00:00 5.1 C 6.12 g/m*3 5.1 C 3.6 km/h
870 10-01-2014 18:00:00 5.08333 C 6.06 g/m*3 4.15 C 5.06667 km/h
871 10-01-2014 19:00:00 5.36667 C 6.08 g/m*3 4.32 C 5.475 km/h
872 10-01-2014 20:00:00 4.7 C 5.91 g/m*3 4.7 C 4 km/h
873 10-01-2014 21:00:00 4.075 C 5.81 g/m*3 4.08 C 1.46667 km/h
874 10-01-2014 22:00:00 3.25 C 5.64 g/m*3 3.25 C 0.4 km/h
875 10-01-2014 23:00:00 3.05833 C 5.64 g/m*3 3.06 C 0 km/h
Sensor: Nr:Datum:Temp:Abs-Feuchte:Windchill:Wind:
Aussen-T/F 876 11-01-2014 00:00:00 2.525 C 5.47 g/m*3 2.53 C 0 km/h
877 11-01-2014 01:00:00 2.08333 C 5.31 g/m*3 2.08 C 0.13333 km/h
878 11-01-2014 02:00:00 1.78333 C 5.25 g/m*3 1.78 C 0.4 km/h
879 11-01-2014 03:00:00 1.54167 C 5.17 g/m*3 1.54 C 0.26667 km/h
880 11-01-2014 04:00:00 1.35 C 5.11 g/m*3 1.35 C 0.4 km/h
881 11-01-2014 05:00:00 0.89167 C 4.97 g/m*3 0.89 C 0 km/h
882 11-01-2014 06:00:00 1.10833 C 5.07 g/m*3 1.11 C 0.66667 km/h
883 11-01-2014 07:00:00 1.4 C 5.17 g/m*3 1.4 C 1.73333 km/h
884 11-01-2014 08:00:00 1.86667 C 5.34 g/m*3 1.87 C 1.2 km/h
885 11-01-2014 09:00:00 2.25833 C 5.49 g/m*3 2.26 C 0 km/h
886 11-01-2014 10:00:00 2.6 C 5.61 g/m*3 2.6 C 0.26667 km/h
887 11-01-2014 11:00:00 3.79167 C 6.12 g/m*3 3.79 C 2.81667 km/h
888 11-01-2014 12:00:00 5.975 C 6.68 g/m*3 3.92 C 9.55833 km/h
889 11-01-2014 13:00:00 6.85 C 6.71 g/m*3 5.14 C 8.73333 km/h
890 11-01-2014 14:00:00 7.66667 C 6.81 g/m*3 5.41 C 12.48333 km/h
891 11-01-2014 15:00:00 7.13333 C 6.79 g/m*3 5.5 C 8.59167 km/h
892 11-01-2014 16:00:00 7.36667 C 6.99 g/m*3 5.47 C 10.09167 km/h
893 11-01-2014 17:00:00 6.41667 C 7.01 g/m*3 5.56 C 5.36667 km/h
894 11-01-2014 18:00:00 6.24167 C 6.59 g/m*3 5.02 C 6.43333 km/h
895 11-01-2014 19:00:00 5.69167 C 6.31 g/m*3 5.69 C 4.43333 km/h
896 11-01-2014 20:00:00 4.46667 C 6.04 g/m*3 4.47 C 3.06667 km/h
897 11-01-2014 21:00:00 4.33333 C 5.92 g/m*3 4.33 C 4.66667 km/h
898 11-01-2014 22:00:00 3.45833 C 5.63 g/m*3 3.46 C 2.8 km/h
899 11-01-2014 23:00:00 2.49167 C 5.41 g/m*3 2.49 C 2 km/h
900 12-01-2014 00:00:00 2 C 5.28 g/m*3 2 C 3.06667 km/h
Sensor: Nr:Datum:Temp:Abs-Feuchte:Windchill:Wind:
Aussen-T/F 901 12-01-2014 01:00:00 1.575 C 5.13 g/m*3 1.58 C 3.74167 km/h
902 12-01-2014 02:00:00 1.1 C 4.97 g/m*3 -1.12 C 6.99167 km/h
903 12-01-2014 03:00:00 0.96667 C 4.97 g/m*3 -1.86 C 8.86667 km/h
904 12-01-2014 04:00:00 1.24167 C 5.07 g/m*3 -1.54 C 8.88333 km/h
905 12-01-2014 05:00:00 1.19167 C 5.05 g/m*3 -1.01 C 6.96667 km/h
906 12-01-2014 06:00:00 0.69167 C 4.88 g/m*3 0.69 C 2.4 km/h
907 12-01-2014 07:00:00 0.54167 C 4.87 g/m*3 0.54 C 3.86667 km/h
908 12-01-2014 08:00:00 0.11667 C 4.74 g/m*3 0.12 C 3.75 km/h
909 12-01-2014 09:00:00 -0.00833 C 4.7 g/m*3 -0.01 C 2 km/h
910 12-01-2014 10:00:00 0.15 C 4.75 g/m*3 0.15 C 4.95 km/h
911 12-01-2014 11:00:00 0.25833 C 4.81 g/m*3 -1.57 C 5.625 km/h
912 12-01-2014 12:00:00 0.46667 C 4.9 g/m*3 0.47 C 2.26667 km/h
913 12-01-2014 13:00:00 0.84167 C 5.03 g/m*3 0.84 C 2.26667 km/h
914 12-01-2014 14:00:00 1.35 C 5.21 g/m*3 1.35 C 2 km/h
915 12-01-2014 15:00:00 1.28571 C 5.19 g/m*3 1.29 C 2.74286 km/h
916 12-01-2014 16:00:00 1 C 5.09 g/m*3 1 C 1.2 km/h
917 12-01-2014 17:00:00 0.1875 C 4.81 g/m*3 0.19 C 0.6 km/h
918 12-01-2014 18:00:00 -0.26667 C 4.66 g/m*3 -0.27 C 0.8 km/h
919 12-01-2014 19:00:00 -0.55833 C 4.57 g/m*3 -0.56 C 0.4 km/h
920 12-01-2014 20:00:00 -0.80833 C 4.49 g/m*3 -0.81 C 1.2 km/h
921 12-01-2014 21:00:00 -1.225 C 4.36 g/m*3 -1.23 C 2.53333 km/h
922 12-01-2014 22:00:00 -1.55 C 4.26 g/m*3 -1.55 C 2.66667 km/h
923 12-01-2014 23:00:00 -1.7 C 4.22 g/m*3 -1.7 C 2 km/h
924 13-01-2014 00:00:00 -1.7 C 4.22 g/m*3 -1.7 C 0.26667 km/h
925 13-01-2014 01:00:00 -1.68333 C 4.22 g/m*3 -1.68 C 0.26667 km/h
Sensor: Nr:Datum:Temp:Abs-Feuchte:Windchill:Wind:
Aussen-T/F 926 13-01-2014 02:00:00 -1.08333 C 4.4 g/m*3 -1.08 C 0.66667 km/h
927 13-01-2014 03:00:00 -0.20833 C 4.68 g/m*3 -0.21 C 2.13333 km/h
928 13-01-2014 04:00:00 0.24167 C 4.83 g/m*3 0.24 C 2.13333 km/h
929 13-01-2014 05:00:00 1.05833 C 5.11 g/m*3 1.06 C 0.53333 km/h
930 13-01-2014 06:00:00 1.825 C 5.38 g/m*3 1.83 C 1.2 km/h
931 13-01-2014 07:00:00 2.33333 C 5.57 g/m*3 2.33 C 0.4 km/h
932 13-01-2014 08:00:00 2.65833 C 5.69 g/m*3 2.66 C 0.53333 km/h
933 13-01-2014 09:00:00 3.18333 C 5.9 g/m*3 3.18 C 0 km/h
934 13-01-2014 10:00:00 3.83333 C 6.19 g/m*3 3.83 C 0.53333 km/h
935 13-01-2014 11:00:00 5.125 C 6.77 g/m*3 5.13 C 2.26667 km/h
936 13-01-2014 12:00:00 6.38333 C 7.31 g/m*3 4.78 C 7.91667 km/h
937 13-01-2014 13:00:00 7.875 C 7.34 g/m*3 6.8 C 6.84167 km/h
938 13-01-2014 14:00:00 8.025 C 7.13 g/m*3 6.87 C 7.24167 km/h
939 13-01-2014 15:00:00 7.38333 C 7.12 g/m*3 7.38 C 1.2 km/h
940 13-01-2014 16:00:00 6.675 C 7.05 g/m*3 6.68 C 2 km/h
941 13-01-2014 17:00:00 6.20833 C 6.97 g/m*3 6.21 C 0.26667 km/h
942 13-01-2014 18:00:00 6.14167 C 6.99 g/m*3 6.14 C 0 km/h
943 13-01-2014 19:00:00 6.025 C 6.98 g/m*3 6.03 C 0 km/h
944 13-01-2014 20:00:00 5.73333 C 6.85 g/m*3 5.73 C 0.26667 km/h
945 13-01-2014 21:00:00 5.3 C 6.63 g/m*3 5.3 C 0 km/h
946 13-01-2014 22:00:00 4.29167 C 6.22 g/m*3 4.29 C 0.13333 km/h
947 13-01-2014 23:00:00 3.94167 C 6.12 g/m*3 3.94 C 1.2 km/h
948 14-01-2014 00:00:00 3.875 C 6.08 g/m*3 3.88 C 2.13333 km/h
949 14-01-2014 01:00:00 3.5 C 5.96 g/m*3 3.5 C 2 km/h
950 14-01-2014 02:00:00 3.3 C 5.88 g/m*3 3.3 C 1.46667 km/h
Sensor: Nr:Datum:Temp:Abs-Feuchte:Windchill:Wind:
Aussen-T/F 951 14-01-2014 03:00:00 4.01667 C 6.2 g/m*3 4.02 C 0.26667 km/h
952 14-01-2014 04:00:00 4.325 C 6.32 g/m*3 4.33 C 1.06667 km/h
953 14-01-2014 05:00:00 5.35 C 6.65 g/m*3 3.99 C 6.41667 km/h
954 14-01-2014 06:00:00 5.18333 C 6.47 g/m*3 5.18 C 4.54167 km/h
955 14-01-2014 07:00:00 4.65 C 6.31 g/m*3 4.65 C 2.54167 km/h
956 14-01-2014 08:00:00 4.275 C 6.22 g/m*3 4.28 C 2.54167 km/h
957 14-01-2014 09:00:00 4.975 C 6.56 g/m*3 4.97 C 2.53333 km/h
958 14-01-2014 10:00:00 5.8 C 6.71 g/m*3 5.8 C 2.93333 km/h
959 14-01-2014 11:00:00 5.88 C 6.77 g/m*3 5.88 C 2.88 km/h
960 14-01-2014 12:00:00 6.9 C 7 g/m*3 6.9 C 2.62727 km/h
961 14-01-2014 13:00:00 7.55833 C 7.16 g/m*3 7.56 C 3.33333 km/h
962 14-01-2014 14:00:00 7.975 C 7.18 g/m*3 7.98 C 2.93333 km/h
963 14-01-2014 15:00:00 7.38333 C 7.13 g/m*3 7.38 C 1.73333 km/h
964 14-01-2014 16:00:00 7.23333 C 6.93 g/m*3 7.23 C 3.2 km/h
965 14-01-2014 17:00:00 6.34167 C 6.82 g/m*3 6.34 C 2.26667 km/h
966 14-01-2014 18:00:00 5.20833 C 6.54 g/m*3 5.21 C 1.33333 km/h
967 14-01-2014 19:00:00 3.575 C 5.93 g/m*3 3.58 C 1.73333 km/h
968 14-01-2014 20:00:00 3.21667 C 5.84 g/m*3 3.22 C 0 km/h
969 14-01-2014 21:00:00 3.36667 C 5.91 g/m*3 3.37 C 0.53333 km/h
970 14-01-2014 22:00:00 3.81667 C 6.12 g/m*3 3.82 C 0.26667 km/h
971 14-01-2014 23:00:00 4.375 C 6.35 g/m*3 4.38 C 2.13333 km/h
972 15-01-2014 00:00:00 4.8 C 6.48 g/m*3 4.8 C 2.26667 km/h
973 15-01-2014 01:00:00 4.9 C 6.45 g/m*3 4.9 C 2.53333 km/h
974 15-01-2014 02:00:00 4.8 C 6.31 g/m*3 4.8 C 2.53333 km/h
975 15-01-2014 03:00:00 4.75833 C 6.1 g/m*3 3.62 C 5.49167 km/h
Sensor: Nr:Datum:Temp:Abs-Feuchte:Windchill:Wind:
Aussen-T/F 976 15-01-2014 04:00:00 4.04167 C 5.61 g/m*3 2.91 C 5.225 km/h
977 15-01-2014 05:00:00 3.16667 C 5.48 g/m*3 3.17 C 2.66667 km/h
978 15-01-2014 06:00:00 2.10833 C 5.22 g/m*3 2.11 C 1.46667 km/h
979 15-01-2014 07:00:00 1.56667 C 5.11 g/m*3 1.57 C 2.53333 km/h
980 15-01-2014 08:00:00 1.74167 C 5.2 g/m*3 1.74 C 0.4 km/h
981 15-01-2014 09:00:00 2.275 C 5.42 g/m*3 2.28 C 0 km/h
982 15-01-2014 10:00:00 3.45833 C 5.67 g/m*3 3.46 C 1.2 km/h
983 15-01-2014 11:00:00 4.61667 C 5.77 g/m*3 4.62 C 1.86667 km/h
984 15-01-2014 12:00:00 5.55 C 5.91 g/m*3 5.55 C 4.40833 km/h
985 15-01-2014 13:00:00 5.89167 C 5.94 g/m*3 4.1 C 8.31667 km/h
986 15-01-2014 14:00:00 5.35833 C 6.01 g/m*3 4.26 C 5.625 km/h
987 15-01-2014 15:00:00 4.81667 C 6.12 g/m*3 4.82 C 1.86667 km/h
988 15-01-2014 16:00:00 4.46667 C 6.08 g/m*3 4.47 C 1.06667 km/h
989 15-01-2014 17:00:00 4.44167 C 6.09 g/m*3 4.44 C 1.86667 km/h
990 15-01-2014 18:00:00 4.725 C 6.04 g/m*3 4.72 C 2 km/h
991 15-01-2014 19:00:00 4.81667 C 6.11 g/m*3 4.82 C 1.6 km/h
992 15-01-2014 20:00:00 4.775 C 6.21 g/m*3 4.78 C 0.53333 km/h
993 15-01-2014 21:00:00 4.65 C 6.29 g/m*3 4.65 C 0.66667 km/h
994 15-01-2014 22:00:00 4.45833 C 6.29 g/m*3 4.46 C 0 km/h
995 15-01-2014 23:00:00 4.45833 C 6.36 g/m*3 4.46 C 0 km/h
996 16-01-2014 00:00:00 4.5 C 6.38 g/m*3 4.5 C 0 km/h
997 16-01-2014 01:00:00 4.65 C 6.44 g/m*3 4.65 C 0 km/h
998 16-01-2014 02:00:00 4.9 C 6.55 g/m*3 4.9 C 0 km/h
999 16-01-2014 03:00:00 5.11667 C 6.71 g/m*3 5.12 C 0.13333 km/h
1000 16-01-2014 04:00:00 5.275 C 6.78 g/m*3 5.28 C 0 km/h
Sensor: Nr:Datum:Temp:Abs-Feuchte:Windchill:Wind:
Aussen-T/F 1001 16-01-2014 05:00:00 5.4 C 6.84 g/m*3 5.4 C 0.13333 km/h
1002 16-01-2014 06:00:00 5.54167 C 6.9 g/m*3 5.54 C 0 km/h
1003 16-01-2014 07:00:00 5.64167 C 6.95 g/m*3 5.64 C 0.13333 km/h
1004 16-01-2014 08:00:00 5.44167 C 6.86 g/m*3 5.44 C 0.53333 km/h
1005 16-01-2014 09:00:00 5.63333 C 6.94 g/m*3 5.63 C 0.53333 km/h
1006 16-01-2014 10:00:00 6.10833 C 7.16 g/m*3 6.11 C 0.26667 km/h
1007 16-01-2014 11:00:00 6.46667 C 7.13 g/m*3 6.47 C 2.8 km/h
1008 16-01-2014 12:00:00 7.55 C 7.36 g/m*3 7.55 C 0.93333 km/h
1009 16-01-2014 13:00:00 8.31667 C 7.28 g/m*3 8.32 C 2.26667 km/h
1010 16-01-2014 14:00:00 8.075 C 7.41 g/m*3 8.07 C 1.2 km/h
1011 16-01-2014 15:00:00 7.94167 C 7.25 g/m*3 7.94 C 3.2 km/h
1012 16-01-2014 16:00:00 8.38333 C 7.23 g/m*3 8.38 C 4.825 km/h
1013 16-01-2014 17:00:00 8.19167 C 7.28 g/m*3 8.19 C 3.06667 km/h
1014 16-01-2014 18:00:00 8.10833 C 7.3 g/m*3 8.11 C 4.95 km/h
1015 16-01-2014 19:00:00 8.7 C 7.35 g/m*3 7.97 C 6.01667 km/h
1016 16-01-2014 20:00:00 7.54167 C 7.22 g/m*3 7.54 C 2.53333 km/h
1017 16-01-2014 21:00:00 7.01667 C 7.19 g/m*3 7.02 C 2 km/h
1018 16-01-2014 22:00:00 6.79167 C 7.11 g/m*3 6.79 C 1.33333 km/h
1019 16-01-2014 23:00:00 5.60833 C 6.61 g/m*3 5.61 C 3.2 km/h
1020 17-01-2014 00:00:00 5.76667 C 6.8 g/m*3 5.77 C 2.66667 km/h
1021 17-01-2014 01:00:00 6.59167 C 7.05 g/m*3 6.59 C 1.46667 km/h
1022 17-01-2014 02:00:00 6.875 C 7.1 g/m*3 6.88 C 0.8 km/h
1023 17-01-2014 03:00:00 6.8 C 7.22 g/m*3 6.8 C 1.46667 km/h
1024 17-01-2014 04:00:00 6.725 C 7.33 g/m*3 6.73 C 0.66667 km/h
1025 17-01-2014 05:00:00 6.51667 C 7.28 g/m*3 6.52 C 1.06667 km/h
Sensor: Nr:Datum:Temp:Abs-Feuchte:Windchill:Wind:
Aussen-T/F 1026 17-01-2014 06:00:00 6.41667 C 7.24 g/m*3 6.42 C 1.46667 km/h
1027 17-01-2014 07:00:00 6.1 C 7.07 g/m*3 6.1 C 2.26667 km/h
1028 17-01-2014 08:00:00 5.48333 C 6.81 g/m*3 5.48 C 2.8 km/h
1029 17-01-2014 09:00:00 6.00833 C 7.04 g/m*3 6.01 C 1.86667 km/h
1030 17-01-2014 10:00:00 6.625 C 7.29 g/m*3 6.63 C 2 km/h
1031 17-01-2014 11:00:00 8.075 C 7.62 g/m*3 8.07 C 2.66667 km/h
1032 17-01-2014 12:00:00 9.18333 C 7.63 g/m*3 9.18 C 4.41667 km/h
1033 17-01-2014 13:00:00 9.93333 C 7.76 g/m*3 9.93 C 0.8 km/h
1034 17-01-2014 14:00:00 10.025 C 7.94 g/m*3 10.03 C 1.2 km/h
1035 17-01-2014 15:00:00 9.28333 C 8.02 g/m*3 9.28 C 2 km/h
1036 17-01-2014 16:00:00 8.51667 C 7.54 g/m*3 8.52 C 3.2 km/h
1037 17-01-2014 17:00:00 6.68333 C 6.89 g/m*3 6.68 C 3.46667 km/h
1038 17-01-2014 18:00:00 6.01667 C 6.76 g/m*3 6.02 C 2.93333 km/h
1039 17-01-2014 19:00:00 5.55833 C 6.6 g/m*3 5.56 C 3.06667 km/h
1040 17-01-2014 20:00:00 5.21667 C 6.44 g/m*3 5.22 C 3.33333 km/h
1041 17-01-2014 21:00:00 4.85833 C 6.28 g/m*3 4.86 C 3.6 km/h
1042 17-01-2014 22:00:00 4.54167 C 6.2 g/m*3 4.54 C 3.33333 km/h
1043 17-01-2014 23:00:00 4.2 C 6.08 g/m*3 4.2 C 2.66667 km/h
1044 18-01-2014 00:00:00 3.775 C 5.93 g/m*3 3.78 C 2.53333 km/h
1045 18-01-2014 01:00:00 3.525 C 5.85 g/m*3 3.53 C 1.73333 km/h
1046 18-01-2014 02:00:00 3.00833 C 5.65 g/m*3 3.01 C 0.66667 km/h
1047 18-01-2014 03:00:00 2.825 C 5.64 g/m*3 2.83 C 0.13333 km/h
1048 18-01-2014 04:00:00 2.60833 C 5.56 g/m*3 2.61 C 0.53333 km/h
1049 18-01-2014 05:00:00 1.90833 C 5.3 g/m*3 1.91 C 0.4 km/h
1050 18-01-2014 06:00:00 1.93333 C 5.36 g/m*3 1.93 C 1.74167 km/h
Sensor: Nr:Datum:Temp:Abs-Feuchte:Windchill:Wind:
Aussen-T/F 1051 18-01-2014 07:00:00 2.675 C 5.62 g/m*3 2.68 C 1.06667 km/h
1052 18-01-2014 08:00:00 4.2 C 6 g/m*3 2.07 C 8.46667 km/h
1053 18-01-2014 09:00:00 4.78333 C 5.96 g/m*3 3.46 C 6.03333 km/h
1054 18-01-2014 10:00:00 4.98333 C 6.02 g/m*3 3.6 C 6.30833 km/h
1055 18-01-2014 11:00:00 5.91667 C 6.79 g/m*3 4.72 C 6.16667 km/h
1056 18-01-2014 12:00:00 6.9 C 6.54 g/m*3 6.9 C 2.4 km/h
1057 18-01-2014 13:00:00 7.56667 C 6.59 g/m*3 7.57 C 3.33333 km/h
1058 18-01-2014 14:00:00 7.95556 C 6.64 g/m*3 7.96 C 4.44444 km/h
1059 18-01-2014 15:00:00 7.825 C 6.72 g/m*3 7.83 C 2.14167 km/h
1060 18-01-2014 16:00:00 6.875 C 6.53 g/m*3 6.88 C 2 km/h
1061 18-01-2014 17:00:00 5.79167 C 6.18 g/m*3 5.79 C 3.06667 km/h
1062 18-01-2014 18:00:00 5.80833 C 6.04 g/m*3 5.81 C 3.46667 km/h
1063 18-01-2014 19:00:00 6.04167 C 6.03 g/m*3 5.19 C 5.2 km/h
1064 18-01-2014 20:00:00 5.04167 C 5.96 g/m*3 5.04 C 2.93333 km/h
1065 18-01-2014 21:00:00 3.34167 C 5.58 g/m*3 3.34 C 1.2 km/h
1066 18-01-2014 22:00:00 2.9 C 5.57 g/m*3 2.9 C 1.46667 km/h
1067 18-01-2014 23:00:00 3.70833 C 5.88 g/m*3 3.71 C 0.13333 km/h
1068 19-01-2014 00:00:00 4.18333 C 6.05 g/m*3 4.18 C 0.26667 km/h
1069 19-01-2014 01:00:00 4.41667 C 6.13 g/m*3 4.42 C 0 km/h
1070 19-01-2014 02:00:00 4.65833 C 6.13 g/m*3 4.66 C 1.2 km/h
1071 19-01-2014 03:00:00 4.46667 C 5.99 g/m*3 4.47 C 1.86667 km/h
1072 19-01-2014 04:00:00 4.2 C 5.94 g/m*3 4.2 C 0.13333 km/h
1073 19-01-2014 05:00:00 4.15 C 5.97 g/m*3 4.15 C 0 km/h
1074 19-01-2014 06:00:00 4.125 C 5.96 g/m*3 4.13 C 0.4 km/h
1075 19-01-2014 07:00:00 3.99167 C 5.9 g/m*3 3.99 C 0.13333 km/h
Sensor: Nr:Datum:Temp:Abs-Feuchte:Windchill:Wind:
Aussen-T/F 1076 19-01-2014 08:00:00 3.68333 C 5.82 g/m*3 3.68 C 0 km/h
1077 19-01-2014 09:00:00 4.06667 C 6 g/m*3 4.07 C 0.53333 km/h
1078 19-01-2014 10:00:00 5.025 C 6.18 g/m*3 3.61 C 6.43333 km/h
1079 19-01-2014 11:00:00 5.625 C 6.31 g/m*3 4.39 C 6.16667 km/h
1080 19-01-2014 12:00:00 6.2 C 6.4 g/m*3 6.2 C 3.46667 km/h
1081 19-01-2014 13:00:00 6.775 C 6.59 g/m*3 6.78 C 0.93333 km/h
1082 19-01-2014 14:00:00 7.1 C 6.65 g/m*3 5.93 C 6.7 km/h
1083 19-01-2014 15:00:00 7.24167 C 6.64 g/m*3 7.24 C 4.40833 km/h
1084 19-01-2014 16:00:00 5.74 C 6.92 g/m*3 5.74 C 0.32 km/h
1085 19-01-2014 17:00:00 4.20833 C 6 g/m*3 4.21 C 0.8 km/h
1086 19-01-2014 18:00:00 3.81667 C 5.93 g/m*3 3.82 C 0.13333 km/h
1087 19-01-2014 19:00:00 3.68333 C 5.91 g/m*3 3.68 C 0.13333 km/h
1088 19-01-2014 20:00:00 3.41667 C 5.81 g/m*3 3.42 C 1.06667 km/h
1089 19-01-2014 21:00:00 3.38333 C 5.8 g/m*3 3.38 C 0 km/h
1090 19-01-2014 22:00:00 3.60833 C 5.88 g/m*3 3.61 C 0 km/h
1091 19-01-2014 23:00:00 3.79167 C 5.96 g/m*3 3.79 C 0 km/h
1092 20-01-2014 00:00:00 4.06667 C 6.07 g/m*3 4.07 C 0 km/h
1093 20-01-2014 01:00:00 4.2 C 6.12 g/m*3 4.2 C 0.26667 km/h
1094 20-01-2014 02:00:00 4.2 C 6.06 g/m*3 4.2 C 0.4 km/h
1095 20-01-2014 03:00:00 4.2 C 6.06 g/m*3 4.2 C 0 km/h
1096 20-01-2014 04:00:00 4.275 C 6.14 g/m*3 4.28 C 0 km/h
1097 20-01-2014 05:00:00 4.3 C 6.1 g/m*3 4.3 C 0 km/h
1098 20-01-2014 06:00:00 4.3 C 6.1 g/m*3 4.3 C 0 km/h
1099 20-01-2014 07:00:00 4.29167 C 6.15 g/m*3 4.29 C 0 km/h
1100 20-01-2014 08:00:00 4.2 C 6.12 g/m*3 4.2 C 0 km/h
Sensor: Nr:Datum:Temp:Abs-Feuchte:Windchill:Wind:
Aussen-T/F 1101 20-01-2014 09:00:00 4.2625 C 6.21 g/m*3 4.26 C 0 km/h
1102 20-01-2014 10:00:00 4.36667 C 6.3 g/m*3 4.37 C 0 km/h
1103 20-01-2014 11:00:00 4.61 C 6.42 g/m*3 4.61 C 0.48 km/h
1104 20-01-2014 12:00:00 4.8 C 6.44 g/m*3 4.8 C 1.14286 km/h
1105 20-01-2014 13:00:00 4.79167 C 6.43 g/m*3 4.79 C 1.33333 km/h
1106 20-01-2014 14:00:00 4.7 C 6.32 g/m*3 4.7 C 2.93333 km/h
1107 20-01-2014 15:00:00 4.61667 C 6.23 g/m*3 4.62 C 1.73333 km/h
1108 20-01-2014 16:00:00 4.58333 C 6.21 g/m*3 4.58 C 0.66667 km/h
1109 20-01-2014 17:00:00 4.55 C 6.16 g/m*3 4.55 C 1.86667 km/h
1110 20-01-2014 18:00:00 4.61667 C 6.13 g/m*3 4.62 C 1.73333 km/h
1111 20-01-2014 19:00:00 4.425 C 6.04 g/m*3 3.2 C 5.60833 km/h
1112 20-01-2014 20:00:00 4.125 C 5.99 g/m*3 4.13 C 0.8 km/h
1113 20-01-2014 21:00:00 3.95 C 5.99 g/m*3 3.95 C 0.13333 km/h
1114 20-01-2014 22:00:00 3.80833 C 6.02 g/m*3 3.81 C 0.53333 km/h
1115 20-01-2014 23:00:00 3.76667 C 6.01 g/m*3 3.77 C 3.06667 km/h
1116 21-01-2014 00:00:00 3.61667 C 5.95 g/m*3 3.62 C 1.33333 km/h
1117 21-01-2014 01:00:00 3.49167 C 5.88 g/m*3 3.49 C 2.93333 km/h
1118 21-01-2014 02:00:00 3.4 C 5.67 g/m*3 1.06 C 8.74167 km/h
1119 21-01-2014 03:00:00 3.16667 C 5.58 g/m*3 1.12 C 7.51667 km/h
1120 21-01-2014 04:00:00 2.94167 C 5.51 g/m*3 1.2 C 6.43333 km/h
1121 21-01-2014 05:00:00 2.88333 C 5.46 g/m*3 2.88 C 4.13333 km/h
1122 21-01-2014 06:00:00 2.88333 C 5.4 g/m*3 2.88 C 3.875 km/h
1123 21-01-2014 07:00:00 2.83333 C 5.39 g/m*3 2.83 C 4.55833 km/h
1124 21-01-2014 08:00:00 2.7 C 5.42 g/m*3 2.7 C 3.88333 km/h
1125 21-01-2014 09:00:00 2.80833 C 5.52 g/m*3 2.81 C 1.86667 km/h
Sensor: Nr:Datum:Temp:Abs-Feuchte:Windchill:Wind:
Aussen-T/F 1126 21-01-2014 10:00:00 3.11667 C 5.55 g/m*3 3.12 C 2.66667 km/h
1127 21-01-2014 11:00:00 3.3 C 5.63 g/m*3 3.3 C 2.80833 km/h
1128 21-01-2014 12:00:00 3.38333 C 5.68 g/m*3 3.38 C 0.4 km/h
1129 21-01-2014 13:00:00 3.875 C 5.76 g/m*3 3.88 C 0.93333 km/h
1130 21-01-2014 14:00:00 4.175 C 5.85 g/m*3 4.18 C 0.93333 km/h
1131 21-01-2014 15:00:00 4.23333 C 5.87 g/m*3 4.23 C 0.53333 km/h
1132 21-01-2014 16:00:00 4.01667 C 5.9 g/m*3 4.02 C 0 km/h
1133 21-01-2014 17:00:00 3.83333 C 5.94 g/m*3 3.83 C 0 km/h
1134 21-01-2014 18:00:00 3.8 C 6.01 g/m*3 3.8 C 0 km/h
1135 21-01-2014 19:00:00 3.9 C 6.06 g/m*3 3.9 C 0 km/h
1136 21-01-2014 20:00:00 3.975 C 6.09 g/m*3 3.98 C 0 km/h
1137 21-01-2014 21:00:00 3.9 C 6.06 g/m*3 3.9 C 0 km/h
1138 21-01-2014 22:00:00 3.9 C 6.06 g/m*3 3.9 C 0 km/h
1139 21-01-2014 23:00:00 3.81667 C 6.03 g/m*3 3.82 C 0 km/h
1140 22-01-2014 00:00:00 3.825 C 6.04 g/m*3 3.83 C 0 km/h
1141 22-01-2014 01:00:00 3.91667 C 6.07 g/m*3 3.92 C 0 km/h
1142 22-01-2014 02:00:00 4 C 6.17 g/m*3 4 C 0 km/h
1143 22-01-2014 03:00:00 4.025 C 6.18 g/m*3 4.03 C 0 km/h
1144 22-01-2014 04:00:00 4.05833 C 6.18 g/m*3 4.06 C 0.66667 km/h
1145 22-01-2014 05:00:00 3.825 C 6.02 g/m*3 3.83 C 1.33333 km/h
1146 22-01-2014 06:00:00 3.58333 C 5.77 g/m*3 2.34 C 5.35 km/h
1147 22-01-2014 07:00:00 3.41667 C 5.64 g/m*3 3.42 C 4.28333 km/h
1148 22-01-2014 08:00:00 3.35 C 5.64 g/m*3 3.35 C 2 km/h
1149 22-01-2014 12:00:00 4.8 C 5.9 g/m*3 3.73 C 5.33333 km/h
1150 22-01-2014 16:00:00 3.4 C 5.8 g/m*3 3.4 C 0.8 km/h
Sensor: Nr:Datum:Temp:Abs-Feuchte:Windchill:Wind:
Aussen-T/F 1151 22-01-2014 17:00:00 2.975 C 5.63 g/m*3 2.98 C 2.26667 km/h
1152 22-01-2014 18:00:00 2.66667 C 5.52 g/m*3 2.67 C 2.4 km/h
1153 22-01-2014 19:00:00 2.25 C 5.41 g/m*3 2.25 C 1.33333 km/h
1154 22-01-2014 20:00:00 1.73333 C 5.24 g/m*3 1.73 C 0 km/h
1155 22-01-2014 21:00:00 1.55833 C 5.21 g/m*3 1.56 C 0.26667 km/h
1156 22-01-2014 22:00:00 1.82222 C 5.33 g/m*3 1.82 C 0 km/h
1157 23-01-2014 09:00:00 3.48 C 5.71 g/m*3 2.31 C 5.12 km/h
1158 23-01-2014 10:00:00 3.65714 C 5.72 g/m*3 1.54 C 8.05714 km/h
1159 23-01-2014 11:00:00 3.8 C 5.65 g/m*3 0.78 C 12.1 km/h
1160 23-01-2014 12:00:00 4.26667 C 5.65 g/m*3 1.32 C 12.23333 km/h
1161 23-01-2014 13:00:00 4.38333 C 5.62 g/m*3 2.33 C 8.31667 km/h
1162 23-01-2014 14:00:00 4.325 C 5.55 g/m*3 2.63 C 6.975 km/h
1163 23-01-2014 15:00:00 4.59167 C 5.69 g/m*3 3.39 C 5.61667 km/h
1164 23-01-2014 16:00:00 4.24167 C 5.85 g/m*3 4.24 C 3.06667 km/h
1165 23-01-2014 17:00:00 3.28333 C 5.68 g/m*3 3.28 C 0.4 km/h
1166 23-01-2014 18:00:00 2.83333 C 5.61 g/m*3 2.83 C 0.26667 km/h
1167 23-01-2014 19:00:00 3.14167 C 5.79 g/m*3 3.14 C 0.66667 km/h
1168 23-01-2014 20:00:00 3.3 C 5.88 g/m*3 3.3 C 1.06667 km/h
1169 23-01-2014 21:00:00 3.35 C 5.9 g/m*3 3.35 C 0 km/h
1170 23-01-2014 22:00:00 3.54167 C 5.98 g/m*3 3.54 C 0.26667 km/h
1171 23-01-2014 23:00:00 3.59167 C 6 g/m*3 3.59 C 0.53333 km/h
1172 24-01-2014 00:00:00 3.05833 C 5.75 g/m*3 1.63 C 5.625 km/h
1173 24-01-2014 01:00:00 3.025 C 5.72 g/m*3 3.03 C 3.33333 km/h
1174 24-01-2014 02:00:00 3.85 C 5.95 g/m*3 1.27 C 10.05833 km/h
1175 24-01-2014 03:00:00 4.25 C 5.99 g/m*3 2.46 C 7.25833 km/h
Sensor: Nr:Datum:Temp:Abs-Feuchte:Windchill:Wind:
Aussen-T/F 1176 24-01-2014 04:00:00 4.3 C 5.96 g/m*3 3.11 C 5.475 km/h
1177 24-01-2014 05:00:00 4.29167 C 5.92 g/m*3 3 C 5.75 km/h
1178 24-01-2014 06:00:00 4.275 C 5.9 g/m*3 2.75 C 6.43333 km/h
1179 24-01-2014 07:00:00 3.825 C 5.8 g/m*3 3.83 C 4.4 km/h
1180 24-01-2014 08:00:00 3.83333 C 5.76 g/m*3 3.83 C 4.275 km/h
1181 24-01-2014 09:00:00 3.95 C 5.84 g/m*3 3.95 C 0.93333 km/h
1182 24-01-2014 10:00:00 4.23636 C 5.96 g/m*3 4.24 C 1.01818 km/h
1183 24-01-2014 12:00:00 4.8 C 5.98 g/m*3 4.8 C 1.6 km/h
1184 24-01-2014 13:00:00 4.8 C 6.04 g/m*3 4.8 C 1.6 km/h
1185 24-01-2014 14:00:00 4.7 C 6 g/m*3 4.7 C 1.2 km/h
1186 24-01-2014 15:00:00 4.7 C 6 g/m*3 4.7 C 1.92 km/h
1187 24-01-2014 17:00:00 4.1 C 6.08 g/m*3 4.1 C 0.32 km/h
1188 24-01-2014 18:00:00 4.1 C 6.08 g/m*3 4.1 C 0 km/h
1189 24-01-2014 19:00:00 3.94167 C 6.02 g/m*3 3.94 C 0 km/h
1190 24-01-2014 20:00:00 3.85833 C 6 g/m*3 3.86 C 0 km/h
1191 24-01-2014 21:00:00 3.66667 C 5.95 g/m*3 3.67 C 0 km/h
1192 24-01-2014 22:00:00 3.5 C 5.9 g/m*3 3.5 C 0 km/h
1193 24-01-2014 23:00:00 3.20833 C 5.79 g/m*3 3.21 C 0 km/h
1194 25-01-2014 00:00:00 3.14167 C 5.76 g/m*3 3.14 C 0 km/h
1195 25-01-2014 01:00:00 3.1 C 5.75 g/m*3 3.1 C 0.13333 km/h
1196 25-01-2014 02:00:00 3.18333 C 5.78 g/m*3 3.18 C 0 km/h
1197 25-01-2014 03:00:00 2.575 C 5.54 g/m*3 2.58 C 0.66667 km/h
1198 25-01-2014 04:00:00 1.5 C 5.16 g/m*3 1.5 C 0.8 km/h
1199 25-01-2014 05:00:00 1.80833 C 5.32 g/m*3 1.81 C 1.2 km/h
1200 25-01-2014 06:00:00 2.325 C 5.51 g/m*3 2.33 C 0.13333 km/h
Sensor: Nr:Datum:Temp:Abs-Feuchte:Windchill:Wind:
Aussen-T/F 1201 25-01-2014 07:00:00 2.29167 C 5.5 g/m*3 2.29 C 0.13333 km/h
1202 25-01-2014 08:00:00 1.93333 C 5.36 g/m*3 1.93 C 0 km/h
1203 25-01-2014 09:00:00 2.175 C 5.44 g/m*3 2.17 C 3.6 km/h
1204 25-01-2014 10:00:00 2.525 C 5.5 g/m*3 2.53 C 1.2 km/h
1205 25-01-2014 11:00:00 3.18333 C 5.66 g/m*3 3.18 C 2.26667 km/h
1206 25-01-2014 12:00:00 3.775 C 5.78 g/m*3 3.78 C 3.33333 km/h
1207 25-01-2014 13:00:00 4.41667 C 5.88 g/m*3 4.42 C 4.66667 km/h
1208 25-01-2014 14:00:00 4.8 C 5.97 g/m*3 4.8 C 4.4 km/h
1209 25-01-2014 17:00:00 3.22 C 5.62 g/m*3 3.22 C 2.88 km/h
1210 25-01-2014 18:00:00 3.2375 C 5.6 g/m*3 3.24 C 0.8 km/h
1211 25-01-2014 22:00:00 3.6 C 5.36 g/m*3 1.06 C 9.66667 km/h
1212 25-01-2014 23:00:00 3.00833 C 5.44 g/m*3 -0.38 C 13.15 km/h
1213 26-01-2014 00:00:00 3.01667 C 5.52 g/m*3 -0.54 C 14.1 km/h
1214 26-01-2014 01:00:00 3.4 C 5.71 g/m*3 0.82 C 9.675 km/h
1215 26-01-2014 02:00:00 4.28333 C 5.9 g/m*3 1.91 C 9.54167 km/h
1216 26-01-2014 03:00:00 5.04167 C 5.9 g/m*3 1.5 C 17.03333 km/h
1217 26-01-2014 04:00:00 5.35833 C 5.89 g/m*3 1.84 C 17.44167 km/h
1218 26-01-2014 05:00:00 5.9 C 5.76 g/m*3 2.07 C 21.16667 km/h
1219 26-01-2014 06:00:00 6.01667 C 5.77 g/m*3 2.1 C 22.25833 km/h
1220 26-01-2014 07:00:00 6.025 C 5.76 g/m*3 2.95 C 15.43333 km/h
1221 26-01-2014 08:00:00 5.8 C 5.74 g/m*3 3.68 C 9.68333 km/h
1222 26-01-2014 09:00:00 5.65 C 5.71 g/m*3 2.77 C 13.56667 km/h
1223 26-01-2014 10:00:00 5.65833 C 5.72 g/m*3 2.66 C 14.36667 km/h
1224 26-01-2014 11:00:00 5.83333 C 5.68 g/m*3 3 C 13.56667 km/h
1225 26-01-2014 12:00:00 6.06 C 5.58 g/m*3 3.55 C 11.94 km/h
Sensor: Nr:Datum:Temp:Abs-Feuchte:Windchill:Wind:
Aussen-T/F 1226 26-01-2014 13:00:00 6.15 C 5.56 g/m*3 3.63 C 12.09167 km/h
1227 26-01-2014 14:00:00 6.2 C 5.47 g/m*3 3.99 C 10.48333 km/h
1228 26-01-2014 15:00:00 6.16667 C 5.45 g/m*3 4.52 C 7.93333 km/h
1229 26-01-2014 16:00:00 5.78333 C 5.34 g/m*3 5.78 C 4.14167 km/h
1230 26-01-2014 17:00:00 5.5 C 5.38 g/m*3 4.42 C 5.625 km/h
1231 26-01-2014 18:00:00 5.2 C 5.51 g/m*3 5.2 C 1.86667 km/h
1232 26-01-2014 19:00:00 4.84167 C 5.68 g/m*3 4.84 C 3.06667 km/h
1233 26-01-2014 20:00:00 4.3 C 5.9 g/m*3 4.3 C 4.13333 km/h
1234 26-01-2014 21:00:00 3.75833 C 5.85 g/m*3 3.76 C 2.66667 km/h
1235 26-01-2014 22:00:00 3.66667 C 5.84 g/m*3 3.67 C 3.2 km/h
1236 26-01-2014 23:00:00 3.78333 C 5.9 g/m*3 3.78 C 4.41667 km/h
1237 27-01-2014 00:00:00 4.1 C 5.97 g/m*3 4.1 C 4.83333 km/h
1238 27-01-2014 01:00:00 4.24167 C 6.13 g/m*3 4.24 C 3.2 km/h
1239 27-01-2014 02:00:00 4.31667 C 6.16 g/m*3 3.03 C 5.75 km/h
1240 27-01-2014 03:00:00 5 C 6.25 g/m*3 2.73 C 9.68333 km/h
1241 27-01-2014 04:00:00 4.19167 C 5.94 g/m*3 4.19 C 4.55833 km/h
1242 27-01-2014 05:00:00 4.28333 C 5.93 g/m*3 2.8 C 6.3 km/h
1243 27-01-2014 06:00:00 4.11667 C 5.77 g/m*3 4.12 C 4 km/h
1244 27-01-2014 07:00:00 3.14167 C 5.54 g/m*3 3.14 C 3.2 km/h
1245 27-01-2014 08:00:00 3.94167 C 5.5 g/m*3 1.73 C 8.59167 km/h
1246 27-01-2014 09:00:00 4.1 C 5.5 g/m*3 4.1 C 4.8 km/h
1247 27-01-2014 12:00:00 5.12727 C 5.43 g/m*3 2.41 C 12.00909 km/h
1248 27-01-2014 13:00:00 4.45833 C 5.64 g/m*3 2.52 C 7.91667 km/h
1249 27-01-2014 14:00:00 5.08333 C 5.36 g/m*3 2.63 C 10.60833 km/h
1250 27-01-2014 15:00:00 5.30833 C 5.31 g/m*3 3.7 C 7.25 km/h
Sensor: Nr:Datum:Temp:Abs-Feuchte:Windchill:Wind:
Aussen-T/F 1251 27-01-2014 16:00:00 5.04167 C 5.33 g/m*3 5.04 C 4.55833 km/h
1252 27-01-2014 17:00:00 4.25833 C 5.39 g/m*3 4.26 C 2.94167 km/h
1253 27-01-2014 18:00:00 4.06364 C 5.33 g/m*3 4.06 C 2.47273 km/h
1254 27-01-2014 21:00:00 4.4 C 6.53 g/m*3 2.53 C 7.65 km/h
1255 28-01-2014 08:00:00 1.4 C 4.96 g/m*3 1.4 C 2.13333 km/h
1256 28-01-2014 10:00:00 3.63333 C 5.25 g/m*3 3.63 C 4.3 km/h
1257 28-01-2014 11:00:00 3.85833 C 5.3 g/m*3 2.5 C 5.75833 km/h
1258 28-01-2014 12:00:00 5.125 C 5.28 g/m*3 3.02 C 9.0625 km/h
1259 28-01-2014 16:00:00 6.6 C 5.66 g/m*3 5.78 C 5.33333 km/h
1260 28-01-2014 17:00:00 3.7 C 5.42 g/m*3 3.7 C 3.2 km/h
1261 28-01-2014 18:00:00 2.69167 C 5.21 g/m*3 2.69 C 3.46667 km/h
1262 28-01-2014 19:00:00 1.925 C 5.02 g/m*3 1.93 C 3.33333 km/h
1263 28-01-2014 20:00:00 1.46667 C 4.93 g/m*3 1.47 C 2.93333 km/h
1264 28-01-2014 21:00:00 1.04167 C 4.84 g/m*3 1.04 C 2.66667 km/h
1265 28-01-2014 22:00:00 0.80833 C 4.77 g/m*3 0.81 C 3.06667 km/h
1266 28-01-2014 23:00:00 0.38333 C 4.72 g/m*3 0.38 C 3.2 km/h
1267 29-01-2014 00:00:00 0.11667 C 4.62 g/m*3 0.12 C 2.8 km/h
1268 29-01-2014 01:00:00 -0.20833 C 4.53 g/m*3 -0.21 C 3.06667 km/h
1269 29-01-2014 02:00:00 0.20833 C 4.69 g/m*3 0.21 C 2.53333 km/h
1270 29-01-2014 03:00:00 0.2 C 4.67 g/m*3 0.2 C 3.2 km/h
1271 29-01-2014 04:00:00 1.2 C 4.87 g/m*3 1.2 C 2.66667 km/h
1272 29-01-2014 05:00:00 1.36667 C 4.84 g/m*3 1.37 C 2.66667 km/h
1273 29-01-2014 07:00:00 1.62222 C 4.73 g/m*3 1.62 C 2.66667 km/h
1274 29-01-2014 08:00:00 1.76667 C 4.74 g/m*3 1.77 C 2.53333 km/h
1275 29-01-2014 09:00:00 2.05 C 4.74 g/m*3 0.17 C 6.43333 km/h
Sensor: Nr:Datum:Temp:Abs-Feuchte:Windchill:Wind:
Aussen-T/F 1276 29-01-2014 13:00:00 4.06667 C 4.81 g/m*3 1.75 C 9.13333 km/h
1277 29-01-2014 14:00:00 3.86667 C 4.64 g/m*3 2.65 C 5.36667 km/h
1278 29-01-2014 15:00:00 3.8 C 4.64 g/m*3 3.8 C 3.2 km/h
1279 29-01-2014 16:00:00 2.9 C 4.49 g/m*3 -0.46 C 12.9 km/h
1280 29-01-2014 17:00:00 2.625 C 4.48 g/m*3 2.63 C 3.6 km/h
1281 29-01-2014 18:00:00 2.01667 C 4.54 g/m*3 2.02 C 1.06667 km/h
1282 29-01-2014 19:00:00 1.78333 C 4.54 g/m*3 1.78 C 3.33333 km/h
1283 29-01-2014 20:00:00 2.23333 C 4.5 g/m*3 2.23 C 4.025 km/h
1284 29-01-2014 21:00:00 1.925 C 4.48 g/m*3 1.93 C 2.53333 km/h
1285 29-01-2014 22:00:00 1.86667 C 4.52 g/m*3 1.87 C 1.86667 km/h
1286 29-01-2014 23:00:00 1.475 C 4.55 g/m*3 1.48 C 1.6 km/h
1287 30-01-2014 00:00:00 2.03333 C 4.57 g/m*3 2.03 C 1.86667 km/h
1288 30-01-2014 01:00:00 1.79167 C 4.6 g/m*3 1.79 C 0.26667 km/h
1289 30-01-2014 02:00:00 1.875 C 4.61 g/m*3 1.88 C 0.8 km/h
1290 30-01-2014 03:00:00 1.9 C 4.56 g/m*3 1.9 C 0.8 km/h
1291 30-01-2014 04:00:00 1.89167 C 4.53 g/m*3 1.89 C 1.86667 km/h
1292 30-01-2014 05:00:00 1.89167 C 4.56 g/m*3 1.89 C 0.13333 km/h
1293 30-01-2014 06:00:00 1.35833 C 4.51 g/m*3 1.36 C 0.66667 km/h
1294 30-01-2014 07:00:00 0.18333 C 4.31 g/m*3 0.18 C 1.46667 km/h
1295 30-01-2014 08:00:00 0.56667 C 4.45 g/m*3 0.57 C 0.26667 km/h
1296 30-01-2014 09:00:00 1.225 C 4.48 g/m*3 1.23 C 0.93333 km/h
1297 30-01-2014 10:00:00 2.10833 C 4.54 g/m*3 2.11 C 2.93333 km/h
1298 30-01-2014 11:00:00 3.06667 C 4.63 g/m*3 3.07 C 4 km/h
1299 30-01-2014 12:00:00 3.35 C 4.74 g/m*3 3.35 C 3.46667 km/h
1300 30-01-2014 13:00:00 4.10833 C 4.95 g/m*3 4.11 C 4.41667 km/h
Sensor: Nr:Datum:Temp:Abs-Feuchte:Windchill:Wind:
Aussen-T/F 1301 30-01-2014 14:00:00 5.35833 C 5.1 g/m*3 5.36 C 3.6 km/h
1302 30-01-2014 15:00:00 4.78333 C 5.36 g/m*3 4.78 C 1.06667 km/h
1303 30-01-2014 16:00:00 4.33333 C 5.37 g/m*3 4.33 C 1.2 km/h
1304 30-01-2014 17:00:00 2.51667 C 4.97 g/m*3 2.52 C 2.4 km/h
1305 30-01-2014 18:00:00 1.54167 C 4.78 g/m*3 1.54 C 2.93333 km/h
1306 30-01-2014 19:00:00 0.91667 C 4.64 g/m*3 0.92 C 2.93333 km/h
1307 30-01-2014 20:00:00 0.58333 C 4.54 g/m*3 0.58 C 2.53333 km/h
1308 30-01-2014 21:00:00 0.225 C 4.43 g/m*3 0.23 C 1.46667 km/h
1309 30-01-2014 22:00:00 0 C 4.41 g/m*3 0 C 1.06667 km/h
1310 30-01-2014 23:00:00 0.05833 C 4.48 g/m*3 0.06 C 0 km/h
1311 31-01-2014 00:00:00 0.23333 C 4.53 g/m*3 0.23 C 0 km/h
1312 31-01-2014 01:00:00 0.33333 C 4.53 g/m*3 0.33 C 0 km/h
1313 31-01-2014 02:00:00 0.225 C 4.49 g/m*3 0.23 C 0 km/h
1314 31-01-2014 03:00:00 -0.01667 C 4.42 g/m*3 -0.02 C 0 km/h
1315 31-01-2014 04:00:00 0.275 C 4.49 g/m*3 0.28 C 0 km/h
1316 31-01-2014 05:00:00 0.13333 C 4.45 g/m*3 0.13 C 0.26667 km/h
1317 31-01-2014 06:00:00 -0.28333 C 4.36 g/m*3 -0.28 C 0.26667 km/h
1318 31-01-2014 07:00:00 -0.95 C 4.23 g/m*3 -0.95 C 0.13333 km/h
1319 31-01-2014 08:00:00 -1.15 C 4.18 g/m*3 -1.15 C 0 km/h
1320 31-01-2014 09:00:00 -1.06667 C 4.23 g/m*3 -1.07 C 0 km/h
1321 31-01-2014 10:00:00 -0.5 C 4.41 g/m*3 -0.5 C 0 km/h
1322 31-01-2014 11:00:00 0.35 C 4.65 g/m*3 0.35 C 1.2 km/h
1323 31-01-2014 12:00:00 1.35833 C 4.88 g/m*3 1.36 C 1.6 km/h
1324 31-01-2014 13:00:00 2.15833 C 5.06 g/m*3 2.16 C 1.86667 km/h
1325 31-01-2014 14:00:00 2.91667 C 5.29 g/m*3 2.92 C 2.53333 km/h
Sensor: Nr:Datum:Temp:Abs-Feuchte:Windchill:Wind:
Aussen-T/F 1326 31-01-2014 15:00:00 3.65833 C 5.45 g/m*3 3.66 C 2.8 km/h
1327 31-01-2014 16:00:00 3.95833 C 5.43 g/m*3 3.96 C 4.275 km/h
1328 31-01-2014 17:00:00 3.3 C 5.21 g/m*3 3.3 C 4.95833 km/h
1329 31-01-2014 18:00:00 1.95833 C 4.99 g/m*3 1.96 C 3.33333 km/h
1330 31-01-2014 19:00:00 1.39167 C 4.9 g/m*3 1.39 C 2.93333 km/h
1331 31-01-2014 20:00:00 1.64167 C 5 g/m*3 1.64 C 4.28333 km/h
1332 31-01-2014 21:00:00 2.63333 C 5.12 g/m*3 0.75 C 6.71667 km/h
1333 31-01-2014 22:00:00 1.425 C 4.89 g/m*3 1.43 C 2.66667 km/h
1334 31-01-2014 23:00:00 0.93333 C 4.82 g/m*3 0.93 C 1.6 km/h
1335 01-02-2014 00:00:00 1.06667 C 4.89 g/m*3 1.07 C 0.93333 km/h
1336 01-02-2014 01:00:00 1.29167 C 4.97 g/m*3 1.29 C 1.46667 km/h
1337 01-02-2014 02:00:00 1.9 C 5.09 g/m*3 1.9 C 3.60833 km/h
1338 01-02-2014 03:00:00 2.20833 C 5.14 g/m*3 2.21 C 2.53333 km/h
1339 01-02-2014 04:00:00 2.98333 C 5.32 g/m*3 2.98 C 4.53333 km/h
1340 01-02-2014 05:00:00 3.48333 C 5.4 g/m*3 3.48 C 4.14167 km/h
1341 01-02-2014 06:00:00 3.68333 C 5.49 g/m*3 3.68 C 3.6 km/h
1342 01-02-2014 07:00:00 4.29167 C 5.54 g/m*3 4.29 C 4.275 km/h
1343 01-02-2014 08:00:00 4.90833 C 5.56 g/m*3 3.84 C 5.35833 km/h
1344 01-02-2014 09:00:00 5.66667 C 5.75 g/m*3 4.31 C 6.56667 km/h
1345 01-02-2014 10:00:00 4.95833 C 6.18 g/m*3 4.96 C 2.8 km/h
1346 01-02-2014 11:00:00 4.49167 C 6.14 g/m*3 4.49 C 2.26667 km/h
1347 01-02-2014 12:00:00 5.28333 C 6.65 g/m*3 5.28 C 1.6 km/h
1348 01-02-2014 13:00:00 6.35 C 6.75 g/m*3 4.04 C 11.15833 km/h
1349 01-02-2014 14:00:00 6.58333 C 6.65 g/m*3 4.28 C 11.41667 km/h
1350 01-02-2014 15:00:00 7 C 6.69 g/m*3 5 C 10.21667 km/h
Sensor: Nr:Datum:Temp:Abs-Feuchte:Windchill:Wind:
Aussen-T/F 1351 01-02-2014 16:00:00 6.90833 C 6.7 g/m*3 6.22 C 5.08333 km/h
1352 01-02-2014 17:00:00 6.45833 C 6.66 g/m*3 5.71 C 5.08333 km/h
1353 01-02-2014 18:00:00 6.25 C 6.59 g/m*3 5.47 C 5.09167 km/h
1354 01-02-2014 19:00:00 5.88333 C 6.55 g/m*3 5.88 C 1.73333 km/h
1355 01-02-2014 20:00:00 5.65833 C 6.51 g/m*3 5.66 C 1.33333 km/h
1356 01-02-2014 21:00:00 5.125 C 6.31 g/m*3 5.13 C 1.2 km/h
1357 01-02-2014 22:00:00 4.70833 C 6.12 g/m*3 4.71 C 2.26667 km/h
1358 01-02-2014 23:00:00 4.175 C 6 g/m*3 4.18 C 1.86667 km/h
1359 02-02-2014 00:00:00 3.80833 C 5.9 g/m*3 3.81 C 0.13333 km/h
1360 02-02-2014 01:00:00 3.79167 C 5.96 g/m*3 3.79 C 0.13333 km/h
1361 02-02-2014 02:00:00 3.70833 C 5.92 g/m*3 3.71 C 0 km/h
1362 02-02-2014 03:00:00 3.70833 C 5.94 g/m*3 3.71 C 0.4 km/h
1363 02-02-2014 04:00:00 3.86667 C 5.99 g/m*3 3.87 C 0.93333 km/h
1364 02-02-2014 05:00:00 4.70833 C 6.23 g/m*3 4.71 C 3.75 km/h
1365 02-02-2014 06:00:00 5.2 C 6.26 g/m*3 5.2 C 1.73333 km/h
1366 02-02-2014 07:00:00 4.44167 C 6.07 g/m*3 4.44 C 1.33333 km/h
1367 02-02-2014 08:00:00 3.3 C 5.73 g/m*3 3.3 C 1.6 km/h
1368 02-02-2014 09:00:00 3.96667 C 6.05 g/m*3 3.97 C 0.66667 km/h
1369 02-02-2014 10:00:00 4.41667 C 6.13 g/m*3 4.42 C 0.93333 km/h
1370 02-02-2014 11:00:00 5.53333 C 6.14 g/m*3 4.24 C 6.31667 km/h
1371 02-02-2014 12:00:00 5.84167 C 6.09 g/m*3 5.84 C 4.40833 km/h
1372 02-02-2014 13:00:00 6.18333 C 6.13 g/m*3 5.03 C 6.15833 km/h
1373 02-02-2014 14:00:00 7.48333 C 6.14 g/m*3 5.61 C 10.08333 km/h
1374 02-02-2014 15:00:00 7.84167 C 6.08 g/m*3 6.11 C 9.7 km/h
1375 02-02-2014 16:00:00 6.43333 C 5.92 g/m*3 5.44 C 5.775 km/h
Sensor: Nr:Datum:Temp:Abs-Feuchte:Windchill:Wind:
Aussen-T/F 1376 02-02-2014 17:00:00 4.48333 C 5.6 g/m*3 4.48 C 3.6 km/h
1377 02-02-2014 18:00:00 3.20833 C 5.37 g/m*3 3.21 C 3.73333 km/h
1378 02-02-2014 19:00:00 2.53333 C 5.27 g/m*3 2.53 C 1.86667 km/h
1379 02-02-2014 20:00:00 1.975 C 5.15 g/m*3 1.98 C 0.53333 km/h
1380 02-02-2014 21:00:00 1.69167 C 5.09 g/m*3 1.69 C 0.8 km/h
1381 02-02-2014 22:00:00 1.00833 C 4.88 g/m*3 1.01 C 0 km/h
1382 02-02-2014 23:00:00 0.3 C 4.68 g/m*3 0.3 C 0.4 km/h
1383 03-02-2014 00:00:00 -0.03333 C 4.59 g/m*3 -0.03 C 0.4 km/h
1384 03-02-2014 01:00:00 -0.49167 C 4.47 g/m*3 -0.49 C 0.26667 km/h
1385 03-02-2014 02:00:00 -0.99167 C 4.34 g/m*3 -0.99 C 0 km/h
1386 03-02-2014 03:00:00 -1.24167 C 4.27 g/m*3 -1.24 C 0 km/h
1387 03-02-2014 04:00:00 -1.40833 C 4.22 g/m*3 -1.41 C 0.13333 km/h
1388 03-02-2014 05:00:00 -1.70833 C 4.14 g/m*3 -1.71 C 0.4 km/h
1389 03-02-2014 06:00:00 -1.8 C 4.15 g/m*3 -1.8 C 0.13333 km/h
1390 03-02-2014 07:00:00 -1.80833 C 4.14 g/m*3 -1.81 C 0.8 km/h
1391 03-02-2014 08:00:00 -1.86667 C 4.13 g/m*3 -1.87 C 0.13333 km/h
1392 03-02-2014 09:00:00 -0.84167 C 4.46 g/m*3 -0.84 C 0.13333 km/h
1393 03-02-2014 10:00:00 0.3 C 4.84 g/m*3 0.3 C 1.46667 km/h
1394 03-02-2014 11:00:00 0.9 C 5.05 g/m*3 0.9 C 0.4 km/h
1395 03-02-2014 12:00:00 1.80833 C 5.38 g/m*3 1.81 C 1.86667 km/h
1396 03-02-2014 13:00:00 2.525 C 5.62 g/m*3 2.53 C 0.4 km/h
1397 03-02-2014 14:00:00 2.91667 C 5.68 g/m*3 2.92 C 0 km/h
1398 03-02-2014 15:00:00 3.23333 C 5.7 g/m*3 3.23 C 0.13333 km/h
1399 03-02-2014 16:00:00 3.34167 C 5.72 g/m*3 3.34 C 0.13333 km/h
1400 03-02-2014 17:00:00 3.25 C 5.72 g/m*3 3.25 C 0.13333 km/h
Sensor: Nr:Datum:Temp:Abs-Feuchte:Windchill:Wind:
Aussen-T/F 1401 03-02-2014 18:00:00 3.25 C 5.74 g/m*3 3.25 C 0 km/h
1402 03-02-2014 19:00:00 3.35833 C 5.77 g/m*3 3.36 C 0.4 km/h
1403 03-02-2014 20:00:00 2.74167 C 5.47 g/m*3 2.74 C 2.53333 km/h
1404 03-02-2014 21:00:00 2.41667 C 5.37 g/m*3 2.42 C 2.13333 km/h
1405 03-02-2014 22:00:00 3.43333 C 5.58 g/m*3 1.96 C 5.9 km/h
1406 03-02-2014 23:00:00 2.94167 C 5.39 g/m*3 2.94 C 3.34167 km/h
1407 04-02-2014 00:00:00 2.73333 C 5.4 g/m*3 2.73 C 3.34167 km/h
1408 04-02-2014 01:00:00 2.575 C 5.34 g/m*3 2.58 C 4.01667 km/h
1409 04-02-2014 02:00:00 2.4 C 5.34 g/m*3 2.4 C 2 km/h
1410 04-02-2014 03:00:00 2.44167 C 5.34 g/m*3 2.44 C 2.66667 km/h
1411 04-02-2014 04:00:00 1.96667 C 5.22 g/m*3 1.97 C 2.8 km/h
1412 04-02-2014 05:00:00 1.675 C 5.17 g/m*3 1.68 C 2.53333 km/h
1413 04-02-2014 06:00:00 2.36667 C 5.43 g/m*3 2.37 C 2.53333 km/h
1414 04-02-2014 07:00:00 2.825 C 5.58 g/m*3 2.83 C 2.80833 km/h
1415 04-02-2014 08:00:00 3.3 C 5.7 g/m*3 3.3 C 1.86667 km/h
1416 04-02-2014 09:00:00 4.95 C 5.87 g/m*3 4.95 C 4.80833 km/h
1417 04-02-2014 10:00:00 5.95833 C 6.01 g/m*3 4.95 C 5.61667 km/h
1418 04-02-2014 11:00:00 6.24167 C 6.08 g/m*3 5.02 C 6.43333 km/h
1419 04-02-2014 12:00:00 6.84167 C 6.22 g/m*3 6.84 C 4.26667 km/h
1420 04-02-2014 13:00:00 7.5 C 6.36 g/m*3 7.5 C 3.73333 km/h
1421 04-02-2014 14:00:00 8.14167 C 6.56 g/m*3 8.14 C 2.8 km/h
1422 04-02-2014 15:00:00 7.26667 C 6.73 g/m*3 7.27 C 1.6 km/h
1423 04-02-2014 16:00:00 7.175 C 6.63 g/m*3 7.18 C 2 km/h
1424 04-02-2014 17:00:00 5.8 C 6.28 g/m*3 5.8 C 3.33333 km/h
1425 04-02-2014 18:00:00 5.26667 C 6.21 g/m*3 5.27 C 1.33333 km/h
Sensor: Nr:Datum:Temp:Abs-Feuchte:Windchill:Wind:
Aussen-T/F 1426 04-02-2014 19:00:00 4.28333 C 5.88 g/m*3 4.28 C 2.40833 km/h
1427 04-02-2014 20:00:00 3.48333 C 5.73 g/m*3 3.48 C 1.86667 km/h
1428 04-02-2014 21:00:00 2.925 C 5.57 g/m*3 2.93 C 2.8 km/h
1429 04-02-2014 22:00:00 2.51667 C 5.47 g/m*3 2.52 C 3.2 km/h
1430 04-02-2014 23:00:00 2.275 C 5.42 g/m*3 2.28 C 2.66667 km/h
1431 05-02-2014 00:00:00 2.25 C 5.43 g/m*3 2.25 C 2.8 km/h
1432 05-02-2014 01:00:00 2.13333 C 5.38 g/m*3 2.13 C 2.66667 km/h
1433 05-02-2014 02:00:00 2.1 C 5.37 g/m*3 2.1 C 3.33333 km/h
1434 05-02-2014 03:00:00 2.66667 C 5.51 g/m*3 2.67 C 4.28333 km/h
1435 05-02-2014 04:00:00 2.8 C 5.47 g/m*3 2.8 C 3.875 km/h
1436 05-02-2014 05:00:00 3.05833 C 5.52 g/m*3 0.99 C 7.51667 km/h
1437 05-02-2014 06:00:00 3.56667 C 5.5 g/m*3 1.18 C 9.00833 km/h
1438 05-02-2014 07:00:00 3.44167 C 5.4 g/m*3 1.92 C 6.03333 km/h
1439 05-02-2014 08:00:00 3.325 C 5.38 g/m*3 3.33 C 3.06667 km/h
1440 05-02-2014 09:00:00 3.20833 C 5.61 g/m*3 3.21 C 1.46667 km/h
1441 05-02-2014 10:00:00 3.89167 C 5.94 g/m*3 3.89 C 2 km/h
1442 05-02-2014 11:00:00 4.93333 C 6.3 g/m*3 4.93 C 2.66667 km/h
1443 05-02-2014 12:00:00 5.58333 C 6.36 g/m*3 5.58 C 3.6 km/h
1444 05-02-2014 13:00:00 6.69167 C 6.46 g/m*3 5.71 C 5.875 km/h
1445 05-02-2014 14:00:00 6.95 C 6.55 g/m*3 5.95 C 6.03333 km/h
1446 05-02-2014 15:00:00 6.25 C 6.46 g/m*3 6.25 C 4.53333 km/h
1447 05-02-2014 16:00:00 6.025 C 6.28 g/m*3 5.16 C 5.225 km/h
1448 05-02-2014 17:00:00 5.80833 C 6.32 g/m*3 5.81 C 4.14167 km/h
1449 05-02-2014 18:00:00 5.95 C 6.51 g/m*3 5.95 C 1.86667 km/h
1450 05-02-2014 19:00:00 5.64167 C 6.42 g/m*3 5.64 C 1.86667 km/h
Sensor: Nr:Datum:Temp:Abs-Feuchte:Windchill:Wind:
Aussen-T/F 1451 05-02-2014 20:00:00 5.43333 C 6.39 g/m*3 5.43 C 1.73333 km/h
1452 05-02-2014 21:00:00 6.44167 C 6.49 g/m*3 5.63 C 5.23333 km/h
1453 05-02-2014 22:00:00 7.8 C 6.43 g/m*3 6.12 C 9.39167 km/h
1454 05-02-2014 23:00:00 7.86667 C 6.48 g/m*3 5.51 C 13.43333 km/h
1455 06-02-2014 00:00:00 7.725 C 6.62 g/m*3 5.44 C 12.75833 km/h
1456 06-02-2014 01:00:00 7.79167 C 6.77 g/m*3 5.42 C 13.41667 km/h
1457 06-02-2014 02:00:00 8.125 C 6.86 g/m*3 6.01 C 12.21667 km/h
1458 06-02-2014 03:00:00 8.29167 C 6.84 g/m*3 6.08 C 13.03333 km/h
1459 06-02-2014 04:00:00 8.26667 C 6.84 g/m*3 6.04 C 13.15833 km/h
1460 06-02-2014 05:00:00 8.05833 C 6.73 g/m*3 5.82 C 12.89167 km/h
1461 06-02-2014 06:00:00 7.66667 C 6.45 g/m*3 5.16 C 14.09167 km/h
1462 06-02-2014 07:00:00 7.05 C 6.28 g/m*3 5.09 C 10.08333 km/h
1463 06-02-2014 08:00:00 6.73333 C 6.18 g/m*3 5.36 C 7.23333 km/h
1464 06-02-2014 09:00:00 7.79167 C 6.38 g/m*3 6.53 C 7.51667 km/h
1465 06-02-2014 10:00:00 8.44167 C 6.51 g/m*3 6.68 C 10.475 km/h
1466 06-02-2014 11:00:00 8.85 C 6.51 g/m*3 6.17 C 17.7 km/h
1467 06-02-2014 12:00:00 9.24167 C 6.48 g/m*3 6.81 C 16.36667 km/h
1468 06-02-2014 13:00:00 9.93333 C 6.4 g/m*3 8.18 C 12.36667 km/h
1469 06-02-2014 14:00:00 10.41667 C 6.46 g/m*3 9.38 C 8.59167 km/h
1470 06-02-2014 15:00:00 10.20833 C 6.32 g/m*3 9.38 C 7.39167 km/h
1471 06-02-2014 16:00:00 9.06667 C 6.51 g/m*3 9.07 C 2.53333 km/h
1472 06-02-2014 17:00:00 8.66667 C 6.47 g/m*3 8.67 C 4.00833 km/h
1473 06-02-2014 18:00:00 8.40833 C 6.54 g/m*3 8.41 C 4.15 km/h
1474 06-02-2014 19:00:00 8.75 C 6.46 g/m*3 8.75 C 3.46667 km/h
1475 06-02-2014 20:00:00 8.05 C 6.57 g/m*3 8.05 C 2.8 km/h
Sensor: Nr:Datum:Temp:Abs-Feuchte:Windchill:Wind:
Aussen-T/F 1476 06-02-2014 21:00:00 8.45 C 6.19 g/m*3 7.57 C 6.43333 km/h
1477 06-02-2014 22:00:00 8.04167 C 6.13 g/m*3 8.04 C 3.74167 km/h
1478 06-02-2014 23:00:00 8.15833 C 6.45 g/m*3 8.16 C 4.40833 km/h
1479 07-02-2014 00:00:00 7.64167 C 6.9 g/m*3 7.64 C 4.4 km/h
1480 07-02-2014 01:00:00 7.76667 C 6.91 g/m*3 7.77 C 3.6 km/h
1481 07-02-2014 02:00:00 8.025 C 6.82 g/m*3 8.03 C 4.14167 km/h
1482 07-02-2014 03:00:00 8.2 C 6.84 g/m*3 8.2 C 4.55 km/h
1483 07-02-2014 04:00:00 7.83333 C 6.96 g/m*3 7.83 C 3.6 km/h
1484 07-02-2014 05:00:00 7.71667 C 6.97 g/m*3 7.72 C 3.60833 km/h
1485 07-02-2014 06:00:00 9.13333 C 7.36 g/m*3 8.13 C 7.38333 km/h
1486 07-02-2014 07:00:00 10.63333 C 7.43 g/m*3 9.56 C 9.00833 km/h
1487 07-02-2014 08:00:00 11.35833 C 7.46 g/m*3 11.36 C 9.40833 km/h
1488 07-02-2014 09:00:00 12.48333 C 7.51 g/m*3 12.48 C 15.03333 km/h
1489 07-02-2014 10:00:00 13.06667 C 7.54 g/m*3 13.07 C 21.575 km/h
1490 07-02-2014 11:00:00 11.65833 C 7.64 g/m*3 11.66 C 28.83333 km/h
1491 07-02-2014 12:00:00 10.76667 C 6.89 g/m*3 7.49 C 31.25833 km/h
1492 07-02-2014 13:00:00 10.35833 C 6.86 g/m*3 7.25 C 27.08333 km/h
1493 07-02-2014 14:00:00 10.54167 C 6.6 g/m*3 7.08 C 33.25 km/h
1494 07-02-2014 15:00:00 9.85833 C 6.65 g/m*3 6.29 C 31.51667 km/h
1495 07-02-2014 16:00:00 9.25833 C 6.53 g/m*3 6.02 C 24.66667 km/h
1496 07-02-2014 17:00:00 8.64167 C 6.61 g/m*3 6.1 C 16.1 km/h
1497 07-02-2014 18:00:00 7.60833 C 6.6 g/m*3 4.3 C 20.51667 km/h
1498 07-02-2014 19:00:00 6.99167 C 6.36 g/m*3 4.42 C 13.56667 km/h
1499 07-02-2014 20:00:00 6.64167 C 6.22 g/m*3 4.21 C 12.23333 km/h
1500 07-02-2014 21:00:00 5.99167 C 6.14 g/m*3 4.09 C 8.86667 km/h
Sensor: Nr:Datum:Temp:Abs-Feuchte:Windchill:Wind:
Aussen-T/F 1501 07-02-2014 22:00:00 5.075 C 5.94 g/m*3 4.08 C 5.225 km/h
1502 07-02-2014 23:00:00 3.74167 C 5.64 g/m*3 3.74 C 2.4 km/h
1503 08-02-2014 00:00:00 2.86667 C 5.46 g/m*3 2.87 C 2.66667 km/h
1504 08-02-2014 01:00:00 2.275 C 5.27 g/m*3 2.28 C 1.33333 km/h
1505 08-02-2014 02:00:00 2.45833 C 5.3 g/m*3 2.46 C 1.6 km/h
1506 08-02-2014 03:00:00 3.55 C 5.53 g/m*3 3.55 C 3.73333 km/h
1507 08-02-2014 04:00:00 5.33333 C 5.86 g/m*3 4 C 6.31667 km/h
1508 08-02-2014 05:00:00 5.925 C 5.98 g/m*3 5.93 C 4.40833 km/h
1509 08-02-2014 06:00:00 6.025 C 6.07 g/m*3 4.94 C 5.88333 km/h
1510 08-02-2014 07:00:00 6.53333 C 6.09 g/m*3 5.02 C 7.64167 km/h
1511 08-02-2014 08:00:00 7.2 C 6.06 g/m*3 5.74 C 7.91667 km/h
1512 08-02-2014 09:00:00 7.78333 C 6.05 g/m*3 6.24 C 8.725 km/h
1513 08-02-2014 10:00:00 8.275 C 6.14 g/m*3 7.03 C 7.79167 km/h
1514 08-02-2014 11:00:00 9.25 C 6.25 g/m*3 8.12 C 8.05 km/h
1515 08-02-2014 12:00:00 9.59167 C 6.55 g/m*3 8.15 C 9.95833 km/h
1516 08-02-2014 13:00:00 8.79167 C 6.91 g/m*3 7.7 C 7.50833 km/h
1517 08-02-2014 14:00:00 8.46667 C 6.95 g/m*3 7.38 C 7.25 km/h
1518 08-02-2014 15:00:00 7.71667 C 7.05 g/m*3 6.84 C 6.025 km/h
1519 08-02-2014 16:00:00 7.16667 C 7.1 g/m*3 7.17 C 3.34167 km/h
1520 08-02-2014 17:00:00 6.475 C 6.91 g/m*3 6.48 C 2.93333 km/h
1521 08-02-2014 18:00:00 6.05 C 6.79 g/m*3 6.05 C 4.28333 km/h
1522 08-02-2014 19:00:00 6.78333 C 6.83 g/m*3 5.81 C 5.89167 km/h
1523 08-02-2014 20:00:00 7.1 C 6.82 g/m*3 5.72 C 7.525 km/h
1524 08-02-2014 21:00:00 7.125 C 6.52 g/m*3 5.65 C 7.93333 km/h
1525 08-02-2014 22:00:00 7.01667 C 6.33 g/m*3 5.28 C 8.98333 km/h
Sensor: Nr:Datum:Temp:Abs-Feuchte:Windchill:Wind:
Aussen-T/F 1526 08-02-2014 23:00:00 6.98333 C 6.06 g/m*3 4.76 C 11.425 km/h
1527 09-02-2014 00:00:00 6.35833 C 6.01 g/m*3 3.16 C 16.90833 km/h
1528 09-02-2014 01:00:00 4.44167 C 5.82 g/m*3 2.1 C 9.525 km/h
1529 09-02-2014 02:00:00 4.44167 C 5.75 g/m*3 2.81 C 6.83333 km/h
1530 09-02-2014 03:00:00 5.75 C 5.8 g/m*3 4.22 C 7.23333 km/h
1531 09-02-2014 04:00:00 5.79167 C 5.84 g/m*3 4.54 C 6.29167 km/h
1532 09-02-2014 05:00:00 5.91667 C 5.88 g/m*3 3.71 C 10.19167 km/h
1533 09-02-2014 06:00:00 5.68333 C 5.86 g/m*3 3.09 C 11.95833 km/h
1534 09-02-2014 07:00:00 5.65 C 5.8 g/m*3 2.73 C 13.825 km/h
1535 09-02-2014 08:00:00 5.725 C 5.78 g/m*3 3.48 C 10.225 km/h
1536 09-02-2014 09:00:00 5.9 C 5.78 g/m*3 3.15 C 13.15 km/h
1537 09-02-2014 10:00:00 6.30833 C 5.79 g/m*3 3.3 C 15.43333 km/h
1538 09-02-2014 11:00:00 6.575 C 5.83 g/m*3 3.36 C 17.43333 km/h
1539 09-02-2014 12:00:00 7.15833 C 5.7 g/m*3 3.66 C 21.175 km/h
1540 09-02-2014 13:00:00 7.725 C 5.55 g/m*3 4.67 C 18.50833 km/h
1541 09-02-2014 14:00:00 6.875 C 5.8 g/m*3 3.82 C 16.775 km/h
1542 09-02-2014 15:00:00 7.31667 C 5.55 g/m*3 4.74 C 14.09167 km/h
1543 09-02-2014 16:00:00 6.80833 C 5.43 g/m*3 4.55 C 11.425 km/h
1544 09-02-2014 17:00:00 6.25833 C 5.33 g/m*3 4.29 C 9.4 km/h
1545 09-02-2014 18:00:00 4.16667 C 5.26 g/m*3 4.17 C 2.26667 km/h
1546 09-02-2014 19:00:00 3.84167 C 5.35 g/m*3 3.84 C 3.34167 km/h
1547 09-02-2014 20:00:00 2.775 C 5.18 g/m*3 2.78 C 3.06667 km/h
1548 09-02-2014 21:00:00 2.7 C 5.24 g/m*3 2.7 C 2.8 km/h
1549 09-02-2014 22:00:00 2.325 C 5.2 g/m*3 2.33 C 1.33333 km/h
1550 09-02-2014 23:00:00 1.75833 C 5.07 g/m*3 1.76 C 0.4 km/h
Sensor: Nr:Datum:Temp:Abs-Feuchte:Windchill:Wind:
Aussen-T/F 1551 10-02-2014 00:00:00 1.425 C 5 g/m*3 1.43 C 0.8 km/h
1552 10-02-2014 01:00:00 1.175 C 4.93 g/m*3 1.18 C 0.93333 km/h
1553 10-02-2014 02:00:00 1.15 C 4.94 g/m*3 1.15 C 2.94167 km/h
1554 10-02-2014 03:00:00 2.84167 C 5.23 g/m*3 0.74 C 7.51667 km/h
1555 10-02-2014 04:00:00 1.50833 C 4.91 g/m*3 1.51 C 2.13333 km/h
1556 10-02-2014 05:00:00 1.775 C 5.05 g/m*3 1.78 C 4.95 km/h
1557 10-02-2014 06:00:00 3.05833 C 5.13 g/m*3 3.06 C 4.96667 km/h
1558 10-02-2014 07:00:00 2.24167 C 5.06 g/m*3 2.24 C 0.93333 km/h
1559 10-02-2014 08:00:00 1.91667 C 5.04 g/m*3 1.92 C 0.26667 km/h
1560 10-02-2014 09:00:00 2.31667 C 5.18 g/m*3 2.32 C 0.13333 km/h
1561 10-02-2014 10:00:00 3.80833 C 5.32 g/m*3 1.95 C 7.25 km/h
1562 10-02-2014 11:00:00 5.95833 C 5.3 g/m*3 3.9 C 9.55 km/h
1563 10-02-2014 12:00:00 6.5 C 4.92 g/m*3 5.44 C 6.025 km/h
1564 10-02-2014 13:00:00 6.66667 C 4.85 g/m*3 5.94 C 5.08333 km/h
1565 10-02-2014 14:00:00 6.78333 C 4.9 g/m*3 6.78 C 4.93333 km/h
1566 10-02-2014 15:00:00 6.01667 C 5.44 g/m*3 6.02 C 4.15833 km/h
1567 10-02-2014 16:00:00 4.5 C 5.92 g/m*3 4.5 C 0.26667 km/h
1568 10-02-2014 17:00:00 3.775 C 5.87 g/m*3 3.78 C 0 km/h
1569 10-02-2014 18:00:00 3.48333 C 5.83 g/m*3 3.48 C 0 km/h
1570 10-02-2014 19:00:00 3.3 C 5.79 g/m*3 3.3 C 0 km/h
1571 10-02-2014 20:00:00 3.14167 C 5.75 g/m*3 3.14 C 0.8 km/h
1572 10-02-2014 21:00:00 2.63333 C 5.51 g/m*3 2.63 C 1.86667 km/h
1573 10-02-2014 22:00:00 2.63333 C 5.52 g/m*3 2.63 C 2.8 km/h
1574 10-02-2014 23:00:00 2.70833 C 5.53 g/m*3 2.71 C 4.40833 km/h
1575 11-02-2014 00:00:00 2.95 C 5.63 g/m*3 2.95 C 4.275 km/h
Sensor: Nr:Datum:Temp:Abs-Feuchte:Windchill:Wind:
Aussen-T/F 1576 11-02-2014 01:00:00 3.64167 C 5.7 g/m*3 0.95 C 10.36667 km/h
1577 11-02-2014 02:00:00 4.10833 C 5.77 g/m*3 1.4 C 10.88333 km/h
1578 11-02-2014 03:00:00 3.875 C 5.75 g/m*3 1.52 C 9.13333 km/h
1579 11-02-2014 04:00:00 3.99167 C 5.78 g/m*3 2.38 C 6.55833 km/h
1580 11-02-2014 05:00:00 3.86667 C 5.76 g/m*3 2.32 C 6.29167 km/h
1581 11-02-2014 06:00:00 4.78333 C 5.94 g/m*3 3.05 C 7.375 km/h
1582 11-02-2014 07:00:00 5.325 C 5.92 g/m*3 2.71 C 11.69167 km/h
1583 11-02-2014 08:00:00 5.425 C 5.81 g/m*3 3.01 C 10.75833 km/h
1584 11-02-2014 09:00:00 5.69167 C 5.64 g/m*3 3.61 C 9.4 km/h
1585 11-02-2014 10:00:00 5.94167 C 5.84 g/m*3 3.88 C 9.54167 km/h
1586 11-02-2014 11:00:00 6.43333 C 6.05 g/m*3 3.67 C 13.96667 km/h
1587 11-02-2014 12:00:00 6.61667 C 5.88 g/m*3 4.07 C 12.89167 km/h
1588 11-02-2014 13:00:00 7.31667 C 5.83 g/m*3 5.6 C 9.14167 km/h
1589 11-02-2014 14:00:00 7.98333 C 5.68 g/m*3 6.66 C 7.9 km/h
1590 11-02-2014 15:00:00 8.38333 C 5.5 g/m*3 6.98 C 8.59167 km/h
1591 11-02-2014 16:00:00 7.3 C 5.54 g/m*3 6.66 C 5.08333 km/h
1592 11-02-2014 17:00:00 5.775 C 5.61 g/m*3 5.78 C 3.2 km/h
1593 11-02-2014 18:00:00 4.575 C 5.61 g/m*3 4.58 C 3.06667 km/h
1594 11-02-2014 19:00:00 4.65 C 5.64 g/m*3 4.65 C 3.075 km/h
1595 11-02-2014 20:00:00 4.68333 C 5.64 g/m*3 4.68 C 2.26667 km/h
1596 11-02-2014 21:00:00 5.225 C 5.57 g/m*3 5.23 C 3.2 km/h
1597 11-02-2014 22:00:00 5.625 C 5.61 g/m*3 5.63 C 2.53333 km/h
1598 11-02-2014 23:00:00 5.75833 C 5.71 g/m*3 5.76 C 2.66667 km/h
1599 12-02-2014 00:00:00 5.45 C 5.93 g/m*3 5.45 C 2.94167 km/h
1600 12-02-2014 01:00:00 5.31667 C 5.99 g/m*3 3.99 C 6.31667 km/h
Sensor: Nr:Datum:Temp:Abs-Feuchte:Windchill:Wind:
Aussen-T/F 1601 12-02-2014 02:00:00 5.15 C 6.02 g/m*3 2.68 C 10.74167 km/h
1602 12-02-2014 03:00:00 5.00833 C 5.98 g/m*3 2.2 C 12.36667 km/h
1603 12-02-2014 04:00:00 4.225 C 5.77 g/m*3 2.6 C 6.71667 km/h
1604 12-02-2014 05:00:00 3.73333 C 5.66 g/m*3 2.07 C 6.58333 km/h
1605 12-02-2014 06:00:00 3.61667 C 5.55 g/m*3 1.85 C 6.84167 km/h
1606 12-02-2014 07:00:00 3.88333 C 5.64 g/m*3 1.81 C 8.05 km/h
1607 12-02-2014 08:00:00 3.55 C 5.55 g/m*3 3.55 C 3.61667 km/h
1608 12-02-2014 09:00:00 3.69167 C 5.62 g/m*3 3.69 C 4.68333 km/h
1609 12-02-2014 10:00:00 5.475 C 5.69 g/m*3 3.1 C 10.61667 km/h
1610 12-02-2014 11:00:00 6.29167 C 5.59 g/m*3 3.46 C 14.225 km/h
1611 12-02-2014 12:00:00 6.75833 C 5.63 g/m*3 4.22 C 13.03333 km/h
1612 12-02-2014 13:00:00 7.95833 C 5.54 g/m*3 5.8 C 12.225 km/h
1613 12-02-2014 14:00:00 8.14167 C 5.5 g/m*3 6.18 C 11.3 km/h
1614 12-02-2014 15:00:00 8.34167 C 5.35 g/m*3 6.56 C 10.48333 km/h
1615 12-02-2014 16:00:00 7.31667 C 5.42 g/m*3 7.32 C 4.275 km/h
1616 12-02-2014 17:00:00 5.75833 C 5.38 g/m*3 4.91 C 5.08333 km/h
1617 12-02-2014 18:00:00 4.54167 C 5.37 g/m*3 4.54 C 2.8 km/h
1618 12-02-2014 19:00:00 4.33333 C 5.48 g/m*3 4.33 C 1.86667 km/h
1619 12-02-2014 20:00:00 4.58333 C 5.58 g/m*3 4.58 C 3.2 km/h
1620 12-02-2014 21:00:00 4.89167 C 5.64 g/m*3 4.89 C 2.93333 km/h
1621 12-02-2014 22:00:00 6.475 C 5.58 g/m*3 4.76 C 8.45 km/h
1622 12-02-2014 23:00:00 6.075 C 6.02 g/m*3 4.91 C 6.15833 km/h
1623 13-02-2014 00:00:00 5.625 C 6.03 g/m*3 3.63 C 8.99167 km/h
1624 13-02-2014 01:00:00 5.98333 C 6.14 g/m*3 3.63 C 11.025 km/h
1625 13-02-2014 02:00:00 5.925 C 6.32 g/m*3 5.93 C 3.075 km/h
Sensor: Nr:Datum:Temp:Abs-Feuchte:Windchill:Wind:
Aussen-T/F 1626 13-02-2014 03:00:00 5.80833 C 6.56 g/m*3 5.81 C 3.08333 km/h
1627 13-02-2014 04:00:00 6.2 C 6.66 g/m*3 4.74 C 7.24167 km/h
1628 13-02-2014 05:00:00 6.16667 C 6.43 g/m*3 4.24 C 9.125 km/h
1629 13-02-2014 06:00:00 5.43333 C 6.23 g/m*3 5.43 C 4.93333 km/h
1630 13-02-2014 07:00:00 5.425 C 6.21 g/m*3 5.43 C 4.81667 km/h
1631 13-02-2014 08:00:00 5.88333 C 6.37 g/m*3 5.88 C 2.8 km/h
1632 13-02-2014 09:00:00 6.30833 C 6.48 g/m*3 6.31 C 2.675 km/h
1633 13-02-2014 10:00:00 7.5 C 6.58 g/m*3 7.5 C 4.14167 km/h
1634 13-02-2014 11:00:00 7.90833 C 6.78 g/m*3 7.91 C 2.13333 km/h
1635 13-02-2014 12:00:00 7.28333 C 7 g/m*3 7.28 C 2.41667 km/h
1636 13-02-2014 13:00:00 5.91667 C 6.6 g/m*3 5.09 C 5.1 km/h
1637 13-02-2014 14:00:00 4.95833 C 6.25 g/m*3 3.85 C 5.49167 km/h
1638 13-02-2014 15:00:00 4.61667 C 6.19 g/m*3 4.62 C 0.4 km/h
1639 13-02-2014 16:00:00 4.55 C 6.19 g/m*3 4.55 C 4.69167 km/h
1640 13-02-2014 17:00:00 4.59167 C 6.18 g/m*3 2.9 C 7.10833 km/h
1641 13-02-2014 18:00:00 5.1 C 6.27 g/m*3 3.24 C 8.05833 km/h
1642 13-02-2014 19:00:00 5.59167 C 6.38 g/m*3 3.29 C 10.34167 km/h
1643 13-02-2014 20:00:00 5.64167 C 6.29 g/m*3 3.22 C 11.025 km/h
1644 13-02-2014 21:00:00 5.41667 C 5.94 g/m*3 2.49 C 13.56667 km/h
1645 13-02-2014 22:00:00 4.96667 C 5.63 g/m*3 2.75 C 9.40833 km/h
1646 13-02-2014 23:00:00 4.425 C 5.55 g/m*3 2.63 C 7.375 km/h
1647 14-02-2014 00:00:00 4.45833 C 5.6 g/m*3 3 C 6.3 km/h
1648 14-02-2014 01:00:00 4.36667 C 5.58 g/m*3 2.01 C 9.54167 km/h
1649 14-02-2014 02:00:00 4.91667 C 5.62 g/m*3 2.54 C 10.08333 km/h
1650 14-02-2014 03:00:00 4.98333 C 5.59 g/m*3 2.77 C 9.425 km/h
Sensor: Nr:Datum:Temp:Abs-Feuchte:Windchill:Wind:
Aussen-T/F 1651 14-02-2014 04:00:00 4.69167 C 5.48 g/m*3 2.83 C 7.8 km/h
1652 14-02-2014 05:00:00 4.19167 C 5.4 g/m*3 2.17 C 8.05 km/h
1653 14-02-2014 06:00:00 3.925 C 5.35 g/m*3 1.89 C 7.91667 km/h
1654 14-02-2014 07:00:00 2.825 C 5.28 g/m*3 2.83 C 2.8 km/h
1655 14-02-2014 08:00:00 3.64167 C 5.6 g/m*3 3.64 C 2.13333 km/h
1656 14-02-2014 09:00:00 5.19167 C 5.8 g/m*3 5.19 C 4.13333 km/h
1657 14-02-2014 10:00:00 5.89167 C 5.89 g/m*3 5.89 C 4.28333 km/h
1658 14-02-2014 11:00:00 6.64167 C 6.05 g/m*3 6.64 C 4.81667 km/h
1659 14-02-2014 12:00:00 7.78333 C 6.27 g/m*3 6.87 C 6.16667 km/h
1660 14-02-2014 13:00:00 8.16667 C 6.34 g/m*3 6.48 C 9.81667 km/h
1661 14-02-2014 14:00:00 8.19167 C 6.41 g/m*3 7.27 C 6.45 km/h
1662 14-02-2014 15:00:00 8.3 C 6.54 g/m*3 8.3 C 4.94167 km/h
1663 14-02-2014 16:00:00 7.83333 C 6.77 g/m*3 7.83 C 3.60833 km/h
1664 14-02-2014 17:00:00 6.25833 C 6.77 g/m*3 6.26 C 2.8 km/h
1665 14-02-2014 18:00:00 5.89167 C 6.5 g/m*3 4.38 C 7.25 km/h
1666 14-02-2014 19:00:00 5.56667 C 6.54 g/m*3 5.57 C 2.53333 km/h
1667 14-02-2014 20:00:00 5.09167 C 6.45 g/m*3 5.09 C 3.86667 km/h
1668 14-02-2014 21:00:00 5.09167 C 6.51 g/m*3 5.09 C 4.4 km/h
1669 14-02-2014 22:00:00 5.88333 C 6.84 g/m*3 5.88 C 4 km/h
1670 14-02-2014 23:00:00 5.75 C 6.74 g/m*3 5.75 C 3.46667 km/h
1671 15-02-2014 00:00:00 5.76667 C 6.72 g/m*3 5.77 C 4.54167 km/h
1672 15-02-2014 01:00:00 6.44167 C 6.95 g/m*3 6.44 C 4.94167 km/h
1673 15-02-2014 02:00:00 7.75 C 7.38 g/m*3 7.09 C 5.35 km/h
1674 15-02-2014 03:00:00 7.78333 C 7.26 g/m*3 7.78 C 4.54167 km/h
1675 15-02-2014 04:00:00 7.5 C 7.26 g/m*3 7.5 C 4.8 km/h
Sensor: Nr:Datum:Temp:Abs-Feuchte:Windchill:Wind:
Aussen-T/F 1676 15-02-2014 05:00:00 8.41667 C 7.65 g/m*3 8.42 C 4.4 km/h
1677 15-02-2014 06:00:00 9.55833 C 7.91 g/m*3 8.48 C 8.05 km/h
1678 15-02-2014 07:00:00 10.88333 C 7.81 g/m*3 9.2 C 13.41667 km/h
1679 15-02-2014 08:00:00 11.34167 C 7.47 g/m*3 11.34 C 13.83333 km/h
1680 15-02-2014 09:00:00 11.79167 C 7.35 g/m*3 11.79 C 22.10833 km/h
1681 15-02-2014 10:00:00 12 C 7.31 g/m*3 12 C 23.76667 km/h
1682 15-02-2014 11:00:00 12.23 C 7.18 g/m*3 12.23 C 23.16 km/h
1683 15-02-2014 12:00:00 12.16667 C 7.03 g/m*3 12.17 C 19.96667 km/h
1684 15-02-2014 13:00:00 12.13333 C 7.19 g/m*3 12.13 C 17.16667 km/h
1685 15-02-2014 14:00:00 12.30833 C 7.45 g/m*3 12.31 C 16.23333 km/h
1686 15-02-2014 15:00:00 11.94167 C 7.26 g/m*3 11.94 C 16.1 km/h
1687 15-02-2014 16:00:00 11.35333 C 7.11 g/m*3 11.35 C 14.28667 km/h
1688 15-02-2014 17:00:00 10.59167 C 7.02 g/m*3 9.07 C 11.7 km/h
1689 15-02-2014 18:00:00 9.96667 C 6.97 g/m*3 8.42 C 11.01667 km/h
1690 15-02-2014 19:00:00 9.16667 C 7.34 g/m*3 7.55 C 10.475 km/h
1691 15-02-2014 20:00:00 7.5 C 7.42 g/m*3 7.5 C 4.275 km/h
1692 15-02-2014 21:00:00 7.81667 C 7.26 g/m*3 6.09 C 9.66667 km/h
1693 15-02-2014 22:00:00 8.64167 C 7.07 g/m*3 6.47 C 13.29167 km/h
1694 15-02-2014 23:00:00 8.80833 C 6.84 g/m*3 6.24 C 16.63333 km/h
1695 16-02-2014 00:00:00 8.40833 C 6.76 g/m*3 6.09 C 13.975 km/h
1696 16-02-2014 01:00:00 8.45 C 6.63 g/m*3 5.76 C 16.90833 km/h
1697 16-02-2014 02:00:00 8.275 C 6.57 g/m*3 5.82 C 14.76667 km/h
1698 16-02-2014 03:00:00 7.95833 C 6.41 g/m*3 5.78 C 12.36667 km/h
1699 16-02-2014 04:00:00 8.125 C 6.3 g/m*3 5.86 C 13.15833 km/h
1700 16-02-2014 05:00:00 7.775 C 6.31 g/m*3 5.5 C 12.75833 km/h
Sensor: Nr:Datum:Temp:Abs-Feuchte:Windchill:Wind:
Aussen-T/F 1701 16-02-2014 06:00:00 7.69167 C 6.37 g/m*3 5.19 C 14.1 km/h
1702 16-02-2014 07:00:00 7.575 C 6.42 g/m*3 5.23 C 12.9 km/h
1703 16-02-2014 08:00:00 7.35833 C 6.37 g/m*3 5.08 C 12.23333 km/h
1704 16-02-2014 09:00:00 7.49167 C 6.53 g/m*3 5.17 C 12.625 km/h
1705 16-02-2014 10:00:00 8.00833 C 6.57 g/m*3 5.6 C 13.96667 km/h
1706 16-02-2014 11:00:00 8.56667 C 6.6 g/m*3 6.14 C 15.04167 km/h
1707 16-02-2014 12:00:00 8.45833 C 6.84 g/m*3 6.33 C 12.75833 km/h
1708 16-02-2014 13:00:00 8.68333 C 6.88 g/m*3 6.32 C 14.76667 km/h
1709 16-02-2014 14:00:00 9.21667 C 6.74 g/m*3 6.84 C 15.83333 km/h
1710 16-02-2014 15:00:00 9.325 C 6.58 g/m*3 7.18 C 14.23333 km/h
1711 16-02-2014 16:00:00 9.625 C 6.6 g/m*3 7.66 C 13.425 km/h
1712 16-02-2014 17:00:00 8.8 C 6.38 g/m*3 7.59 C 8.05 km/h
1713 16-02-2014 18:00:00 6.19167 C 6.26 g/m*3 6.19 C 3.86667 km/h
1714 16-02-2014 19:00:00 5.24167 C 6.1 g/m*3 5.24 C 3.86667 km/h
1715 16-02-2014 20:00:00 4.5 C 5.92 g/m*3 4.5 C 3.06667 km/h
1716 16-02-2014 21:00:00 3.86667 C 5.79 g/m*3 3.87 C 2.8 km/h
1717 16-02-2014 22:00:00 3.81667 C 5.68 g/m*3 3.82 C 3.46667 km/h
1718 16-02-2014 23:00:00 3.35 C 5.53 g/m*3 3.35 C 2.26667 km/h
1719 17-02-2014 00:00:00 2.775 C 5.39 g/m*3 2.78 C 1.86667 km/h
1720 17-02-2014 01:00:00 1.69167 C 5.11 g/m*3 1.69 C 0.13333 km/h
1721 17-02-2014 02:00:00 1.24167 C 5.01 g/m*3 1.24 C 0.66667 km/h
1722 17-02-2014 03:00:00 0.55833 C 4.79 g/m*3 0.56 C 0 km/h
1723 17-02-2014 04:00:00 0.16667 C 4.71 g/m*3 0.17 C 0 km/h
1724 17-02-2014 05:00:00 -0.04167 C 4.64 g/m*3 -0.04 C 0 km/h
1725 17-02-2014 06:00:00 0.13333 C 4.72 g/m*3 0.13 C 0.26667 km/h
Sensor: Nr:Datum:Temp:Abs-Feuchte:Windchill:Wind:
Aussen-T/F 1726 17-02-2014 07:00:00 0.49167 C 4.86 g/m*3 0.49 C 0.13333 km/h
1727 17-02-2014 08:00:00 1.25 C 5.12 g/m*3 1.25 C 2 km/h
1728 17-02-2014 09:00:00 2.24167 C 5.48 g/m*3 2.24 C 1.2 km/h
1729 17-02-2014 10:00:00 3.51667 C 5.95 g/m*3 3.52 C 4.44167 km/h
1730 17-02-2014 11:00:00 4.99167 C 6.36 g/m*3 3.98 C 5.23333 km/h
1731 17-02-2014 12:00:00 6.93333 C 6.79 g/m*3 4.67 C 11.56667 km/h
1732 17-02-2014 13:00:00 7.65833 C 6.75 g/m*3 5.25 C 13.43333 km/h
1733 17-02-2014 14:00:00 8.71667 C 6.81 g/m*3 6.68 C 12.5 km/h
1734 17-02-2014 15:00:00 9.35833 C 6.76 g/m*3 7.6 C 11.56667 km/h
1735 17-02-2014 16:00:00 8.59167 C 6.75 g/m*3 8 C 5.5 km/h
1736 17-02-2014 17:00:00 6.51667 C 6.54 g/m*3 6.52 C 4 km/h
1737 17-02-2014 18:00:00 5.03333 C 6.23 g/m*3 5.03 C 4.13333 km/h
1738 17-02-2014 19:00:00 4.21667 C 6 g/m*3 4.22 C 1.6 km/h
1739 17-02-2014 20:00:00 3.65833 C 5.85 g/m*3 3.66 C 0.26667 km/h
1740 17-02-2014 21:00:00 2.95 C 5.6 g/m*3 2.95 C 0 km/h
1741 17-02-2014 22:00:00 2.09167 C 5.33 g/m*3 2.09 C 0 km/h
1742 17-02-2014 23:00:00 1.625 C 5.2 g/m*3 1.63 C 0 km/h
1743 18-02-2014 00:00:00 1.3 C 5.09 g/m*3 1.3 C 0.13333 km/h
1744 18-02-2014 01:00:00 0.9 C 4.95 g/m*3 0.9 C 0 km/h
1745 18-02-2014 02:00:00 0.675 C 4.92 g/m*3 0.68 C 0 km/h
1746 18-02-2014 03:00:00 0.51667 C 4.87 g/m*3 0.52 C 0 km/h
1747 18-02-2014 04:00:00 0.425 C 4.84 g/m*3 0.43 C 1.06667 km/h
1748 18-02-2014 05:00:00 0.31667 C 4.8 g/m*3 0.32 C 1.6 km/h
1749 18-02-2014 06:00:00 0.21667 C 4.77 g/m*3 0.22 C 1.2 km/h
1750 18-02-2014 07:00:00 0.1 C 4.73 g/m*3 0.1 C 0 km/h
Sensor: Nr:Datum:Temp:Abs-Feuchte:Windchill:Wind:
Aussen-T/F 1751 18-02-2014 08:00:00 0.13333 C 4.76 g/m*3 0.13 C 0.8 km/h
1752 18-02-2014 09:00:00 0.28333 C 4.82 g/m*3 0.28 C 0.13333 km/h
1753 18-02-2014 10:00:00 0.925 C 5.06 g/m*3 0.93 C 1.33333 km/h
1754 18-02-2014 11:00:00 2.46667 C 5.62 g/m*3 2.47 C 1.6 km/h
1755 18-02-2014 12:00:00 3.35 C 5.96 g/m*3 3.35 C 1.46667 km/h
1756 18-02-2014 13:00:00 4.79167 C 6.34 g/m*3 4.79 C 0.93333 km/h
1757 18-02-2014 14:00:00 6.64167 C 6.67 g/m*3 6.64 C 0.66667 km/h
1758 18-02-2014 15:00:00 7.79167 C 6.85 g/m*3 7.79 C 0.8 km/h
1759 18-02-2014 16:00:00 7.85833 C 7.11 g/m*3 7.86 C 0 km/h
1760 18-02-2014 17:00:00 6.95833 C 6.99 g/m*3 6.96 C 0 km/h
1761 18-02-2014 18:00:00 6.54167 C 6.82 g/m*3 6.54 C 1.2 km/h
1762 18-02-2014 19:00:00 6.075 C 6.65 g/m*3 6.08 C 0 km/h
1763 18-02-2014 20:00:00 5.76667 C 6.58 g/m*3 5.77 C 0.66667 km/h
1764 18-02-2014 21:00:00 5.65 C 6.58 g/m*3 5.65 C 0.13333 km/h
1765 18-02-2014 22:00:00 5.75833 C 6.6 g/m*3 5.76 C 0.26667 km/h
1766 18-02-2014 23:00:00 5.85 C 6.56 g/m*3 5.85 C 0.13333 km/h
1767 19-02-2014 00:00:00 5.50833 C 6.51 g/m*3 5.51 C 0 km/h
1768 19-02-2014 01:00:00 5.3 C 6.44 g/m*3 5.3 C 0.13333 km/h
1769 19-02-2014 02:00:00 5.075 C 6.35 g/m*3 5.08 C 0.4 km/h
1770 19-02-2014 03:00:00 5.06667 C 6.35 g/m*3 5.07 C 1.06667 km/h
1771 19-02-2014 04:00:00 5.45833 C 6.5 g/m*3 5.46 C 0.66667 km/h
1772 19-02-2014 05:00:00 6.9 C 6.78 g/m*3 6.9 C 3.75833 km/h
1773 19-02-2014 06:00:00 6.99167 C 6.91 g/m*3 5.96 C 6.175 km/h
1774 19-02-2014 07:00:00 7.175 C 6.91 g/m*3 6.17 C 6.16667 km/h
1775 19-02-2014 08:00:00 7 C 6.97 g/m*3 6.28 C 5.21667 km/h
Sensor: Nr:Datum:Temp:Abs-Feuchte:Windchill:Wind:
Aussen-T/F 1776 19-02-2014 09:00:00 7.83333 C 7.16 g/m*3 7.83 C 4.81667 km/h
1777 19-02-2014 10:00:00 8.63333 C 7.21 g/m*3 6.48 C 13.15833 km/h
1778 19-02-2014 11:00:00 9.175 C 7.15 g/m*3 6.91 C 14.9 km/h
1779 19-02-2014 12:00:00 10.31667 C 7.12 g/m*3 8.4 C 14.23333 km/h
1780 19-02-2014 13:00:00 11.53333 C 7.04 g/m*3 11.53 C 13.16667 km/h
1781 19-02-2014 14:00:00 11.525 C 6.98 g/m*3 11.53 C 13.425 km/h
1782 19-02-2014 15:00:00 10.83333 C 7.06 g/m*3 9.31 C 12.08333 km/h
1783 19-02-2014 16:00:00 9.59167 C 7.44 g/m*3 9.15 C 5.48333 km/h
1784 19-02-2014 17:00:00 9.25833 C 7.29 g/m*3 8.4 C 6.85 km/h
1785 19-02-2014 18:00:00 8.85833 C 7.24 g/m*3 8.15 C 6.025 km/h
1786 19-02-2014 19:00:00 8.19167 C 7.09 g/m*3 8.19 C 4.14167 km/h
1787 19-02-2014 20:00:00 7.76667 C 7.08 g/m*3 7.77 C 3.73333 km/h
1788 19-02-2014 21:00:00 6.825 C 6.83 g/m*3 6.83 C 3.73333 km/h
1789 19-02-2014 22:00:00 6.2 C 6.72 g/m*3 6.2 C 3.6 km/h
1790 19-02-2014 23:00:00 6.78333 C 6.83 g/m*3 6.78 C 3.6 km/h
1791 20-02-2014 00:00:00 6.96667 C 6.81 g/m*3 6.19 C 5.35 km/h
1792 20-02-2014 01:00:00 6.55 C 6.73 g/m*3 5.81 C 5.08333 km/h
1793 20-02-2014 02:00:00 6.48333 C 6.8 g/m*3 6.48 C 4.01667 km/h
1794 20-02-2014 03:00:00 6.38333 C 6.77 g/m*3 6.38 C 3.61667 km/h
1795 20-02-2014 04:00:00 6.425 C 6.71 g/m*3 6.43 C 3.61667 km/h
1796 20-02-2014 05:00:00 5.86667 C 6.67 g/m*3 5.87 C 1.06667 km/h
1797 20-02-2014 06:00:00 5.96667 C 6.74 g/m*3 5.97 C 0.4 km/h
1798 20-02-2014 07:00:00 6.09167 C 6.79 g/m*3 6.09 C 1.33333 km/h
1799 20-02-2014 08:00:00 6.75 C 6.94 g/m*3 6.75 C 1.73333 km/h
1800 20-02-2014 09:00:00 7.98333 C 7.05 g/m*3 7.98 C 3.60833 km/h
Sensor: Nr:Datum:Temp:Abs-Feuchte:Windchill:Wind:
Aussen-T/F 1801 20-02-2014 10:00:00 8.88333 C 7.14 g/m*3 8.88 C 4.275 km/h
1802 20-02-2014 11:00:00 9.73333 C 7.07 g/m*3 8.68 C 8.05 km/h
1803 20-02-2014 12:00:00 10.76667 C 6.9 g/m*3 9.4 C 10.9 km/h
1804 20-02-2014 13:00:00 11.35 C 6.88 g/m*3 11.35 C 10.89167 km/h
1805 20-02-2014 14:00:00 11.225 C 7.08 g/m*3 11.23 C 8.74167 km/h
1806 20-02-2014 15:00:00 11.15 C 7.35 g/m*3 11.15 C 6.30833 km/h
1807 20-02-2014 16:00:00 11.25833 C 7.42 g/m*3 11.26 C 3.075 km/h
1808 20-02-2014 17:00:00 10.875 C 7.51 g/m*3 10.88 C 2.8 km/h
1809 20-02-2014 18:00:00 9.95 C 7.47 g/m*3 9.95 C 1.73333 km/h
1810 20-02-2014 19:00:00 9.75 C 7.35 g/m*3 9.75 C 2.66667 km/h
1811 20-02-2014 20:00:00 9.475 C 7.4 g/m*3 9.48 C 2.53333 km/h
1812 20-02-2014 21:00:00 9.6 C 7.53 g/m*3 9.6 C 2.53333 km/h
1813 20-02-2014 22:00:00 9.65 C 7.67 g/m*3 9.65 C 1.46667 km/h
1814 20-02-2014 23:00:00 9.41667 C 7.81 g/m*3 9.42 C 2.93333 km/h
1815 21-02-2014 00:00:00 9.38333 C 7.94 g/m*3 9.38 C 4.15 km/h
1816 21-02-2014 01:00:00 9.65 C 8.08 g/m*3 9.65 C 2.26667 km/h
1817 21-02-2014 02:00:00 9.73333 C 8.15 g/m*3 9.73 C 4.425 km/h
1818 21-02-2014 03:00:00 9.45 C 8.05 g/m*3 9.02 C 5.35833 km/h
1819 21-02-2014 04:00:00 9.525 C 7.89 g/m*3 8.52 C 7.65833 km/h
1820 21-02-2014 05:00:00 9.38333 C 7.52 g/m*3 7.98 C 9.53333 km/h
1821 21-02-2014 06:00:00 8.21667 C 7.41 g/m*3 8.22 C 2.94167 km/h
1822 21-02-2014 07:00:00 7.95833 C 7.24 g/m*3 7.41 C 5.075 km/h
1823 21-02-2014 08:00:00 8.25833 C 7.09 g/m*3 6.86 C 8.46667 km/h
1824 21-02-2014 09:00:00 8.9 C 7 g/m*3 6.57 C 14.9 km/h
1825 21-02-2014 10:00:00 9.28333 C 6.98 g/m*3 7.2 C 13.7 km/h
Sensor: Nr:Datum:Temp:Abs-Feuchte:Windchill:Wind:
Aussen-T/F 1826 21-02-2014 11:00:00 8.90833 C 6.95 g/m*3 6.55 C 15.175 km/h
1827 21-02-2014 12:00:00 7.91667 C 7.06 g/m*3 5.41 C 14.5 km/h
1828 21-02-2014 13:00:00 8.575 C 6.68 g/m*3 5.71 C 18.775 km/h
1829 21-02-2014 14:00:00 9.03333 C 6.69 g/m*3 6.65 C 15.56667 km/h
1830 21-02-2014 15:00:00 9.21667 C 6.35 g/m*3 6.56 C 18.36667 km/h
1831 21-02-2014 16:00:00 7.69167 C 6.31 g/m*3 5.16 C 14.36667 km/h
1832 21-02-2014 17:00:00 7.125 C 6.2 g/m*3 5.1 C 10.5 km/h
1833 21-02-2014 18:00:00 5.64167 C 6.05 g/m*3 5.64 C 4.4 km/h
1834 21-02-2014 19:00:00 5.1 C 5.95 g/m*3 5.1 C 4.80833 km/h
1835 21-02-2014 20:00:00 4.11667 C 5.82 g/m*3 4.12 C 3.2 km/h
1836 21-02-2014 21:00:00 3.55 C 5.69 g/m*3 3.55 C 2.93333 km/h
1837 21-02-2014 22:00:00 3.225 C 5.63 g/m*3 3.23 C 1.46667 km/h
1838 21-02-2014 23:00:00 3.53333 C 5.73 g/m*3 3.53 C 1.46667 km/h
1839 22-02-2014 00:00:00 2.86667 C 5.5 g/m*3 2.87 C 3.46667 km/h
1840 22-02-2014 01:00:00 2.35 C 5.37 g/m*3 2.35 C 2.4 km/h
1841 22-02-2014 02:00:00 1.96667 C 5.27 g/m*3 1.97 C 1.73333 km/h
1842 22-02-2014 03:00:00 1.675 C 5.16 g/m*3 1.68 C 1.6 km/h
1843 22-02-2014 04:00:00 1.33333 C 5.04 g/m*3 1.33 C 1.46667 km/h
1844 22-02-2014 05:00:00 1.19167 C 5.02 g/m*3 1.19 C 1.2 km/h
1845 22-02-2014 06:00:00 2.05 C 5.34 g/m*3 2.05 C 2.95 km/h
1846 22-02-2014 07:00:00 3.3 C 5.64 g/m*3 3.3 C 2.66667 km/h
1847 22-02-2014 08:00:00 3.93333 C 5.77 g/m*3 3.93 C 0.8 km/h
1848 22-02-2014 09:00:00 5.05 C 5.96 g/m*3 5.05 C 4.41667 km/h
1849 22-02-2014 10:00:00 6.24167 C 6.11 g/m*3 4.83 C 7.10833 km/h
1850 22-02-2014 11:00:00 7.00833 C 6.16 g/m*3 5.01 C 10.21667 km/h
Sensor: Nr:Datum:Temp:Abs-Feuchte:Windchill:Wind:
Aussen-T/F 1851 22-02-2014 12:00:00 7.48333 C 6.35 g/m*3 5.39 C 11.29167 km/h
1852 22-02-2014 13:00:00 7.28333 C 6.36 g/m*3 5.01 C 12.1 km/h
1853 22-02-2014 14:00:00 7.56667 C 6.41 g/m*3 5.35 C 12.08333 km/h
1854 22-02-2014 15:00:00 7.76667 C 6.43 g/m*3 5.85 C 10.625 km/h
1855 22-02-2014 16:00:00 7.775 C 6.45 g/m*3 6.41 C 7.925 km/h
1856 22-02-2014 17:00:00 7.36667 C 6.41 g/m*3 6.21 C 6.84167 km/h
1857 22-02-2014 18:00:00 6.74167 C 6.32 g/m*3 6.74 C 4.00833 km/h
1858 22-02-2014 19:00:00 6.34167 C 6.19 g/m*3 4.94 C 7.11667 km/h
1859 22-02-2014 20:00:00 6.10833 C 6.21 g/m*3 6.11 C 2.53333 km/h
1860 22-02-2014 21:00:00 5.75 C 6.24 g/m*3 5.75 C 1.2 km/h
1861 22-02-2014 22:00:00 5.53333 C 6.21 g/m*3 5.53 C 0.26667 km/h
1862 22-02-2014 23:00:00 5.28333 C 6.13 g/m*3 5.28 C 0.53333 km/h
1863 23-02-2014 00:00:00 5.55 C 6.07 g/m*3 5.55 C 1.86667 km/h
1864 23-02-2014 01:00:00 4.35 C 5.71 g/m*3 4.35 C 2.66667 km/h
1865 23-02-2014 02:00:00 3.04167 C 5.43 g/m*3 3.04 C 3.33333 km/h
1866 23-02-2014 03:00:00 2.88333 C 5.35 g/m*3 2.88 C 4 km/h
1867 23-02-2014 04:00:00 2.19167 C 5.17 g/m*3 2.19 C 0.66667 km/h
1868 23-02-2014 05:00:00 2.06667 C 5.2 g/m*3 2.07 C 0.8 km/h
1869 23-02-2014 06:00:00 2.91667 C 5.47 g/m*3 2.92 C 2.53333 km/h
1870 23-02-2014 07:00:00 3.725 C 5.63 g/m*3 3.73 C 2.8 km/h
1871 23-02-2014 08:00:00 4.51 C 5.96 g/m*3 4.51 C 0.64 km/h
1872 23-02-2014 09:00:00 6 C 6.1 g/m*3 6 C 1.06667 km/h
1873 23-02-2014 12:00:00 10.125 C 7.13 g/m*3 9.32 C 7.225 km/h
1874 23-02-2014 13:00:00 10.40833 C 6.48 g/m*3 9.04 C 10.49167 km/h
1875 23-02-2014 14:00:00 10.35 C 6.72 g/m*3 8.71 C 12.225 km/h
Sensor: Nr:Datum:Temp:Abs-Feuchte:Windchill:Wind:
Aussen-T/F 1876 23-02-2014 15:00:00 9.74167 C 6.78 g/m*3 8.66 C 8.20833 km/h
1877 23-02-2014 16:00:00 9.98333 C 6.61 g/m*3 9.98 C 4.81667 km/h
1878 23-02-2014 17:00:00 9.40833 C 6.71 g/m*3 9.41 C 0.66667 km/h
1879 23-02-2014 18:00:00 8.38333 C 6.5 g/m*3 8.38 C 2 km/h
1880 23-02-2014 19:00:00 7.50833 C 6.55 g/m*3 7.51 C 3.86667 km/h
1881 23-02-2014 20:00:00 6.3 C 6.25 g/m*3 6.3 C 4.53333 km/h
1882 23-02-2014 21:00:00 5.4 C 6.04 g/m*3 5.4 C 4.66667 km/h
1883 23-02-2014 22:00:00 4.675 C 5.87 g/m*3 4.68 C 4.26667 km/h
1884 23-02-2014 23:00:00 3.8 C 5.68 g/m*3 3.8 C 3.2 km/h
1885 24-02-2014 00:00:00 3.28333 C 5.58 g/m*3 3.28 C 3.33333 km/h
1886 24-02-2014 01:00:00 2.84167 C 5.47 g/m*3 2.84 C 4.13333 km/h
1887 24-02-2014 02:00:00 2.05833 C 5.21 g/m*3 2.06 C 0.26667 km/h
1888 24-02-2014 03:00:00 1.29167 C 4.99 g/m*3 1.29 C 0 km/h
1889 24-02-2014 04:00:00 0.61667 C 4.8 g/m*3 0.62 C 0 km/h
1890 24-02-2014 05:00:00 0.15833 C 4.69 g/m*3 0.16 C 0 km/h
1891 24-02-2014 06:00:00 -0.29167 C 4.56 g/m*3 -0.29 C 0.8 km/h
1892 24-02-2014 07:00:00 -0.55833 C 4.47 g/m*3 -0.56 C 0.4 km/h
1893 24-02-2014 08:00:00 0.64167 C 4.91 g/m*3 0.64 C 4.00833 km/h
1894 24-02-2014 09:00:00 4.45833 C 5.66 g/m*3 2.55 C 7.79167 km/h
1895 24-02-2014 10:00:00 6.31667 C 5.82 g/m*3 4.87 C 7.25833 km/h
1896 24-02-2014 11:00:00 7.65 C 6.17 g/m*3 6.84 C 5.75833 km/h
1897 24-02-2014 12:00:00 10.65833 C 6.33 g/m*3 10.22 C 6.03333 km/h
1898 24-02-2014 13:00:00 12.98333 C 6.4 g/m*3 12.98 C 7.78333 km/h
1899 24-02-2014 14:00:00 13.59167 C 6.36 g/m*3 13.59 C 7.38333 km/h
1900 24-02-2014 15:00:00 13.99167 C 6.4 g/m*3 13.99 C 9.11667 km/h
Sensor: Nr:Datum:Temp:Abs-Feuchte:Windchill:Wind:
Aussen-T/F 1901 24-02-2014 16:00:00 13.34167 C 6.38 g/m*3 13.34 C 5.46667 km/h
1902 24-02-2014 17:00:00 11.69167 C 6.39 g/m*3 11.69 C 4.81667 km/h
1903 24-02-2014 18:00:00 7.9 C 6.39 g/m*3 7.9 C 4.66667 km/h
1904 24-02-2014 19:00:00 6.80833 C 6.27 g/m*3 5.76 C 6.15 km/h
1905 24-02-2014 20:00:00 6.30833 C 6.21 g/m*3 5.49 C 5.2 km/h
1906 24-02-2014 21:00:00 5.775 C 6.06 g/m*3 5.78 C 3.46667 km/h
1907 24-02-2014 22:00:00 4.89167 C 5.93 g/m*3 4.89 C 0.53333 km/h
1908 24-02-2014 23:00:00 4.325 C 5.75 g/m*3 4.33 C 0.53333 km/h
1909 25-02-2014 00:00:00 3.79167 C 5.64 g/m*3 3.79 C 1.06667 km/h
1910 25-02-2014 01:00:00 3.24167 C 5.52 g/m*3 3.24 C 0 km/h
1911 25-02-2014 02:00:00 2.725 C 5.4 g/m*3 2.73 C 0.4 km/h
1912 25-02-2014 03:00:00 2.175 C 5.26 g/m*3 2.17 C 0.13333 km/h
1913 25-02-2014 04:00:00 1.75 C 5.16 g/m*3 1.75 C 0 km/h
1914 25-02-2014 05:00:00 1.55833 C 5.12 g/m*3 1.56 C 0 km/h
1915 25-02-2014 06:00:00 1.26667 C 5.03 g/m*3 1.27 C 0 km/h
1916 25-02-2014 07:00:00 1.5 C 5.16 g/m*3 1.5 C 0.4 km/h
1917 25-02-2014 08:00:00 1.96667 C 5.32 g/m*3 1.97 C 0.4 km/h
1918 25-02-2014 09:00:00 3.30833 C 5.85 g/m*3 3.31 C 0.93333 km/h
1919 25-02-2014 10:00:00 7.58333 C 6.79 g/m*3 7.58 C 3.34167 km/h
1920 25-02-2014 11:00:00 10.35 C 6.55 g/m*3 9.83 C 6.15833 km/h
1921 25-02-2014 12:00:00 11.55833 C 6.71 g/m*3 11.56 C 7.49167 km/h
1922 25-02-2014 13:00:00 10.98333 C 6.78 g/m*3 10.98 C 4 km/h
1923 25-02-2014 14:00:00 11.525 C 6.85 g/m*3 11.53 C 5.75833 km/h
1924 25-02-2014 15:00:00 11.575 C 6.89 g/m*3 11.58 C 7.38333 km/h
1925 25-02-2014 16:00:00 12 C 6.96 g/m*3 12 C 7.79167 km/h
Sensor: Nr:Datum:Temp:Abs-Feuchte:Windchill:Wind:
Aussen-T/F 1926 25-02-2014 17:00:00 11.475 C 6.94 g/m*3 11.48 C 6.025 km/h
1927 25-02-2014 18:00:00 9.71667 C 6.78 g/m*3 9.72 C 3.46667 km/h
1928 25-02-2014 19:00:00 8.45833 C 6.69 g/m*3 8.46 C 2.93333 km/h
1929 25-02-2014 20:00:00 8.25833 C 6.81 g/m*3 8.26 C 1.73333 km/h
1930 25-02-2014 21:00:00 7.98333 C 6.76 g/m*3 7.98 C 3.06667 km/h
1931 25-02-2014 22:00:00 7.86667 C 6.77 g/m*3 7.87 C 3.2 km/h
1932 25-02-2014 23:00:00 7.86667 C 6.91 g/m*3 7.87 C 3.46667 km/h
1933 26-02-2014 00:00:00 7.35 C 6.79 g/m*3 7.35 C 4 km/h
1934 26-02-2014 01:00:00 7.55833 C 6.91 g/m*3 7.56 C 2.66667 km/h
1935 26-02-2014 02:00:00 8.13333 C 7.07 g/m*3 8.13 C 2.4 km/h
1936 26-02-2014 03:00:00 7.71667 C 6.97 g/m*3 7.72 C 3.6 km/h
1937 26-02-2014 04:00:00 7.9 C 7.03 g/m*3 7.9 C 2.8 km/h
1938 26-02-2014 05:00:00 8.50833 C 7.03 g/m*3 7.9 C 5.5 km/h
1939 26-02-2014 06:00:00 8.125 C 7.02 g/m*3 8.13 C 4.14167 km/h
1940 26-02-2014 07:00:00 6.85 C 6.72 g/m*3 6.85 C 1.33333 km/h
1941 26-02-2014 08:00:00 7.39167 C 6.95 g/m*3 7.39 C 2.54167 km/h
1942 26-02-2014 09:00:00 7.41667 C 6.93 g/m*3 7.42 C 1.2 km/h
1943 26-02-2014 10:00:00 8.55 C 7.2 g/m*3 7.35 C 7.8 km/h
1944 26-02-2014 11:00:00 9.675 C 7.06 g/m*3 8.4 C 9.14167 km/h
1945 26-02-2014 12:00:00 10.25833 C 7.12 g/m*3 9.38 C 7.64167 km/h
1946 26-02-2014 13:00:00 10.83333 C 7.03 g/m*3 10.2 C 6.975 km/h
1947 26-02-2014 14:00:00 11.28333 C 7.01 g/m*3 11.28 C 7.79167 km/h
1948 26-02-2014 15:00:00 10.71667 C 6.92 g/m*3 10.29 C 6.03333 km/h
1949 26-02-2014 16:00:00 10.40833 C 7 g/m*3 10.41 C 2.8 km/h
1950 26-02-2014 17:00:00 9.825 C 7.17 g/m*3 9.82 C 0.66667 km/h
Sensor: Nr:Datum:Temp:Abs-Feuchte:Windchill:Wind:
Aussen-T/F 1951 26-02-2014 18:00:00 8.73333 C 7.1 g/m*3 8.73 C 3.33333 km/h
1952 26-02-2014 19:00:00 8.09167 C 6.98 g/m*3 8.09 C 3.33333 km/h
1953 26-02-2014 20:00:00 7.50909 C 6.89 g/m*3 7.51 C 1.30909 km/h
1954 26-02-2014 22:00:00 7.49167 C 6.84 g/m*3 7.49 C 1.86667 km/h
1955 26-02-2014 23:00:00 6.96667 C 6.7 g/m*3 6.97 C 2 km/h
1956 27-02-2014 00:00:00 5.95 C 6.46 g/m*3 5.95 C 2.4 km/h
1957 27-02-2014 01:00:00 5 C 6.19 g/m*3 5 C 1.33333 km/h
1958 27-02-2014 02:00:00 4.03333 C 5.92 g/m*3 4.03 C 0.8 km/h
1959 27-02-2014 03:00:00 3.25833 C 5.68 g/m*3 3.26 C 0.13333 km/h
1960 27-02-2014 04:00:00 2.65833 C 5.51 g/m*3 2.66 C 1.2 km/h
1961 27-02-2014 05:00:00 1.91667 C 5.25 g/m*3 1.92 C 0.93333 km/h
1962 27-02-2014 06:00:00 1.575 C 5.18 g/m*3 1.58 C 0.93333 km/h
1963 27-02-2014 07:00:00 1.31667 C 5.09 g/m*3 1.32 C 1.20833 km/h
1964 27-02-2014 08:00:00 1.1 C 5.02 g/m*3 1.1 C 0 km/h
1965 27-02-2014 09:00:00 1.6 C 5.25 g/m*3 1.6 C 1.06667 km/h
1966 27-02-2014 11:00:00 7.525 C 6.85 g/m*3 6.23 C 7.45 km/h
1967 27-02-2014 12:00:00 9.85 C 6.43 g/m*3 8.29 C 11.00833 km/h
1968 27-02-2014 13:00:00 9.825 C 6.24 g/m*3 8.15 C 11.69167 km/h
1969 27-02-2014 14:00:00 10.04167 C 6.26 g/m*3 8.94 C 8.6 km/h
1970 27-02-2014 15:00:00 10.6 C 6.09 g/m*3 9.43 C 9.54167 km/h
1971 27-02-2014 16:00:00 9.875 C 5.69 g/m*3 9.18 C 6.575 km/h
1972 27-02-2014 17:00:00 9.3 C 5.84 g/m*3 9.3 C 4.54167 km/h
1973 27-02-2014 18:00:00 7.76667 C 6.24 g/m*3 6.31 C 8.325 km/h
1974 27-02-2014 19:00:00 6.35833 C 6.35 g/m*3 6.36 C 4.29167 km/h
1975 27-02-2014 20:00:00 5.475 C 6.4 g/m*3 5.48 C 1.46667 km/h
Sensor: Nr:Datum:Temp:Abs-Feuchte:Windchill:Wind:
Aussen-T/F 1976 27-02-2014 21:00:00 4.96667 C 6.41 g/m*3 4.97 C 0.8 km/h
1977 27-02-2014 22:00:00 4.625 C 6.28 g/m*3 4.63 C 1.6 km/h
1978 27-02-2014 23:00:00 4.40833 C 6.08 g/m*3 4.41 C 3.86667 km/h
1979 28-02-2014 00:00:00 4.48333 C 6.1 g/m*3 2.99 C 6.43333 km/h
1980 28-02-2014 01:00:00 4.775 C 6.2 g/m*3 3.5 C 5.88333 km/h
1981 28-02-2014 02:00:00 4.85 C 6.09 g/m*3 2.71 C 9.00833 km/h
1982 28-02-2014 03:00:00 4.1 C 5.88 g/m*3 2.42 C 6.825 km/h
1983 28-02-2014 04:00:00 3.91667 C 5.93 g/m*3 3.92 C 3.73333 km/h
1984 28-02-2014 05:00:00 3.58333 C 5.88 g/m*3 3.58 C 1.6 km/h
1985 28-02-2014 06:00:00 3.86667 C 6.03 g/m*3 3.87 C 1.06667 km/h
1986 28-02-2014 07:00:00 4.125 C 6.14 g/m*3 4.13 C 0.66667 km/h
1987 28-02-2014 08:00:00 4.69167 C 6.28 g/m*3 4.69 C 1.2 km/h
1988 28-02-2014 09:00:00 5.68333 C 6.42 g/m*3 5.68 C 3.06667 km/h
1989 28-02-2014 10:00:00 6.75833 C 6.61 g/m*3 6.76 C 3.73333 km/h
1990 28-02-2014 11:00:00 7.78333 C 6.73 g/m*3 6.55 C 7.38333 km/h
1991 28-02-2014 12:00:00 7.99167 C 6.78 g/m*3 7.15 C 6.03333 km/h
1992 28-02-2014 13:00:00 8.48333 C 6.86 g/m*3 7.43 C 7.10833 km/h
1993 28-02-2014 14:00:00 9.43333 C 6.71 g/m*3 8.51 C 7.23333 km/h
1994 28-02-2014 15:00:00 9.225 C 6.55 g/m*3 9.23 C 4 km/h
1995 28-02-2014 16:00:00 9.3 C 6.53 g/m*3 8.86 C 5.33333 km/h
1996 28-02-2014 17:00:00 9.07273 C 6.65 g/m*3 9.07 C 4.66364 km/h
1997 28-02-2014 18:00:00 8.1 C 6.74 g/m*3 8.1 C 1.86667 km/h
1998 28-02-2014 19:00:00 7.00833 C 6.61 g/m*3 7.01 C 3.33333 km/h
1999 28-02-2014 20:00:00 6.63333 C 6.66 g/m*3 6.63 C 3.6 km/h
2000 28-02-2014 21:00:00 6.89167 C 6.84 g/m*3 6.89 C 0.8 km/h
Sensor: Nr:Datum:Temp:Abs-Feuchte:Windchill:Wind:
Aussen-T/F 2001 28-02-2014 22:00:00 6.3 C 6.88 g/m*3 6.3 C 3.08333 km/h
2002 28-02-2014 23:00:00 5.65 C 6.7 g/m*3 5.65 C 1.86667 km/h
2003 01-03-2014 00:00:00 5.29167 C 6.63 g/m*3 5.29 C 1.06667 km/h
2004 01-03-2014 01:00:00 4.825 C 6.45 g/m*3 4.83 C 0.4 km/h
2005 01-03-2014 02:00:00 4.85 C 6.49 g/m*3 4.85 C 0.66667 km/h
2006 01-03-2014 03:00:00 4.19167 C 6.18 g/m*3 4.19 C 1.6 km/h
2007 01-03-2014 04:00:00 3.675 C 5.97 g/m*3 3.68 C 2.66667 km/h
2008 01-03-2014 05:00:00 2.64167 C 5.57 g/m*3 2.64 C 0.66667 km/h
2009 01-03-2014 06:00:00 2.56667 C 5.58 g/m*3 2.57 C 0 km/h
2010 01-03-2014 07:00:00 2.75 C 5.67 g/m*3 2.75 C 0.26667 km/h
2011 01-03-2014 08:00:00 3.13333 C 5.82 g/m*3 3.13 C 0.13333 km/h
2012 01-03-2014 09:00:00 3.8 C 6.09 g/m*3 3.8 C 0.26667 km/h
2013 01-03-2014 10:00:00 5.41667 C 6.63 g/m*3 5.42 C 1.86667 km/h
2014 01-03-2014 11:00:00 7.21667 C 6.65 g/m*3 7.22 C 2.93333 km/h
2015 01-03-2014 12:00:00 8.25 C 6.78 g/m*3 7.58 C 5.60833 km/h
2016 01-03-2014 13:00:00 8.975 C 6.65 g/m*3 8.01 C 7.10833 km/h
2017 01-03-2014 14:00:00 9.29167 C 6.27 g/m*3 8.76 C 5.625 km/h
2018 01-03-2014 15:00:00 9.40833 C 6.17 g/m*3 9.02 C 5.21667 km/h
2019 01-03-2014 16:00:00 9.05833 C 6.1 g/m*3 9.06 C 4.01667 km/h
2020 01-03-2014 17:00:00 7.95833 C 6.28 g/m*3 6.69 C 7.66667 km/h
2021 01-03-2014 18:00:00 6.96667 C 6.46 g/m*3 6.97 C 0.66667 km/h
2022 01-03-2014 19:00:00 6.15833 C 6.47 g/m*3 6.16 C 0.53333 km/h
2023 01-03-2014 20:00:00 5.2 C 6.16 g/m*3 5.2 C 1.86667 km/h
2024 01-03-2014 21:00:00 3.575 C 5.66 g/m*3 3.58 C 1.46667 km/h
2025 01-03-2014 22:00:00 2.85833 C 5.51 g/m*3 2.86 C 1.86667 km/h
Sensor: Nr:Datum:Temp:Abs-Feuchte:Windchill:Wind:
Aussen-T/F 2026 01-03-2014 23:00:00 2.59167 C 5.42 g/m*3 2.59 C 0.8 km/h
2027 02-03-2014 00:00:00 1.825 C 5.19 g/m*3 1.83 C 0.26667 km/h
2028 02-03-2014 01:00:00 1.50833 C 5.12 g/m*3 1.51 C 0.93333 km/h
2029 02-03-2014 02:00:00 1.425 C 5.11 g/m*3 1.43 C 0.53333 km/h
2030 02-03-2014 03:00:00 1.95833 C 5.32 g/m*3 1.96 C 0.26667 km/h
2031 02-03-2014 04:00:00 1.69167 C 5.2 g/m*3 1.69 C 0.93333 km/h
2032 02-03-2014 05:00:00 0.86667 C 4.93 g/m*3 0.87 C 0.13333 km/h
2033 02-03-2014 06:00:00 0.375 C 4.77 g/m*3 0.38 C 0 km/h
2034 02-03-2014 07:00:00 0.28333 C 4.76 g/m*3 0.28 C 0.93333 km/h
2035 02-03-2014 08:00:00 0.55833 C 4.88 g/m*3 0.56 C 1.6 km/h
2036 02-03-2014 09:00:00 1.23333 C 5.12 g/m*3 1.23 C 0.66667 km/h
2037 02-03-2014 10:00:00 2.81667 C 5.75 g/m*3 2.82 C 2.13333 km/h
2038 02-03-2014 11:00:00 4.40833 C 6.16 g/m*3 3.22 C 5.5 km/h
2039 02-03-2014 12:00:00 6.25833 C 5.79 g/m*3 3.63 C 12.9 km/h
2040 02-03-2014 13:00:00 7.16667 C 5.68 g/m*3 5.36 C 9.41667 km/h
2041 02-03-2014 14:00:00 8.03333 C 5.69 g/m*3 6.56 C 8.61667 km/h
2042 02-03-2014 15:00:00 8.98333 C 5.78 g/m*3 8.15 C 6.56667 km/h
2043 02-03-2014 16:00:00 9.10833 C 5.7 g/m*3 8.63 C 5.35 km/h
2044 02-03-2014 17:00:00 7.90833 C 5.86 g/m*3 7.91 C 2.93333 km/h
2045 02-03-2014 18:00:00 4.98333 C 5.68 g/m*3 4.98 C 4.93333 km/h
2046 02-03-2014 19:00:00 3.58333 C 5.31 g/m*3 2.34 C 5.33333 km/h
2047 02-03-2014 20:00:00 2.98333 C 5.2 g/m*3 2.98 C 4.4 km/h
2048 02-03-2014 21:00:00 2.65833 C 5.16 g/m*3 2.66 C 4.13333 km/h
2049 02-03-2014 22:00:00 2.525 C 5.22 g/m*3 2.53 C 3.33333 km/h
2050 02-03-2014 23:00:00 2.075 C 5.14 g/m*3 2.08 C 3.33333 km/h
Sensor: Nr:Datum:Temp:Abs-Feuchte:Windchill:Wind:
Aussen-T/F 2051 03-03-2014 00:00:00 2.16667 C 5.17 g/m*3 2.17 C 3.33333 km/h
2052 03-03-2014 01:00:00 2.80833 C 5.33 g/m*3 2.81 C 3.6 km/h
2053 03-03-2014 02:00:00 3.41667 C 5.43 g/m*3 3.42 C 4.28333 km/h
2054 03-03-2014 03:00:00 3.14167 C 5.37 g/m*3 3.14 C 3.06667 km/h
2055 03-03-2014 04:00:00 3.325 C 5.53 g/m*3 2.1 C 5.20833 km/h
2056 03-03-2014 05:00:00 4.04167 C 5.64 g/m*3 2.47 C 6.44167 km/h
2057 03-03-2014 06:00:00 3.95833 C 5.61 g/m*3 2.81 C 5.21667 km/h
2058 03-03-2014 07:00:00 4.325 C 5.61 g/m*3 2.06 C 9.125 km/h
2059 03-03-2014 08:00:00 4.80833 C 5.69 g/m*3 4.81 C 3.875 km/h
2060 03-03-2014 09:00:00 5.39167 C 5.86 g/m*3 5.39 C 3.6 km/h
2061 03-03-2014 10:00:00 5.99167 C 6.19 g/m*3 5.03 C 5.48333 km/h
2062 03-03-2014 11:00:00 7.06667 C 6.47 g/m*3 6.17 C 5.75833 km/h
2063 03-03-2014 12:00:00 7.35833 C 6.54 g/m*3 7.36 C 4.54167 km/h
2064 03-03-2014 13:00:00 7.79167 C 6.93 g/m*3 7.79 C 4.80833 km/h
2065 03-03-2014 14:00:00 7.98333 C 7.21 g/m*3 7.98 C 3.2 km/h
2066 03-03-2014 15:00:00 8.86667 C 7.03 g/m*3 8.39 C 5.23333 km/h
2067 03-03-2014 16:00:00 9.29167 C 6.64 g/m*3 9.29 C 3.34167 km/h
2068 03-03-2014 17:00:00 8.425 C 6.88 g/m*3 8.43 C 2.4 km/h
2069 03-03-2014 18:00:00 6.74167 C 6.55 g/m*3 6.74 C 3.86667 km/h
2070 03-03-2014 19:00:00 5.175 C 6.09 g/m*3 5.18 C 4.26667 km/h
2071 03-03-2014 20:00:00 4.325 C 5.85 g/m*3 4.33 C 4.66667 km/h
2072 03-03-2014 21:00:00 4.09167 C 5.73 g/m*3 4.09 C 4 km/h
2073 03-03-2014 22:00:00 3.575 C 5.6 g/m*3 3.58 C 4.66667 km/h
2074 03-03-2014 23:00:00 2.59167 C 5.34 g/m*3 2.59 C 1.33333 km/h
2075 04-03-2014 00:00:00 1.725 C 5.11 g/m*3 1.73 C 0.26667 km/h
Sensor: Nr:Datum:Temp:Abs-Feuchte:Windchill:Wind:
Aussen-T/F 2076 04-03-2014 01:00:00 0.95833 C 4.87 g/m*3 0.96 C 0 km/h
2077 04-03-2014 02:00:00 0.41667 C 4.74 g/m*3 0.42 C 0 km/h
2078 04-03-2014 03:00:00 0.21667 C 4.71 g/m*3 0.22 C 0.4 km/h
2079 04-03-2014 04:00:00 -0.175 C 4.6 g/m*3 -0.18 C 0.26667 km/h
2080 04-03-2014 05:00:00 -0.66667 C 4.44 g/m*3 -0.67 C 0 km/h
2081 04-03-2014 06:00:00 -0.80833 C 4.41 g/m*3 -0.81 C 0.53333 km/h
2082 04-03-2014 07:00:00 -0.88333 C 4.41 g/m*3 -0.88 C 0.26667 km/h
2083 04-03-2014 08:00:00 -0.85833 C 4.43 g/m*3 -0.86 C 0.93333 km/h
2084 04-03-2014 09:00:00 -0.61667 C 4.5 g/m*3 -0.62 C 1.6 km/h
2085 04-03-2014 10:00:00 0.375 C 4.83 g/m*3 0.38 C 0.13333 km/h
2086 04-03-2014 11:00:00 1.85833 C 5.38 g/m*3 1.86 C 0.8 km/h
2087 04-03-2014 12:00:00 5.63333 C 6.64 g/m*3 5.63 C 1.46667 km/h
2088 04-03-2014 13:00:00 9.93333 C 6.99 g/m*3 9.93 C 1.86667 km/h
2089 04-03-2014 14:00:00 11.40833 C 6.43 g/m*3 11.41 C 4.55 km/h
2090 04-03-2014 15:00:00 12.14167 C 5.9 g/m*3 12.14 C 4.81667 km/h
2091 04-03-2014 16:00:00 9.85833 C 6.67 g/m*3 9.86 C 2.8 km/h
2092 04-03-2014 17:00:00 8.95833 C 6.8 g/m*3 8.96 C 2.93333 km/h
2093 04-03-2014 18:00:00 7.35 C 6.39 g/m*3 7.35 C 4.4 km/h
2094 04-03-2014 19:00:00 7.55833 C 6.43 g/m*3 7.56 C 4.66667 km/h
2095 04-03-2014 20:00:00 8.05 C 6.5 g/m*3 8.05 C 3.73333 km/h
2096 04-03-2014 21:00:00 7.09167 C 6.41 g/m*3 7.09 C 2.66667 km/h
2097 04-03-2014 22:00:00 6.20833 C 6.29 g/m*3 6.21 C 2.8 km/h
2098 04-03-2014 23:00:00 5.475 C 6.08 g/m*3 5.48 C 0.66667 km/h
2099 05-03-2014 00:00:00 4.74167 C 5.88 g/m*3 4.74 C 1.33333 km/h
2100 05-03-2014 01:00:00 3.51667 C 5.57 g/m*3 3.52 C 0.26667 km/h
Sensor: Nr:Datum:Temp:Abs-Feuchte:Windchill:Wind:
Aussen-T/F 2101 05-03-2014 02:00:00 2.51667 C 5.35 g/m*3 2.52 C 0.53333 km/h
2102 05-03-2014 03:00:00 2.01667 C 5.22 g/m*3 2.02 C 1.33333 km/h
2103 05-03-2014 04:00:00 1.76667 C 5.16 g/m*3 1.77 C 1.86667 km/h
2104 05-03-2014 05:00:00 1.9 C 5.18 g/m*3 1.9 C 2.26667 km/h
2105 05-03-2014 06:00:00 1.5 C 5.08 g/m*3 1.5 C 0.66667 km/h
2106 05-03-2014 07:00:00 2.19167 C 5.28 g/m*3 2.19 C 4.41667 km/h
2107 05-03-2014 08:00:00 2.23333 C 5.22 g/m*3 2.23 C 4.275 km/h
2108 05-03-2014 09:00:00 2.85833 C 5.48 g/m*3 2.86 C 1.33333 km/h
2109 05-03-2014 10:00:00 4.92 C 6.12 g/m*3 4.92 C 3.06 km/h
2110 05-03-2014 11:00:00 8.6 C 6.79 g/m*3 7.75 C 6.4 km/h
2111 05-03-2014 12:00:00 9.30833 C 6.71 g/m*3 8.4 C 7.10833 km/h
2112 05-03-2014 13:00:00 10.66667 C 7.06 g/m*3 9.48 C 9.7 km/h
2113 05-03-2014 14:00:00 10.1 C 6.34 g/m*3 8.8 C 9.7 km/h
2114 05-03-2014 15:00:00 10.51667 C 6.38 g/m*3 8.83 C 12.76667 km/h
2115 05-03-2014 16:00:00 9.89167 C 6.35 g/m*3 9.2 C 6.575 km/h
2116 05-03-2014 17:00:00 9.56667 C 6.2 g/m*3 8.7 C 7.10833 km/h
2117 05-03-2014 18:00:00 7.45 C 6.06 g/m*3 7.45 C 3.46667 km/h
2118 05-03-2014 19:00:00 5.46667 C 6.02 g/m*3 4.54 C 5.2 km/h
2119 05-03-2014 20:00:00 4.875 C 5.96 g/m*3 4.88 C 4.8 km/h
2120 05-03-2014 21:00:00 3.75833 C 5.71 g/m*3 3.76 C 1.33333 km/h
2121 05-03-2014 22:00:00 2.925 C 5.51 g/m*3 2.93 C 0.4 km/h
2122 05-03-2014 23:00:00 2.175 C 5.3 g/m*3 2.17 C 0 km/h
2123 06-03-2014 00:00:00 1.71667 C 5.17 g/m*3 1.72 C 0.26667 km/h
2124 06-03-2014 01:00:00 1.25833 C 5.02 g/m*3 1.26 C 0 km/h
2125 06-03-2014 02:00:00 0.675 C 4.85 g/m*3 0.68 C 0.13333 km/h
Sensor: Nr:Datum:Temp:Abs-Feuchte:Windchill:Wind:
Aussen-T/F 2126 06-03-2014 03:00:00 0.16667 C 4.71 g/m*3 0.17 C 0.13333 km/h
2127 06-03-2014 04:00:00 -0.2 C 4.59 g/m*3 -0.2 C 0 km/h
2128 06-03-2014 05:00:00 -0.61667 C 4.46 g/m*3 -0.62 C 0 km/h
2129 06-03-2014 06:00:00 -0.24167 C 4.62 g/m*3 -0.24 C 1.6 km/h
2130 06-03-2014 07:00:00 -0.10833 C 4.66 g/m*3 -0.11 C 1.06667 km/h
2131 06-03-2014 08:00:00 0.29167 C 4.8 g/m*3 0.29 C 1.06667 km/h
2132 06-03-2014 09:00:00 0.75833 C 4.95 g/m*3 0.76 C 1.46667 km/h
2133 06-03-2014 10:00:00 1.475 C 5.22 g/m*3 1.48 C 1.86667 km/h
2134 06-03-2014 11:00:00 2.41667 C 5.6 g/m*3 2.42 C 2.4 km/h
2135 06-03-2014 12:00:00 4.25 C 6.34 g/m*3 4.25 C 2.26667 km/h
2136 06-03-2014 13:00:00 7.75 C 7.28 g/m*3 7.75 C 4.26667 km/h
2137 06-03-2014 14:00:00 10.26667 C 7.44 g/m*3 10.27 C 4.54167 km/h
2138 06-03-2014 15:00:00 12.58333 C 7.3 g/m*3 12.58 C 6.41667 km/h
2139 06-03-2014 16:00:00 12.3 C 6.9 g/m*3 12.3 C 5.75833 km/h
2140 06-03-2014 17:00:00 10.175 C 7.01 g/m*3 10.18 C 4.80833 km/h
2141 06-03-2014 18:00:00 7.48333 C 6.47 g/m*3 6.5 C 6.26667 km/h
2142 06-03-2014 19:00:00 6.275 C 6.26 g/m*3 5.32 C 5.6 km/h
2143 06-03-2014 20:00:00 5.275 C 5.97 g/m*3 5.28 C 4.66667 km/h
2144 06-03-2014 21:00:00 4.05833 C 5.65 g/m*3 4.06 C 1.46667 km/h
2145 06-03-2014 22:00:00 3.10833 C 5.35 g/m*3 3.11 C 0.13333 km/h
2146 06-03-2014 23:00:00 1.99167 C 5.07 g/m*3 1.99 C 0 km/h
2147 07-03-2014 00:00:00 1.275 C 4.93 g/m*3 1.27 C 0 km/h
2148 07-03-2014 01:00:00 0.80833 C 4.82 g/m*3 0.81 C 0 km/h
2149 07-03-2014 02:00:00 0.20833 C 4.67 g/m*3 0.21 C 0 km/h
2150 07-03-2014 03:00:00 -0.15 C 4.56 g/m*3 -0.15 C 0 km/h
Sensor: Nr:Datum:Temp:Abs-Feuchte:Windchill:Wind:
Aussen-T/F 2151 07-03-2014 04:00:00 -0.36 C 4.52 g/m*3 -0.36 C 0 km/h
2152 07-03-2014 07:00:00 -0.9 C 4.42 g/m*3 -0.9 C 1.6 km/h
2153 07-03-2014 08:00:00 -0.78333 C 4.45 g/m*3 -0.78 C 0.53333 km/h
2154 07-03-2014 09:00:00 -0.15 C 4.65 g/m*3 -0.15 C 0.8 km/h
2155 07-03-2014 10:00:00 0.99 C 5.04 g/m*3 0.99 C 0.8 km/h
2156 07-03-2014 13:00:00 12.16667 C 7.53 g/m*3 12.17 C 3.73333 km/h
2157 07-03-2014 14:00:00 13.80833 C 7.17 g/m*3 13.81 C 4.275 km/h
2158 07-03-2014 15:00:00 15.15833 C 5.97 g/m*3 15.16 C 7.79167 km/h
2159 07-03-2014 16:00:00 13.975 C 6.67 g/m*3 13.98 C 5.225 km/h
2160 07-03-2014 17:00:00 11.40833 C 7.15 g/m*3 11.41 C 4.26667 km/h
2161 07-03-2014 18:00:00 10.03333 C 6.91 g/m*3 10.03 C 4.93333 km/h
2162 07-03-2014 19:00:00 9.18889 C 6.76 g/m*3 9.19 C 3.91111 km/h
2163 07-03-2014 20:00:00 8.30833 C 6.56 g/m*3 8.31 C 4.14167 km/h
2164 07-03-2014 21:00:00 7.76667 C 6.51 g/m*3 6.86 C 6.15833 km/h
2165 07-03-2014 22:00:00 7.33333 C 6.46 g/m*3 7.33 C 3.6 km/h
2166 07-03-2014 23:00:00 5.49167 C 6.08 g/m*3 5.49 C 0.53333 km/h
2167 08-03-2014 00:00:00 4.8 C 5.9 g/m*3 4.8 C 0.53333 km/h
2168 08-03-2014 01:00:00 4.40833 C 5.86 g/m*3 4.41 C 1.6 km/h
2169 08-03-2014 02:00:00 4.35 C 5.85 g/m*3 4.35 C 0.53333 km/h
2170 08-03-2014 03:00:00 3.625 C 5.62 g/m*3 3.63 C 0 km/h
2171 08-03-2014 04:00:00 3.00833 C 5.49 g/m*3 3.01 C 0.66667 km/h
2172 08-03-2014 05:00:00 2.3 C 5.31 g/m*3 2.3 C 0.26667 km/h
2173 08-03-2014 06:00:00 1.93333 C 5.21 g/m*3 1.93 C 0.26667 km/h
2174 08-03-2014 07:00:00 1.70833 C 5.18 g/m*3 1.71 C 0.4 km/h
2175 08-03-2014 08:00:00 1.89167 C 5.25 g/m*3 1.89 C 0.66667 km/h
Sensor: Nr:Datum:Temp:Abs-Feuchte:Windchill:Wind:
Aussen-T/F 2176 08-03-2014 09:00:00 3.09167 C 5.72 g/m*3 3.09 C 0 km/h
2177 08-03-2014 10:00:00 5.45455 C 6.56 g/m*3 5.45 C 0.43636 km/h
2178 08-03-2014 11:00:00 9.66667 C 7.68 g/m*3 9.67 C 2.13333 km/h
2179 08-03-2014 12:00:00 13.74167 C 7.68 g/m*3 13.74 C 7.65833 km/h
2180 08-03-2014 13:00:00 15.45833 C 7.1 g/m*3 15.46 C 8.31667 km/h
2181 08-03-2014 14:00:00 15.8 C 6.92 g/m*3 15.8 C 8.46667 km/h
2182 08-03-2014 15:00:00 16.18333 C 6.88 g/m*3 16.18 C 8.46667 km/h
2183 08-03-2014 16:00:00 15.40833 C 6.68 g/m*3 15.41 C 6.84167 km/h
2184 08-03-2014 17:00:00 14.025 C 7.02 g/m*3 14.03 C 6.56667 km/h
2185 08-03-2014 18:00:00 10.25833 C 6.89 g/m*3 9.76 C 6.01667 km/h
2186 08-03-2014 19:00:00 8.58333 C 6.67 g/m*3 7.88 C 5.875 km/h
2187 08-03-2014 20:00:00 7.18333 C 6.5 g/m*3 7.18 C 3.46667 km/h
2188 08-03-2014 21:00:00 6.10833 C 6.24 g/m*3 6.11 C 0.66667 km/h
2189 08-03-2014 22:00:00 5.11667 C 5.96 g/m*3 5.12 C 0 km/h
2190 08-03-2014 23:00:00 4.10833 C 5.67 g/m*3 4.11 C 0.13333 km/h
2191 09-03-2014 00:00:00 3.24167 C 5.46 g/m*3 3.24 C 0 km/h
2192 09-03-2014 01:00:00 2.65 C 5.34 g/m*3 2.65 C 0 km/h
2193 09-03-2014 02:00:00 2.03333 C 5.2 g/m*3 2.03 C 0 km/h
2194 09-03-2014 03:00:00 1.66667 C 5.11 g/m*3 1.67 C 0 km/h
2195 09-03-2014 04:00:00 1.23333 C 4.99 g/m*3 1.23 C 0 km/h
2196 09-03-2014 05:00:00 0.90833 C 4.9 g/m*3 0.91 C 0 km/h
2197 09-03-2014 06:00:00 0.29167 C 4.7 g/m*3 0.29 C 0 km/h
2198 09-03-2014 07:00:00 0.1 C 4.68 g/m*3 0.1 C 0 km/h
2199 09-03-2014 08:00:00 0.175 C 4.71 g/m*3 0.18 C 0.13333 km/h
2200 09-03-2014 09:00:00 0.95833 C 5.01 g/m*3 0.96 C 0.13333 km/h
Sensor: Nr:Datum:Temp:Abs-Feuchte:Windchill:Wind:
Aussen-T/F 2201 09-03-2014 10:00:00 3.52222 C 5.93 g/m*3 3.52 C 0.71111 km/h
2202 09-03-2014 11:00:00 7.2 C 6.95 g/m*3 7.2 C 1.2 km/h
2203 09-03-2014 12:00:00 11.70833 C 7.68 g/m*3 11.71 C 3.2 km/h
2204 09-03-2014 13:00:00 16.89167 C 6.15 g/m*3 16.89 C 4.95833 km/h
2205 09-03-2014 14:00:00 19.19167 C 4.97 g/m*3 19.19 C 6.01667 km/h
2206 09-03-2014 15:00:00 20.125 C 4.8 g/m*3 20.13 C 5.61667 km/h
2207 09-03-2014 16:00:00 17.30833 C 6.28 g/m*3 17.31 C 4.14167 km/h
2208 09-03-2014 17:00:00 15.1 C 6.78 g/m*3 15.1 C 5.2 km/h
2209 09-03-2014 18:00:00 12.59167 C 6.53 g/m*3 12.59 C 6.26667 km/h
2210 09-03-2014 19:00:00 10.4 C 6.51 g/m*3 10.15 C 5.2 km/h
2211 09-03-2014 20:00:00 8.61667 C 6.47 g/m*3 8.62 C 2.66667 km/h
2212 09-03-2014 21:00:00 7.29167 C 6.09 g/m*3 7.29 C 0.26667 km/h
2213 09-03-2014 22:00:00 5.89167 C 5.77 g/m*3 5.89 C 0 km/h
2214 09-03-2014 23:00:00 4.50833 C 5.54 g/m*3 4.51 C 0 km/h
2215 10-03-2014 00:00:00 3.70833 C 5.36 g/m*3 3.71 C 0 km/h
2216 10-03-2014 01:00:00 2.775 C 5.21 g/m*3 2.78 C 0 km/h
2217 10-03-2014 02:00:00 2.18333 C 5.09 g/m*3 2.18 C 0 km/h
2218 10-03-2014 03:00:00 1.775 C 5.02 g/m*3 1.78 C 0 km/h
2219 10-03-2014 04:00:00 1.34167 C 4.91 g/m*3 1.34 C 0.13333 km/h
2220 10-03-2014 05:00:00 1.18333 C 4.89 g/m*3 1.18 C 0.13333 km/h
2221 10-03-2014 06:00:00 0.91667 C 4.84 g/m*3 0.92 C 0.26667 km/h
2222 10-03-2014 07:00:00 0.61667 C 4.77 g/m*3 0.62 C 0.13333 km/h
2223 10-03-2014 08:00:00 0.975 C 4.92 g/m*3 0.98 C 0.13333 km/h
2224 10-03-2014 09:00:00 2.44167 C 5.42 g/m*3 2.44 C 0.53333 km/h
2225 10-03-2014 10:00:00 5.16667 C 6.2 g/m*3 5.17 C 0.13333 km/h
Sensor: Nr:Datum:Temp:Abs-Feuchte:Windchill:Wind:
Aussen-T/F 2226 10-03-2014 11:00:00 8.03333 C 7 g/m*3 8.03 C 0.8 km/h
2227 10-03-2014 12:00:00 13.2 C 7.55 g/m*3 13.2 C 1.86667 km/h
2228 10-03-2014 13:00:00 16.99167 C 6.86 g/m*3 16.99 C 4.675 km/h
2229 10-03-2014 14:00:00 17.15 C 6.58 g/m*3 17.15 C 2.8 km/h
2230 10-03-2014 15:00:00 17.825 C 6.54 g/m*3 17.83 C 2.93333 km/h
2231 10-03-2014 16:00:00 16.18333 C 6.61 g/m*3 16.18 C 3.33333 km/h
2232 10-03-2014 17:00:00 14.55833 C 6.69 g/m*3 14.56 C 5.46667 km/h
2233 10-03-2014 18:00:00 12.39167 C 6.22 g/m*3 12.39 C 6.40833 km/h
2234 10-03-2014 19:00:00 10.46667 C 6.2 g/m*3 10.47 C 4.675 km/h
2235 10-03-2014 20:00:00 8.8 C 6.01 g/m*3 8.8 C 1.06667 km/h
2236 10-03-2014 21:00:00 7.61667 C 5.76 g/m*3 7.62 C 0.8 km/h
2237 10-03-2014 22:00:00 6.65 C 5.67 g/m*3 6.65 C 0.66667 km/h
2238 10-03-2014 23:00:00 5.71667 C 5.55 g/m*3 5.72 C 0.53333 km/h
2239 11-03-2014 00:00:00 4.74167 C 5.56 g/m*3 4.74 C 0 km/h
2240 11-03-2014 01:00:00 3.96667 C 5.42 g/m*3 3.97 C 0.26667 km/h
2241 11-03-2014 02:00:00 3.65 C 5.43 g/m*3 3.65 C 0.4 km/h
2242 11-03-2014 03:00:00 3.40833 C 5.43 g/m*3 3.41 C 0.53333 km/h
2243 11-03-2014 04:00:00 3.125 C 5.37 g/m*3 3.13 C 0 km/h
2244 11-03-2014 05:00:00 3.06667 C 5.35 g/m*3 3.07 C 0.8 km/h
2245 11-03-2014 06:00:00 2.34167 C 5.2 g/m*3 2.34 C 0 km/h
2246 11-03-2014 07:00:00 2.30833 C 5.25 g/m*3 2.31 C 0 km/h
2247 11-03-2014 08:00:00 2.8 C 5.47 g/m*3 2.8 C 0.66667 km/h
2248 11-03-2014 09:00:00 5.525 C 6.44 g/m*3 5.53 C 2.66667 km/h
2249 11-03-2014 10:00:00 7.4 C 6.94 g/m*3 7.4 C 2.26667 km/h
2250 11-03-2014 11:00:00 9.625 C 7.32 g/m*3 9.63 C 2.53333 km/h
Sensor: Nr:Datum:Temp:Abs-Feuchte:Windchill:Wind:
Aussen-T/F 2251 11-03-2014 12:00:00 12.76667 C 7.92 g/m*3 12.77 C 3.46667 km/h
2252 11-03-2014 13:00:00 15.29167 C 7.97 g/m*3 15.29 C 3.33333 km/h
2253 11-03-2014 14:00:00 16.30833 C 7.78 g/m*3 16.31 C 4.54167 km/h
2254 11-03-2014 15:00:00 17.9 C 7.67 g/m*3 17.9 C 5.35 km/h
2255 11-03-2014 16:00:00 17.075 C 8.02 g/m*3 17.08 C 7.1 km/h
2256 11-03-2014 17:00:00 14.95 C 8.26 g/m*3 14.95 C 3.73333 km/h
2257 11-03-2014 18:00:00 12.04167 C 8.03 g/m*3 12.04 C 5.06667 km/h
2258 11-03-2014 19:00:00 10.5 C 7.77 g/m*3 10.26 C 5.2 km/h
2259 11-03-2014 20:00:00 9.00833 C 7.07 g/m*3 9.01 C 2.66667 km/h
2260 11-03-2014 21:00:00 8.39167 C 6.71 g/m*3 8.39 C 2.26667 km/h
2261 11-03-2014 22:00:00 7.75 C 6.5 g/m*3 7.75 C 2.66667 km/h
2262 11-03-2014 23:00:00 8.1 C 6.27 g/m*3 8.1 C 4.675 km/h
2263 12-03-2014 00:00:00 7.35833 C 6.18 g/m*3 6.74 C 5.06667 km/h
2264 12-03-2014 01:00:00 6.80833 C 6.22 g/m*3 5.97 C 5.46667 km/h
2265 12-03-2014 02:00:00 6.33333 C 6.26 g/m*3 5.34 C 5.75 km/h
2266 12-03-2014 03:00:00 5.60833 C 6.16 g/m*3 4.75 C 5.06667 km/h
2267 12-03-2014 04:00:00 4.55833 C 5.92 g/m*3 4.56 C 1.46667 km/h
2268 12-03-2014 05:00:00 3.775 C 5.74 g/m*3 3.78 C 0.4 km/h
2269 12-03-2014 06:00:00 2.975 C 5.54 g/m*3 2.98 C 0.13333 km/h
2270 12-03-2014 07:00:00 2.66667 C 5.5 g/m*3 2.67 C 0 km/h
2271 12-03-2014 08:00:00 3 C 5.66 g/m*3 3 C 0.26667 km/h
2272 12-03-2014 09:00:00 4.30833 C 6.25 g/m*3 4.31 C 0 km/h
2273 12-03-2014 10:00:00 7.23333 C 7.3 g/m*3 7.23 C 0.13333 km/h
2274 12-03-2014 11:00:00 10.46667 C 7.41 g/m*3 10.47 C 2.93333 km/h
2275 12-03-2014 12:00:00 14.89167 C 7.54 g/m*3 14.89 C 4.275 km/h
Sensor: Nr:Datum:Temp:Abs-Feuchte:Windchill:Wind:
Aussen-T/F 2276 12-03-2014 13:00:00 17.175 C 6.9 g/m*3 17.18 C 5.34167 km/h
2277 12-03-2014 14:00:00 17.64167 C 6.54 g/m*3 17.64 C 6.15 km/h
2278 12-03-2014 15:00:00 18.89167 C 6.09 g/m*3 18.89 C 6.55833 km/h
2279 12-03-2014 16:00:00 17.50833 C 6.22 g/m*3 17.51 C 3.60833 km/h
2280 12-03-2014 17:00:00 15.11667 C 6.8 g/m*3 15.12 C 4.8 km/h
2281 12-03-2014 18:00:00 12.40833 C 6.46 g/m*3 12.41 C 7.10833 km/h
2282 12-03-2014 19:00:00 10.525 C 6.47 g/m*3 10.04 C 6.15833 km/h
2283 12-03-2014 20:00:00 9.08333 C 6.35 g/m*3 9.08 C 3.73333 km/h
2284 12-03-2014 21:00:00 7.7 C 6.2 g/m*3 7.7 C 0.93333 km/h
2285 12-03-2014 22:00:00 6.33333 C 5.94 g/m*3 6.33 C 0.13333 km/h
2286 12-03-2014 23:00:00 5.50833 C 5.82 g/m*3 5.51 C 0 km/h
2287 13-03-2014 00:00:00 4.44167 C 5.64 g/m*3 4.44 C 0 km/h
2288 13-03-2014 01:00:00 4.11667 C 5.6 g/m*3 4.12 C 0.53333 km/h
2289 13-03-2014 02:00:00 3.56667 C 5.46 g/m*3 3.57 C 0.26667 km/h
2290 13-03-2014 03:00:00 3 C 5.33 g/m*3 3 C 0.4 km/h
2291 13-03-2014 04:00:00 2.325 C 5.16 g/m*3 2.33 C 0.13333 km/h
2292 13-03-2014 05:00:00 1.74167 C 5.04 g/m*3 1.74 C 0.13333 km/h
2293 13-03-2014 06:00:00 1.28333 C 4.93 g/m*3 1.28 C 0.4 km/h
2294 13-03-2014 07:00:00 1.05 C 4.9 g/m*3 1.05 C 0.4 km/h
2295 13-03-2014 08:00:00 1.64167 C 5.13 g/m*3 1.64 C 0 km/h
2296 13-03-2014 09:00:00 3.00833 C 5.56 g/m*3 3.01 C 0 km/h
2297 13-03-2014 10:00:00 5.69167 C 6.33 g/m*3 5.69 C 0 km/h
2298 13-03-2014 11:00:00 8.54167 C 7.02 g/m*3 8.54 C 0.53333 km/h
2299 13-03-2014 12:00:00 13.825 C 7.66 g/m*3 13.83 C 3.46667 km/h
2300 13-03-2014 13:00:00 17.35 C 7.46 g/m*3 17.35 C 2.66667 km/h
Sensor: Nr:Datum:Temp:Abs-Feuchte:Windchill:Wind:
Aussen-T/F 2301 13-03-2014 14:00:00 17.55 C 6.62 g/m*3 17.55 C 2.4 km/h
2302 13-03-2014 15:00:00 18.63333 C 6.35 g/m*3 18.63 C 5.50833 km/h
2303 13-03-2014 16:00:00 18.66667 C 5.55 g/m*3 18.67 C 6.83333 km/h
2304 13-03-2014 17:00:00 17.79167 C 5.3 g/m*3 17.79 C 7.39167 km/h
2305 13-03-2014 18:00:00 12.93333 C 6.15 g/m*3 12.93 C 5.225 km/h
2306 13-03-2014 19:00:00 10.64167 C 5.9 g/m*3 10.24 C 5.88333 km/h
2307 13-03-2014 20:00:00 8.79167 C 5.93 g/m*3 8.79 C 1.73333 km/h
2308 13-03-2014 21:00:00 7.44167 C 5.79 g/m*3 7.44 C 0.53333 km/h
2309 13-03-2014 22:00:00 6.16667 C 5.67 g/m*3 6.17 C 0 km/h
2310 13-03-2014 23:00:00 5.64167 C 5.58 g/m*3 5.64 C 0.26667 km/h
2311 14-03-2014 00:00:00 5.01667 C 5.49 g/m*3 5.02 C 0.66667 km/h
2312 14-03-2014 01:00:00 4.25833 C 5.39 g/m*3 4.26 C 0.4 km/h
2313 14-03-2014 02:00:00 3.49167 C 5.23 g/m*3 3.49 C 0.53333 km/h
2314 14-03-2014 03:00:00 2.64167 C 5.12 g/m*3 2.64 C 0.93333 km/h
2315 14-03-2014 04:00:00 2.00833 C 4.99 g/m*3 2.01 C 0 km/h
2316 14-03-2014 05:00:00 1.65833 C 4.96 g/m*3 1.66 C 0.93333 km/h
2317 14-03-2014 06:00:00 1.25833 C 4.85 g/m*3 1.26 C 1.06667 km/h
2318 14-03-2014 07:00:00 1.05833 C 4.84 g/m*3 1.06 C 0.4 km/h
2319 14-03-2014 08:00:00 1.475 C 5.03 g/m*3 1.48 C 0.26667 km/h
2320 14-03-2014 09:00:00 3.04167 C 5.54 g/m*3 3.04 C 0 km/h
2321 14-03-2014 10:00:00 6.05 C 6.26 g/m*3 6.05 C 0 km/h
2322 14-03-2014 11:00:00 9.03333 C 6.86 g/m*3 9.03 C 2 km/h
2323 14-03-2014 12:00:00 13.40833 C 7.69 g/m*3 13.41 C 2.8 km/h
2324 14-03-2014 13:00:00 15.81667 C 7.42 g/m*3 15.82 C 3.6 km/h
2325 14-03-2014 14:00:00 16.28333 C 6.78 g/m*3 16.28 C 4.26667 km/h
Sensor: Nr:Datum:Temp:Abs-Feuchte:Windchill:Wind:
Aussen-T/F 2326 14-03-2014 15:00:00 17.44167 C 6.61 g/m*3 17.44 C 3.2 km/h
2327 14-03-2014 16:00:00 17.06667 C 6.44 g/m*3 17.07 C 4 km/h
2328 14-03-2014 17:00:00 14.5 C 7.55 g/m*3 14.5 C 2.26667 km/h
2329 14-03-2014 18:00:00 12.15833 C 7.32 g/m*3 12.16 C 5.2 km/h
2330 14-03-2014 19:00:00 10.28333 C 7.12 g/m*3 10.28 C 4.13333 km/h
2331 14-03-2014 20:00:00 9.50833 C 7.16 g/m*3 9.51 C 3.60833 km/h
2332 14-03-2014 21:00:00 8.33333 C 6.93 g/m*3 8.33 C 1.86667 km/h
2333 14-03-2014 22:00:00 7 C 6.65 g/m*3 7 C 1.46667 km/h
2334 14-03-2014 23:00:00 7.275 C 6.56 g/m*3 7.28 C 3.73333 km/h
2335 15-03-2014 00:00:00 6.80833 C 6.38 g/m*3 5.92 C 5.61667 km/h
2336 15-03-2014 01:00:00 7.175 C 6.39 g/m*3 6.06 C 6.56667 km/h
2337 15-03-2014 02:00:00 7.23333 C 6.34 g/m*3 6.2 C 6.3 km/h
2338 15-03-2014 03:00:00 7.175 C 6.22 g/m*3 6.22 C 6.01667 km/h
2339 15-03-2014 04:00:00 7.675 C 6.28 g/m*3 7.04 C 5.21667 km/h
2340 15-03-2014 05:00:00 8.48333 C 6.57 g/m*3 7.88 C 5.5 km/h
2341 15-03-2014 06:00:00 9.2 C 7.03 g/m*3 8.33 C 6.84167 km/h
2342 15-03-2014 07:00:00 9.58333 C 7.16 g/m*3 7.99 C 10.875 km/h
2343 15-03-2014 08:00:00 9.21667 C 7.44 g/m*3 7.05 C 14.225 km/h
2344 15-03-2014 09:00:00 8.375 C 7.68 g/m*3 6.65 C 10.20833 km/h
2345 15-03-2014 10:00:00 8.525 C 7.65 g/m*3 6.53 C 11.95833 km/h
2346 15-03-2014 11:00:00 7.975 C 7.39 g/m*3 6.33 C 9.39167 km/h
2347 15-03-2014 12:00:00 8.51667 C 7.39 g/m*3 6.97 C 9.41667 km/h
2348 15-03-2014 13:00:00 9.88333 C 7.14 g/m*3 8.01 C 13.16667 km/h
2349 15-03-2014 14:00:00 10.36667 C 6.52 g/m*3 8.24 C 16.1 km/h
2350 15-03-2014 15:00:00 10.8 C 6.13 g/m*3 9.04 C 13.83333 km/h
Sensor: Nr:Datum:Temp:Abs-Feuchte:Windchill:Wind:
Aussen-T/F 2351 15-03-2014 16:00:00 10.65833 C 5.96 g/m*3 9.23 C 11.16667 km/h
2352 15-03-2014 17:00:00 10.46667 C 6.14 g/m*3 9.29 C 9.41667 km/h
2353 15-03-2014 18:00:00 10.1 C 6.4 g/m*3 9.51 C 6.28333 km/h
2354 15-03-2014 19:00:00 9.54167 C 6.79 g/m*3 8.97 C 5.89167 km/h
2355 15-03-2014 20:00:00 9.51667 C 6.87 g/m*3 8.37 C 8.33333 km/h
2356 15-03-2014 21:00:00 9.44167 C 6.92 g/m*3 7.77 C 11.15833 km/h
2357 15-03-2014 22:00:00 9.30833 C 6.97 g/m*3 7.91 C 9.43333 km/h
2358 15-03-2014 23:00:00 9.33333 C 6.98 g/m*3 8.02 C 9.00833 km/h
2359 16-03-2014 00:00:00 9.58333 C 7.02 g/m*3 7.7 C 12.76667 km/h
2360 16-03-2014 01:00:00 9.83333 C 7.11 g/m*3 7.82 C 14.1 km/h
2361 16-03-2014 02:00:00 9.70833 C 7.27 g/m*3 7.95 C 12.09167 km/h
2362 16-03-2014 03:00:00 9.875 C 7.36 g/m*3 8.23 C 11.55833 km/h
2363 16-03-2014 04:00:00 10.10833 C 7.51 g/m*3 8.77 C 9.95833 km/h
2364 16-03-2014 05:00:00 10.475 C 7.66 g/m*3 8.71 C 13.3 km/h
2365 16-03-2014 06:00:00 10.33333 C 7.72 g/m*3 8.78 C 11.56667 km/h
2366 16-03-2014 07:00:00 10.68333 C 7.85 g/m*3 9.22 C 11.43333 km/h
2367 16-03-2014 08:00:00 10.66667 C 7.84 g/m*3 9.15 C 11.83333 km/h
2368 16-03-2014 09:00:00 11 C 7.94 g/m*3 9.27 C 13.96667 km/h
2369 16-03-2014 10:00:00 11.38333 C 8.02 g/m*3 11.38 C 16.36667 km/h
2370 16-03-2014 11:00:00 12.95833 C 8.43 g/m*3 12.96 C 15.16667 km/h
2371 16-03-2014 12:00:00 14.74167 C 8.81 g/m*3 14.74 C 12.1 km/h
2372 16-03-2014 13:00:00 15.04167 C 8.92 g/m*3 15.04 C 9.925 km/h
2373 16-03-2014 14:00:00 15.125 C 8.8 g/m*3 15.13 C 13.56667 km/h
2374 16-03-2014 15:00:00 15.5 C 8.8 g/m*3 15.5 C 17.03333 km/h
2375 16-03-2014 16:00:00 14.69167 C 8.59 g/m*3 14.69 C 16.375 km/h
Sensor: Nr:Datum:Temp:Abs-Feuchte:Windchill:Wind:
Aussen-T/F 2376 16-03-2014 17:00:00 14.725 C 8.7 g/m*3 14.73 C 12.23333 km/h
2377 16-03-2014 18:00:00 13.125 C 8.37 g/m*3 13.13 C 4.4 km/h
2378 16-03-2014 19:00:00 10.25 C 7.92 g/m*3 10.25 C 3.86667 km/h
2379 16-03-2014 20:00:00 9.55 C 7.83 g/m*3 9.55 C 3.73333 km/h
2380 16-03-2014 21:00:00 9.40833 C 7.76 g/m*3 9.41 C 3.2 km/h
2381 16-03-2014 22:00:00 9.55833 C 7.72 g/m*3 9.56 C 4.68333 km/h
2382 16-03-2014 23:00:00 7.79167 C 7.24 g/m*3 7.79 C 1.73333 km/h
2383 17-03-2014 00:00:00 7.09167 C 7.09 g/m*3 7.09 C 0.93333 km/h
2384 17-03-2014 01:00:00 7.13333 C 7.13 g/m*3 6.43 C 5.21667 km/h
2385 17-03-2014 02:00:00 7.08333 C 7.13 g/m*3 5.63 C 7.8 km/h
2386 17-03-2014 03:00:00 7.475 C 7.28 g/m*3 6.02 C 8.075 km/h
2387 17-03-2014 04:00:00 7.90833 C 7.39 g/m*3 6.66 C 7.525 km/h
2388 17-03-2014 05:00:00 8.23333 C 7.47 g/m*3 6.8 C 8.61667 km/h
2389 17-03-2014 06:00:00 8.31667 C 7.51 g/m*3 6.9 C 8.59167 km/h
2390 17-03-2014 07:00:00 8.73333 C 7.63 g/m*3 7.45 C 8.34167 km/h
2391 17-03-2014 08:00:00 9.225 C 7.78 g/m*3 8 C 8.48333 km/h
2392 17-03-2014 09:00:00 10 C 7.98 g/m*3 8.99 C 8.06667 km/h
2393 17-03-2014 10:00:00 11.125 C 8.17 g/m*3 11.13 C 9.29167 km/h
2394 17-03-2014 11:00:00 11.9 C 8.26 g/m*3 11.9 C 11.56667 km/h
2395 17-03-2014 12:00:00 12.66667 C 8.37 g/m*3 12.67 C 8.75 km/h
2396 17-03-2014 13:00:00 13.05 C 8.53 g/m*3 13.05 C 7.25 km/h
2397 17-03-2014 14:00:00 13.84167 C 8.46 g/m*3 13.84 C 9.68333 km/h
2398 17-03-2014 15:00:00 13.725 C 8.18 g/m*3 13.73 C 11.7 km/h
2399 17-03-2014 16:00:00 13.13333 C 7.92 g/m*3 13.13 C 8.05833 km/h
2400 17-03-2014 17:00:00 12.875 C 7.83 g/m*3 12.88 C 6.28333 km/h
Sensor: Nr:Datum:Temp:Abs-Feuchte:Windchill:Wind:
Aussen-T/F 2401 17-03-2014 18:00:00 12.28333 C 7.77 g/m*3 12.28 C 5.49167 km/h
2402 17-03-2014 19:00:00 11.225 C 7.7 g/m*3 11.23 C 1.06667 km/h
2403 17-03-2014 20:00:00 10.34167 C 7.68 g/m*3 10.34 C 1.73333 km/h
2404 17-03-2014 21:00:00 9.85833 C 7.71 g/m*3 9.86 C 1.33333 km/h
2405 17-03-2014 22:00:00 9.75833 C 7.7 g/m*3 9.76 C 2.4 km/h
2406 17-03-2014 23:00:00 9.70833 C 7.66 g/m*3 9.71 C 2.26667 km/h
2407 18-03-2014 00:00:00 8.375 C 7.31 g/m*3 8.38 C 0.93333 km/h
2408 18-03-2014 01:00:00 8.3 C 7.44 g/m*3 8.3 C 0.93333 km/h
2409 18-03-2014 02:00:00 8.69167 C 7.51 g/m*3 8.69 C 1.2 km/h
2410 18-03-2014 03:00:00 8.54167 C 7.44 g/m*3 8.54 C 2.26667 km/h
2411 18-03-2014 04:00:00 7.73333 C 7.22 g/m*3 7.73 C 1.2 km/h
2412 18-03-2014 05:00:00 7.53333 C 7.18 g/m*3 7.53 C 1.73333 km/h
2413 18-03-2014 06:00:00 7.65833 C 7.28 g/m*3 7.66 C 3.46667 km/h
2414 18-03-2014 07:00:00 7.98333 C 7.47 g/m*3 7.18 C 5.9 km/h
2415 18-03-2014 08:00:00 8.51667 C 7.62 g/m*3 7.65 C 6.43333 km/h
2416 18-03-2014 09:00:00 8.58333 C 7.69 g/m*3 7.48 C 7.39167 km/h
2417 18-03-2014 10:00:00 8.70833 C 7.62 g/m*3 6.61 C 12.9 km/h
2418 18-03-2014 11:00:00 8.56667 C 7.75 g/m*3 7.47 C 7.375 km/h
2419 18-03-2014 12:00:00 9.04167 C 7.92 g/m*3 7.6 C 9.40833 km/h
2420 18-03-2014 13:00:00 9.45833 C 7.89 g/m*3 8.7 C 6.56667 km/h
2421 18-03-2014 14:00:00 10.425 C 8 g/m*3 9.44 C 8.31667 km/h
2422 18-03-2014 15:00:00 11.24167 C 8.05 g/m*3 11.24 C 10.63333 km/h
2423 18-03-2014 16:00:00 11.38333 C 7.84 g/m*3 11.38 C 12.1 km/h
2424 18-03-2014 17:00:00 11.44167 C 7.79 g/m*3 11.44 C 6.95833 km/h
2425 18-03-2014 18:00:00 11.38333 C 7.73 g/m*3 11.38 C 11.425 km/h
Sensor: Nr:Datum:Temp:Abs-Feuchte:Windchill:Wind:
Aussen-T/F 2426 18-03-2014 19:00:00 11.26667 C 7.41 g/m*3 11.27 C 11.56667 km/h
2427 18-03-2014 20:00:00 10.84167 C 7.05 g/m*3 8.76 C 16.76667 km/h
2428 18-03-2014 21:00:00 10.44167 C 6.88 g/m*3 8.15 C 17.83333 km/h
2429 18-03-2014 22:00:00 9.775 C 7.07 g/m*3 8.01 C 12.23333 km/h
2430 18-03-2014 23:00:00 9.86667 C 7.17 g/m*3 7.95 C 13.43333 km/h
2431 19-03-2014 00:00:00 9.80833 C 7.38 g/m*3 7.99 C 12.625 km/h
2432 19-03-2014 01:00:00 9.75833 C 7.56 g/m*3 7.97 C 12.35833 km/h
2433 19-03-2014 02:00:00 9.63333 C 7.68 g/m*3 8.09 C 10.6 km/h
2434 19-03-2014 03:00:00 9.925 C 7.56 g/m*3 8.15 C 12.5 km/h
2435 19-03-2014 04:00:00 9.9 C 7.52 g/m*3 8.52 C 9.94167 km/h
2436 19-03-2014 05:00:00 9.975 C 7.48 g/m*3 8.29 C 11.96667 km/h
2437 19-03-2014 06:00:00 9.84167 C 7.49 g/m*3 8.57 C 9.26667 km/h
2438 19-03-2014 07:00:00 9.925 C 7.48 g/m*3 9.14 C 6.975 km/h
2439 19-03-2014 08:00:00 10.26667 C 7.57 g/m*3 8.81 C 10.88333 km/h
2440 19-03-2014 09:00:00 10.875 C 7.64 g/m*3 9.68 C 9.95833 km/h
2441 19-03-2014 10:00:00 11.88333 C 7.71 g/m*3 11.88 C 15.16667 km/h
2442 19-03-2014 11:00:00 13.14167 C 7.43 g/m*3 13.14 C 15.03333 km/h
2443 19-03-2014 12:00:00 14.28333 C 7.51 g/m*3 14.28 C 16.76667 km/h
2444 19-03-2014 13:00:00 15.74167 C 7.71 g/m*3 15.74 C 16.76667 km/h
2445 19-03-2014 14:00:00 15.84167 C 7.75 g/m*3 15.84 C 18.23333 km/h
2446 19-03-2014 15:00:00 16.575 C 7.62 g/m*3 16.58 C 16.23333 km/h
2447 19-03-2014 16:00:00 16.54167 C 7.53 g/m*3 16.54 C 13.56667 km/h
2448 19-03-2014 17:00:00 15.88333 C 7.76 g/m*3 15.88 C 13.3 km/h
2449 19-03-2014 18:00:00 14.56667 C 7.85 g/m*3 14.57 C 9.53333 km/h
2450 19-03-2014 19:00:00 13.35833 C 7.69 g/m*3 13.36 C 8.86667 km/h
Sensor: Nr:Datum:Temp:Abs-Feuchte:Windchill:Wind:
Aussen-T/F 2451 19-03-2014 20:00:00 12.35833 C 7.54 g/m*3 12.36 C 8.74167 km/h
2452 19-03-2014 21:00:00 12.08333 C 7.45 g/m*3 12.08 C 9.96667 km/h
2453 19-03-2014 22:00:00 11.675 C 7.39 g/m*3 11.68 C 11.425 km/h
2454 19-03-2014 23:00:00 11.05833 C 7.36 g/m*3 11.06 C 8.59167 km/h
2455 20-03-2014 00:00:00 10.21667 C 7.26 g/m*3 9.42 C 7.25 km/h
2456 20-03-2014 01:00:00 9.23333 C 7.14 g/m*3 8.82 C 5.21667 km/h
2457 20-03-2014 02:00:00 8.69167 C 7.04 g/m*3 7.96 C 6.025 km/h
2458 20-03-2014 03:00:00 7.71667 C 6.81 g/m*3 7.72 C 2.4 km/h
2459 20-03-2014 04:00:00 6.36667 C 6.59 g/m*3 6.37 C 1.46667 km/h
2460 20-03-2014 05:00:00 5.48333 C 6.34 g/m*3 5.48 C 1.2 km/h
2461 20-03-2014 06:00:00 4.775 C 6.18 g/m*3 4.78 C 0.53333 km/h
2462 20-03-2014 07:00:00 4.56667 C 6.19 g/m*3 4.57 C 0 km/h
2463 20-03-2014 08:00:00 5.225 C 6.49 g/m*3 5.23 C 0.53333 km/h
2464 20-03-2014 09:00:00 6.96667 C 7.15 g/m*3 6.97 C 1.86667 km/h
2465 20-03-2014 10:00:00 10.275 C 7.74 g/m*3 10.28 C 3.33333 km/h
2466 20-03-2014 11:00:00 14.79167 C 7.69 g/m*3 14.79 C 5.20833 km/h
2467 20-03-2014 12:00:00 18.85833 C 6.57 g/m*3 18.86 C 10.20833 km/h
2468 20-03-2014 13:00:00 19.83333 C 6.47 g/m*3 19.83 C 7.78333 km/h
2469 20-03-2014 14:00:00 20.29167 C 6.72 g/m*3 20.29 C 9 km/h
2470 20-03-2014 15:00:00 20.98333 C 6.91 g/m*3 20.98 C 5.61667 km/h
2471 20-03-2014 16:00:00 21.96667 C 6.57 g/m*3 21.97 C 8.60833 km/h
2472 20-03-2014 17:00:00 21.78889 C 6.2 g/m*3 21.79 C 7.52222 km/h
2473 20-03-2014 18:00:00 17.44167 C 6.97 g/m*3 17.44 C 4.93333 km/h
2474 20-03-2014 19:00:00 14.35 C 7.18 g/m*3 14.35 C 5.86667 km/h
2475 20-03-2014 20:00:00 13.8 C 7.37 g/m*3 13.8 C 5.06667 km/h
Sensor: Nr:Datum:Temp:Abs-Feuchte:Windchill:Wind:
Aussen-T/F 2476 20-03-2014 21:00:00 13.53333 C 7.54 g/m*3 13.53 C 3.86667 km/h
2477 20-03-2014 22:00:00 12.79167 C 7.61 g/m*3 12.79 C 4.26667 km/h
2478 20-03-2014 23:00:00 12.21667 C 7.68 g/m*3 12.22 C 2.8 km/h
2479 21-03-2014 00:00:00 11.66667 C 7.72 g/m*3 11.67 C 2.93333 km/h
2480 21-03-2014 01:00:00 10.79167 C 7.64 g/m*3 10.79 C 1.2 km/h
2481 21-03-2014 02:00:00 9.78333 C 7.45 g/m*3 9.78 C 2.8 km/h
2482 21-03-2014 03:00:00 12.85 C 7.95 g/m*3 12.85 C 10.85833 km/h
2483 21-03-2014 04:00:00 15.675 C 8.06 g/m*3 15.68 C 15.7 km/h
2484 21-03-2014 05:00:00 15.5 C 8.02 g/m*3 15.5 C 17.43333 km/h
2485 21-03-2014 06:00:00 15.31667 C 7.82 g/m*3 15.32 C 21.73333 km/h
2486 21-03-2014 07:00:00 15.3 C 7.94 g/m*3 15.3 C 23.46667 km/h
2487 21-03-2014 08:00:00 15.45 C 7.78 g/m*3 15.45 C 22.78333 km/h
2488 21-03-2014 09:00:00 15.725 C 7.49 g/m*3 15.73 C 25.075 km/h
2489 21-03-2014 10:00:00 16.00833 C 7.27 g/m*3 16.01 C 20.78333 km/h
2490 21-03-2014 11:00:00 16.88333 C 7.05 g/m*3 16.88 C 21.44167 km/h
2491 21-03-2014 12:00:00 16.70833 C 7.71 g/m*3 16.71 C 21.43333 km/h
2492 21-03-2014 13:00:00 15.81667 C 7.87 g/m*3 15.82 C 19.975 km/h
2493 21-03-2014 14:00:00 14.88333 C 8.24 g/m*3 14.88 C 19.03333 km/h
2494 21-03-2014 15:00:00 14.375 C 8.34 g/m*3 14.38 C 17.43333 km/h
2495 21-03-2014 16:00:00 13.78333 C 7.28 g/m*3 13.78 C 16.10833 km/h
2496 21-03-2014 17:00:00 12.08333 C 7.34 g/m*3 12.08 C 9 km/h
2497 21-03-2014 18:00:00 11.125 C 7.05 g/m*3 11.13 C 6.15833 km/h
2498 21-03-2014 19:00:00 9.93333 C 6.88 g/m*3 9.93 C 0.66667 km/h
2499 21-03-2014 20:00:00 9.19167 C 6.79 g/m*3 9.19 C 1.86667 km/h
2500 21-03-2014 21:00:00 8.91667 C 6.76 g/m*3 8.92 C 2.4 km/h
Sensor: Nr:Datum:Temp:Abs-Feuchte:Windchill:Wind:
Aussen-T/F 2501 21-03-2014 22:00:00 8.78333 C 6.95 g/m*3 8.78 C 0.93333 km/h
2502 21-03-2014 23:00:00 8.75 C 7.26 g/m*3 8.75 C 0.53333 km/h
2503 22-03-2014 00:00:00 8.575 C 7.34 g/m*3 8.57 C 1.33333 km/h
2504 22-03-2014 01:00:00 7.83333 C 7.29 g/m*3 7.83 C 1.2 km/h
2505 22-03-2014 02:00:00 7.76667 C 7.26 g/m*3 7.77 C 2.4 km/h
2506 22-03-2014 03:00:00 7.45 C 7.26 g/m*3 7.45 C 1.86667 km/h
2507 22-03-2014 04:00:00 8.21667 C 7.57 g/m*3 8.22 C 0.13333 km/h
2508 22-03-2014 05:00:00 8.3 C 7.55 g/m*3 8.3 C 0 km/h
2509 22-03-2014 06:00:00 8.45 C 7.78 g/m*3 8.45 C 1.6 km/h
2510 22-03-2014 07:00:00 8.475 C 7.86 g/m*3 8.48 C 1.6 km/h
2511 22-03-2014 08:00:00 9.74167 C 7.6 g/m*3 9.03 C 6.575 km/h
2512 22-03-2014 09:00:00 10.5 C 7.06 g/m*3 8.8 C 12.89167 km/h
2513 22-03-2014 10:00:00 11.01667 C 6.81 g/m*3 11.02 C 13.03333 km/h
2514 22-03-2014 11:00:00 11.06667 C 6.75 g/m*3 11.07 C 9 km/h
2515 22-03-2014 12:00:00 12.41667 C 6.93 g/m*3 12.42 C 11.95 km/h
2516 22-03-2014 13:00:00 12.95833 C 6.64 g/m*3 12.96 C 11.95833 km/h
2517 22-03-2014 14:00:00 12.51667 C 6.77 g/m*3 12.52 C 7.79167 km/h
2518 22-03-2014 15:00:00 10.475 C 7.69 g/m*3 9.02 C 11.14167 km/h
2519 22-03-2014 16:00:00 11.01667 C 7.38 g/m*3 11.02 C 12.49167 km/h
2520 22-03-2014 17:00:00 7.75 C 6.93 g/m*3 5.73 C 11.14167 km/h
2521 22-03-2014 18:00:00 6.24167 C 6.76 g/m*3 6.24 C 2.8 km/h
2522 22-03-2014 19:00:00 5.675 C 6.72 g/m*3 5.68 C 3.06667 km/h
2523 22-03-2014 20:00:00 5.75 C 6.73 g/m*3 5.75 C 2.53333 km/h
2524 22-03-2014 21:00:00 5.51667 C 6.6 g/m*3 5.52 C 2 km/h
2525 22-03-2014 22:00:00 4.89167 C 6.4 g/m*3 4.89 C 3.2 km/h
Sensor: Nr:Datum:Temp:Abs-Feuchte:Windchill:Wind:
Aussen-T/F 2526 22-03-2014 23:00:00 5.05 C 6.44 g/m*3 5.05 C 3.86667 km/h
2527 23-03-2014 00:00:00 4.64167 C 6.28 g/m*3 4.64 C 3.46667 km/h
2528 23-03-2014 01:00:00 4.73333 C 6.36 g/m*3 4.73 C 1.6 km/h
2529 23-03-2014 02:00:00 4.66667 C 6.33 g/m*3 4.67 C 1.06667 km/h
2530 23-03-2014 03:00:00 4.26667 C 6.21 g/m*3 4.27 C 0.26667 km/h
2531 23-03-2014 04:00:00 5.00833 C 6.49 g/m*3 5.01 C 3.21667 km/h
2532 23-03-2014 05:00:00 5.10833 C 6.32 g/m*3 5.11 C 2.4 km/h
2533 23-03-2014 06:00:00 4.06667 C 5.94 g/m*3 4.07 C 1.33333 km/h
2534 23-03-2014 07:00:00 3.99167 C 6 g/m*3 3.99 C 1.86667 km/h
2535 23-03-2014 08:00:00 5.25833 C 6.12 g/m*3 3.49 C 7.8 km/h
2536 23-03-2014 09:00:00 5.925 C 5.87 g/m*3 3.38 C 11.95833 km/h
2537 23-03-2014 10:00:00 6.96667 C 5.83 g/m*3 4.51 C 12.75833 km/h
2538 23-03-2014 11:00:00 7.13333 C 5.64 g/m*3 4.59 C 13.56667 km/h
2539 23-03-2014 12:00:00 8.25 C 5.59 g/m*3 5.68 C 15.56667 km/h
2540 23-03-2014 13:00:00 8.69167 C 5.46 g/m*3 6.26 C 15.3 km/h
2541 23-03-2014 14:00:00 8.89167 C 5.5 g/m*3 6.6 C 14.63333 km/h
2542 23-03-2014 15:00:00 8.84167 C 5.43 g/m*3 6.79 C 12.76667 km/h
2543 23-03-2014 16:00:00 8.73333 C 5.59 g/m*3 6.66 C 12.76667 km/h
2544 23-03-2014 17:00:00 8.41667 C 5.68 g/m*3 6.73 C 10.075 km/h
2545 23-03-2014 18:00:00 8.09167 C 5.93 g/m*3 8.09 C 2.53333 km/h
2546 23-03-2014 19:00:00 6.48333 C 5.91 g/m*3 6.48 C 2.53333 km/h
2547 23-03-2014 20:00:00 5.75 C 5.81 g/m*3 5.75 C 1.2 km/h
2548 23-03-2014 21:00:00 4.71667 C 5.62 g/m*3 4.72 C 2.93333 km/h
2549 23-03-2014 22:00:00 3.44167 C 5.42 g/m*3 3.44 C 2.13333 km/h
2550 23-03-2014 23:00:00 2.76667 C 5.35 g/m*3 2.77 C 0.66667 km/h
Sensor: Nr:Datum:Temp:Abs-Feuchte:Windchill:Wind:
Aussen-T/F 2551 24-03-2014 00:00:00 3.24167 C 5.43 g/m*3 3.24 C 1.73333 km/h
2552 24-03-2014 01:00:00 3.38333 C 5.42 g/m*3 3.38 C 4.3 km/h
2553 24-03-2014 02:00:00 3.14167 C 5.38 g/m*3 3.14 C 1.74167 km/h
2554 24-03-2014 03:00:00 3.05 C 5.37 g/m*3 3.05 C 0.4 km/h
2555 24-03-2014 04:00:00 3.35 C 5.38 g/m*3 3.35 C 1.6 km/h
2556 24-03-2014 05:00:00 3.21667 C 5.34 g/m*3 3.22 C 0.53333 km/h
2557 24-03-2014 06:00:00 3.03333 C 5.34 g/m*3 3.03 C 0.8 km/h
2558 24-03-2014 07:00:00 3.3 C 5.39 g/m*3 3.3 C 3.86667 km/h
2559 24-03-2014 08:00:00 4.14167 C 5.65 g/m*3 2.73 C 6.01667 km/h
2560 24-03-2014 09:00:00 4.78333 C 5.68 g/m*3 3.61 C 5.60833 km/h
2561 24-03-2014 10:00:00 5.48333 C 5.83 g/m*3 5.48 C 3.86667 km/h
2562 24-03-2014 11:00:00 6.875 C 6 g/m*3 6.18 C 5.08333 km/h
2563 24-03-2014 12:00:00 8.4 C 5.89 g/m*3 7.37 C 6.96667 km/h
2564 24-03-2014 13:00:00 9.425 C 5.89 g/m*3 8.23 C 8.475 km/h
2565 24-03-2014 14:00:00 9.925 C 5.62 g/m*3 8.5 C 10.225 km/h
2566 24-03-2014 15:00:00 9.075 C 5.71 g/m*3 7.61 C 9.54167 km/h
2567 24-03-2014 16:00:00 9.35 C 5.75 g/m*3 8.61 C 6.43333 km/h
2568 24-03-2014 17:00:00 9.18333 C 5.78 g/m*3 9.18 C 3.74167 km/h
2569 24-03-2014 18:00:00 6.20833 C 5.79 g/m*3 6.21 C 4 km/h
2570 24-03-2014 19:00:00 6.275 C 5.85 g/m*3 6.28 C 1.6 km/h
2571 24-03-2014 20:00:00 6.18333 C 5.89 g/m*3 6.18 C 2.675 km/h
2572 24-03-2014 21:00:00 4.41667 C 5.47 g/m*3 4.42 C 2.93333 km/h
2573 24-03-2014 22:00:00 3.31667 C 5.31 g/m*3 3.32 C 1.06667 km/h
2574 24-03-2014 23:00:00 2.21667 C 5.09 g/m*3 2.22 C 0 km/h
2575 25-03-2014 00:00:00 1.66667 C 4.99 g/m*3 1.67 C 0.13333 km/h
Sensor: Nr:Datum:Temp:Abs-Feuchte:Windchill:Wind:
Aussen-T/F 2576 25-03-2014 01:00:00 1.05833 C 4.84 g/m*3 1.06 C 0.66667 km/h
2577 25-03-2014 02:00:00 0.75833 C 4.79 g/m*3 0.76 C 0.26667 km/h
2578 25-03-2014 03:00:00 0.29167 C 4.67 g/m*3 0.29 C 0.26667 km/h
2579 25-03-2014 04:00:00 0.58333 C 4.82 g/m*3 0.58 C 0.26667 km/h
2580 25-03-2014 05:00:00 0.28333 C 4.73 g/m*3 0.28 C 0.66667 km/h
2581 25-03-2014 06:00:00 0.34167 C 4.76 g/m*3 0.34 C 0.8 km/h
2582 25-03-2014 07:00:00 0.76667 C 4.9 g/m*3 0.77 C 1.33333 km/h
2583 25-03-2014 08:00:00 1.23333 C 5.06 g/m*3 1.23 C 2.93333 km/h
2584 25-03-2014 09:00:00 2.39167 C 5.45 g/m*3 2.39 C 3.2 km/h
2585 25-03-2014 10:00:00 3.94167 C 5.72 g/m*3 3.94 C 1.6 km/h
2586 25-03-2014 11:00:00 6.825 C 6.19 g/m*3 6.83 C 4.68333 km/h
2587 25-03-2014 12:00:00 8.68333 C 5.9 g/m*3 8.23 C 5.08333 km/h
2588 25-03-2014 13:00:00 8.88333 C 5.74 g/m*3 8.88 C 3.73333 km/h
2589 25-03-2014 14:00:00 8.525 C 5.27 g/m*3 7.23 C 8.2 km/h
2590 25-03-2014 15:00:00 9.2 C 5.34 g/m*3 8.37 C 6.7 km/h
2591 25-03-2014 16:00:00 10.4 C 5.48 g/m*3 9.34 C 8.71667 km/h
2592 25-03-2014 17:00:00 9.88333 C 5.69 g/m*3 8.74 C 8.625 km/h
2593 25-03-2014 18:00:00 7.91667 C 5.54 g/m*3 7.32 C 5.20833 km/h
2594 25-03-2014 19:00:00 5.34167 C 5.18 g/m*3 4.11 C 6.00833 km/h
2595 25-03-2014 20:00:00 3.99167 C 5.18 g/m*3 3.99 C 3.86667 km/h
2596 25-03-2014 21:00:00 3.05833 C 5.09 g/m*3 3.06 C 2 km/h
2597 25-03-2014 22:00:00 2.35833 C 5.01 g/m*3 2.36 C 1.06667 km/h
2598 25-03-2014 23:00:00 1.51667 C 4.81 g/m*3 1.52 C 0.53333 km/h
2599 26-03-2014 00:00:00 0.88333 C 4.68 g/m*3 0.88 C 0 km/h
2600 26-03-2014 01:00:00 0.36667 C 4.58 g/m*3 0.37 C 0 km/h
Sensor: Nr:Datum:Temp:Abs-Feuchte:Windchill:Wind:
Aussen-T/F 2601 26-03-2014 02:00:00 0.10833 C 4.56 g/m*3 0.11 C 0 km/h
2602 26-03-2014 03:00:00 0.30833 C 4.64 g/m*3 0.31 C 0.13333 km/h
2603 26-03-2014 04:00:00 -0.24167 C 4.48 g/m*3 -0.24 C 0.13333 km/h
2604 26-03-2014 05:00:00 -0.54167 C 4.4 g/m*3 -0.54 C 0.13333 km/h
2605 26-03-2014 06:00:00 -0.76667 C 4.36 g/m*3 -0.77 C 0 km/h
2606 26-03-2014 07:00:00 -0.725 C 4.38 g/m*3 -0.73 C 0.26667 km/h
2607 26-03-2014 08:00:00 -0.01667 C 4.64 g/m*3 -0.02 C 0 km/h
2608 26-03-2014 09:00:00 1.76667 C 5.24 g/m*3 1.77 C 0 km/h
2609 26-03-2014 10:00:00 4.50833 C 5.74 g/m*3 4.51 C 0.93333 km/h
2610 26-03-2014 11:00:00 7.60833 C 5.86 g/m*3 7.61 C 4.675 km/h
2611 26-03-2014 12:00:00 10.36667 C 5.83 g/m*3 9.01 C 10.35 km/h
2612 26-03-2014 13:00:00 10.375 C 5.22 g/m*3 9.18 C 9.425 km/h
2613 26-03-2014 14:00:00 11.20833 C 4.91 g/m*3 11.21 C 9.54167 km/h
2614 26-03-2014 15:00:00 11.55833 C 4.81 g/m*3 11.56 C 6.025 km/h
2615 26-03-2014 16:00:00 10.24167 C 5.16 g/m*3 10.24 C 4.66667 km/h
2616 26-03-2014 17:00:00 10.80833 C 4.99 g/m*3 10.81 C 4.675 km/h
2617 26-03-2014 18:00:00 8.30833 C 5.24 g/m*3 8.31 C 3.74167 km/h
2618 26-03-2014 19:00:00 5.85 C 5.38 g/m*3 5.85 C 4.53333 km/h
2619 26-03-2014 20:00:00 4.58333 C 5.31 g/m*3 4.58 C 2.8 km/h
2620 26-03-2014 21:00:00 4.36667 C 5.41 g/m*3 4.37 C 1.2 km/h
2621 26-03-2014 22:00:00 4.38333 C 5.55 g/m*3 4.38 C 0.53333 km/h
2622 26-03-2014 23:00:00 4.15 C 5.87 g/m*3 4.15 C 1.73333 km/h
2623 27-03-2014 00:00:00 4.175 C 6.01 g/m*3 4.18 C 0.13333 km/h
2624 27-03-2014 01:00:00 4.14167 C 5.97 g/m*3 4.14 C 0.53333 km/h
2625 27-03-2014 02:00:00 3.79167 C 5.83 g/m*3 3.79 C 0.4 km/h
Sensor: Nr:Datum:Temp:Abs-Feuchte:Windchill:Wind:
Aussen-T/F 2626 27-03-2014 03:00:00 3.375 C 5.61 g/m*3 3.38 C 1.46667 km/h
2627 27-03-2014 04:00:00 2.5 C 5.3 g/m*3 2.5 C 2 km/h
2628 27-03-2014 05:00:00 1.89167 C 5.14 g/m*3 1.89 C 0.4 km/h
2629 27-03-2014 06:00:00 1.46667 C 5.04 g/m*3 1.47 C 0 km/h
2630 27-03-2014 07:00:00 2.06667 C 5.24 g/m*3 2.07 C 1.6 km/h
2631 27-03-2014 08:00:00 3.1 C 5.52 g/m*3 3.1 C 2.4 km/h
2632 27-03-2014 09:00:00 5.325 C 6.05 g/m*3 3.72 C 7.24167 km/h
2633 27-03-2014 10:00:00 8.2 C 6.24 g/m*3 7.29 C 6.4 km/h
2634 27-03-2014 11:00:00 10.825 C 6.15 g/m*3 9.42 C 11.3 km/h
2635 27-03-2014 12:00:00 13.6 C 6.38 g/m*3 13.6 C 13.03333 km/h
2636 27-03-2014 13:00:00 14.70833 C 6.29 g/m*3 14.71 C 11.96667 km/h
2637 27-03-2014 14:00:00 15.35 C 5.91 g/m*3 15.35 C 11.425 km/h
2638 27-03-2014 15:00:00 15.80833 C 5.8 g/m*3 15.81 C 10.89167 km/h
2639 27-03-2014 16:00:00 15.71667 C 5.79 g/m*3 15.72 C 9.81667 km/h
2640 27-03-2014 17:00:00 15.73333 C 5.7 g/m*3 15.73 C 5.63333 km/h
2641 27-03-2014 18:00:00 12 C 6.05 g/m*3 12 C 5.35 km/h
2642 27-03-2014 19:00:00 9.51667 C 6.07 g/m*3 8.64 C 7.10833 km/h
2643 27-03-2014 20:00:00 8.625 C 6.3 g/m*3 7.85 C 6.13333 km/h
2644 27-03-2014 21:00:00 8.01667 C 6.35 g/m*3 7.35 C 5.46667 km/h
2645 27-03-2014 22:00:00 7.625 C 6.39 g/m*3 7.04 C 5.06667 km/h
2646 27-03-2014 23:00:00 7.99167 C 6.37 g/m*3 7.99 C 4.53333 km/h
2647 28-03-2014 00:00:00 7.24167 C 6.22 g/m*3 7.24 C 4.66667 km/h
2648 28-03-2014 01:00:00 6.525 C 6.07 g/m*3 6.53 C 4.53333 km/h
2649 28-03-2014 02:00:00 5.825 C 5.98 g/m*3 4.9 C 5.33333 km/h
2650 28-03-2014 03:00:00 5.40833 C 5.93 g/m*3 5.41 C 4.53333 km/h
Sensor: Nr:Datum:Temp:Abs-Feuchte:Windchill:Wind:
Aussen-T/F 2651 28-03-2014 04:00:00 4.83333 C 5.85 g/m*3 4.83 C 3.46667 km/h
2652 28-03-2014 05:00:00 4.1 C 5.66 g/m*3 4.1 C 1.06667 km/h
2653 28-03-2014 06:00:00 3.5 C 5.51 g/m*3 3.5 C 0.13333 km/h
2654 28-03-2014 07:00:00 3.66667 C 5.71 g/m*3 3.67 C 0.26667 km/h
2655 28-03-2014 08:00:00 5.26667 C 6.16 g/m*3 5.27 C 3.73333 km/h
2656 28-03-2014 09:00:00 8.20833 C 6.61 g/m*3 8.21 C 3.2 km/h
2657 28-03-2014 10:00:00 11.275 C 6.73 g/m*3 11.28 C 6.16667 km/h
2658 28-03-2014 11:00:00 13.61667 C 6.84 g/m*3 13.62 C 6.03333 km/h
2659 28-03-2014 12:00:00 15.75 C 6.92 g/m*3 15.75 C 6.70833 km/h
2660 28-03-2014 13:00:00 17.85 C 6.63 g/m*3 17.85 C 10.75 km/h
2661 28-03-2014 14:00:00 18.21667 C 6.09 g/m*3 18.22 C 11.025 km/h
2662 28-03-2014 15:00:00 18.79167 C 5.9 g/m*3 18.79 C 9.825 km/h
2663 28-03-2014 16:00:00 19.175 C 5.79 g/m*3 19.18 C 12.76667 km/h
2664 28-03-2014 17:00:00 16.79167 C 6.13 g/m*3 16.79 C 5.35833 km/h
2665 28-03-2014 18:00:00 13.78333 C 6.62 g/m*3 13.78 C 4.93333 km/h
2666 28-03-2014 19:00:00 13.15 C 6.31 g/m*3 13.15 C 4.81667 km/h
2667 28-03-2014 20:00:00 12.1 C 6.04 g/m*3 12.1 C 8.85833 km/h
2668 28-03-2014 21:00:00 10.96667 C 6.05 g/m*3 9.91 C 9.26667 km/h
2669 28-03-2014 22:00:00 10.1 C 6.26 g/m*3 8.81 C 9.675 km/h
2670 28-03-2014 23:00:00 8.49167 C 6.29 g/m*3 8.49 C 3.73333 km/h
2671 29-03-2014 00:00:00 6.69167 C 6.18 g/m*3 6.69 C 3.6 km/h
2672 29-03-2014 01:00:00 5.93333 C 6.14 g/m*3 5.93 C 4.13333 km/h
2673 29-03-2014 02:00:00 5.5 C 6.12 g/m*3 5.5 C 3.46667 km/h
2674 29-03-2014 03:00:00 5.025 C 6.03 g/m*3 5.03 C 3.6 km/h
2675 29-03-2014 04:00:00 4.33333 C 5.89 g/m*3 4.33 C 0.93333 km/h
Sensor: Nr:Datum:Temp:Abs-Feuchte:Windchill:Wind:
Aussen-T/F 2676 29-03-2014 05:00:00 3.7 C 5.72 g/m*3 3.7 C 0 km/h
2677 29-03-2014 06:00:00 3.15 C 5.6 g/m*3 3.15 C 0 km/h
2678 29-03-2014 07:00:00 3.18333 C 5.66 g/m*3 3.18 C 0 km/h
2679 29-03-2014 08:00:00 4.1 C 6.06 g/m*3 4.1 C 0 km/h
2680 29-03-2014 09:00:00 6.75 C 6.94 g/m*3 6.75 C 2.8 km/h
2681 29-03-2014 10:00:00 10.55833 C 7.46 g/m*3 9.97 C 6.56667 km/h
2682 29-03-2014 11:00:00 14.25833 C 7.57 g/m*3 14.26 C 8.49167 km/h
2683 29-03-2014 12:00:00 17.34167 C 7.75 g/m*3 17.34 C 10.63333 km/h
2684 29-03-2014 13:00:00 18.58333 C 7.58 g/m*3 18.58 C 10.35833 km/h
2685 29-03-2014 14:00:00 19.66667 C 6.86 g/m*3 19.67 C 8.2 km/h
2686 29-03-2014 15:00:00 20.26667 C 6.01 g/m*3 20.27 C 10.75833 km/h
2687 29-03-2014 16:00:00 20.79167 C 5.66 g/m*3 20.79 C 8.46667 km/h
2688 29-03-2014 17:00:00 20.8 C 5.46 g/m*3 20.8 C 7.14286 km/h
2689 29-03-2014 18:00:00 14.1 C 6.55 g/m*3 14.1 C 8.1 km/h
2690 29-03-2014 19:00:00 12.84167 C 6.2 g/m*3 12.84 C 5.875 km/h
2691 29-03-2014 20:00:00 11.575 C 6.54 g/m*3 11.58 C 3.33333 km/h
2692 29-03-2014 21:00:00 10.375 C 6.63 g/m*3 10.38 C 0.4 km/h
2693 29-03-2014 22:00:00 8.99167 C 6.37 g/m*3 8.99 C 0 km/h
2694 29-03-2014 23:00:00 7.66667 C 6.17 g/m*3 7.67 C 0.26667 km/h
2695 30-03-2014 00:00:00 6.86667 C 6.11 g/m*3 6.87 C 0.8 km/h
2696 30-03-2014 01:00:00 6.1 C 5.98 g/m*3 6.1 C 0.26667 km/h
2697 30-03-2014 02:00:00 5.00833 C 5.84 g/m*3 5.01 C 0.13333 km/h
2698 30-03-2014 04:00:00 4.35833 C 5.72 g/m*3 4.36 C 0 km/h
2699 30-03-2014 05:00:00 3.75833 C 5.61 g/m*3 3.76 C 0.13333 km/h
2700 30-03-2014 06:00:00 3.28333 C 5.53 g/m*3 3.28 C 0 km/h
Sensor: Nr:Datum:Temp:Abs-Feuchte:Windchill:Wind:
Aussen-T/F 2701 30-03-2014 07:00:00 2.91667 C 5.48 g/m*3 2.92 C 0.13333 km/h
2702 30-03-2014 08:00:00 3.375 C 5.66 g/m*3 3.38 C 0.4 km/h
2703 30-03-2014 09:00:00 4.04286 C 5.93 g/m*3 4.04 C 0.22857 km/h
2704 30-03-2014 10:00:00 7.47 C 6.75 g/m*3 7.47 C 0.48 km/h
2705 30-03-2014 11:00:00 10.175 C 7.24 g/m*3 10.18 C 0.66667 km/h
2706 30-03-2014 12:00:00 13.90833 C 7.96 g/m*3 13.91 C 2.4 km/h
2707 30-03-2014 13:00:00 18.48333 C 8.67 g/m*3 18.48 C 3.86667 km/h
2708 30-03-2014 14:00:00 20.73333 C 7.34 g/m*3 20.73 C 7.23333 km/h
2709 30-03-2014 15:00:00 20.74 C 6.86 g/m*3 20.74 C 3.52 km/h
2710 30-03-2014 20:00:00 13.97 C 7.45 g/m*3 13.97 C 3.04 km/h
2711 30-03-2014 21:00:00 12.46 C 7.48 g/m*3 12.46 C 0.48 km/h
2712 30-03-2014 22:00:00 11.59167 C 7.23 g/m*3 11.59 C 0.13333 km/h
2713 30-03-2014 23:00:00 10.425 C 7.17 g/m*3 10.43 C 0 km/h
2714 31-03-2014 00:00:00 9.775 C 7.07 g/m*3 9.78 C 0.4 km/h
2715 31-03-2014 01:00:00 8.83333 C 7 g/m*3 8.83 C 0.53333 km/h
2716 31-03-2014 02:00:00 8.325 C 6.96 g/m*3 8.32 C 0.4 km/h
2717 31-03-2014 03:00:00 8.06667 C 6.95 g/m*3 8.07 C 0.26667 km/h
2718 31-03-2014 04:00:00 7.525 C 6.87 g/m*3 7.53 C 0 km/h
2719 31-03-2014 05:00:00 7.09167 C 6.84 g/m*3 7.09 C 0.13333 km/h
2720 31-03-2014 06:00:00 6.71667 C 6.71 g/m*3 6.72 C 0 km/h
2721 31-03-2014 07:00:00 6.225 C 6.62 g/m*3 6.23 C 0 km/h
2722 31-03-2014 08:00:00 6.6 C 6.85 g/m*3 6.6 C 0 km/h
2723 31-03-2014 09:00:00 7.74167 C 7.15 g/m*3 7.74 C 0.66667 km/h
2724 31-03-2014 10:00:00 9.29167 C 7.45 g/m*3 9.29 C 0.26667 km/h
2725 31-03-2014 11:00:00 11.4 C 7.89 g/m*3 11.4 C 1.6 km/h
Sensor: Nr:Datum:Temp:Abs-Feuchte:Windchill:Wind:
Aussen-T/F 2726 31-03-2014 12:00:00 14.65 C 8.39 g/m*3 14.65 C 3.86667 km/h
2727 31-03-2014 13:00:00 17.93333 C 8.49 g/m*3 17.93 C 3.2 km/h
2728 31-03-2014 14:00:00 20.25833 C 7.22 g/m*3 20.26 C 4.53333 km/h
2729 31-03-2014 15:00:00 22.14167 C 4.83 g/m*3 22.14 C 6.83333 km/h
2730 31-03-2014 16:00:00 22.95 C 5.79 g/m*3 22.95 C 9.68333 km/h
2731 31-03-2014 17:00:00 22.94167 C 5.8 g/m*3 22.94 C 8.475 km/h
2732 31-03-2014 18:00:00 21.44167 C 6.14 g/m*3 21.44 C 3.2 km/h
2733 31-03-2014 19:00:00 17.40833 C 6.49 g/m*3 17.41 C 5.2 km/h
2734 31-03-2014 20:00:00 15.14167 C 6.14 g/m*3 15.14 C 5.6 km/h
2735 31-03-2014 21:00:00 14.075 C 7.35 g/m*3 14.08 C 3.73333 km/h
2736 31-03-2014 22:00:00 12.625 C 7.7 g/m*3 12.63 C 0.26667 km/h
2737 31-03-2014 23:00:00 12.01667 C 7.45 g/m*3 12.02 C 0.53333 km/h
2738 01-04-2014 00:00:00 10.94167 C 7.4 g/m*3 10.94 C 0.8 km/h
2739 01-04-2014 01:00:00 10.78333 C 7.49 g/m*3 10.78 C 0.8 km/h
2740 01-04-2014 02:00:00 10.525 C 7.55 g/m*3 10.53 C 0.26667 km/h
2741 01-04-2014 03:00:00 9.56667 C 7.34 g/m*3 9.57 C 0.26667 km/h
2742 01-04-2014 04:00:00 9.04167 C 7.22 g/m*3 9.04 C 0.13333 km/h
2743 01-04-2014 05:00:00 8.53333 C 7.14 g/m*3 8.53 C 0 km/h
2744 01-04-2014 06:00:00 8.00833 C 7 g/m*3 8.01 C 0.13333 km/h
2745 01-04-2014 07:00:00 7.65833 C 6.99 g/m*3 7.66 C 0.26667 km/h
2746 01-04-2014 08:00:00 8.38333 C 7.37 g/m*3 8.38 C 0.13333 km/h
2747 01-04-2014 09:00:00 9.8 C 7.69 g/m*3 9.8 C 0.13333 km/h
2748 01-04-2014 10:00:00 11.6 C 8.03 g/m*3 11.6 C 0 km/h
2749 01-04-2014 11:00:00 14.09167 C 8.27 g/m*3 14.09 C 0.26667 km/h
2750 01-04-2014 12:00:00 17.36667 C 8.31 g/m*3 17.37 C 0.93333 km/h
Sensor: Nr:Datum:Temp:Abs-Feuchte:Windchill:Wind:
Aussen-T/F 2751 01-04-2014 13:00:00 21.06667 C 8.6 g/m*3 21.07 C 3.2 km/h
2752 01-04-2014 14:00:00 22.1 C 7.78 g/m*3 22.1 C 5.06667 km/h
2753 01-04-2014 15:00:00 21.95833 C 7.44 g/m*3 21.96 C 4.425 km/h
2754 01-04-2014 16:00:00 23.06667 C 7.24 g/m*3 23.07 C 5.35833 km/h
2755 01-04-2014 17:00:00 22.76 C 6.89 g/m*3 22.76 C 7.76 km/h
2756 01-04-2014 19:00:00 17.84286 C 8.65 g/m*3 17.84 C 5.25714 km/h
2757 01-04-2014 20:00:00 17 C 8.69 g/m*3 17 C 4.13333 km/h
2758 01-04-2014 21:00:00 15.3 C 9.15 g/m*3 15.3 C 3.68 km/h
2759 01-04-2014 22:00:00 13.91667 C 8.02 g/m*3 13.92 C 2.4 km/h
2760 01-04-2014 23:00:00 12.70833 C 7.86 g/m*3 12.71 C 1.33333 km/h
2761 02-04-2014 00:00:00 11.51667 C 7.59 g/m*3 11.52 C 0 km/h
2762 02-04-2014 01:00:00 10.63333 C 7.48 g/m*3 10.63 C 1.06667 km/h
2763 02-04-2014 02:00:00 9.41667 C 7.3 g/m*3 9.42 C 0.13333 km/h
2764 02-04-2014 03:00:00 8.75833 C 7.16 g/m*3 8.76 C 0.26667 km/h
2765 02-04-2014 04:00:00 7.96667 C 7.05 g/m*3 7.97 C 0.26667 km/h
2766 02-04-2014 05:00:00 7.28333 C 6.89 g/m*3 7.28 C 0.26667 km/h
2767 02-04-2014 06:00:00 6.60833 C 6.78 g/m*3 6.61 C 0.26667 km/h
2768 02-04-2014 07:00:00 6.78333 C 6.88 g/m*3 6.78 C 0.13333 km/h
2769 02-04-2014 08:00:00 7.00833 C 7 g/m*3 7.01 C 1.06667 km/h
2770 02-04-2014 09:00:00 8.04167 C 7.36 g/m*3 8.04 C 0.13333 km/h
2771 02-04-2014 10:00:00 10.375 C 7.99 g/m*3 10.38 C 0.26667 km/h
2772 02-04-2014 11:00:00 13.45833 C 8.76 g/m*3 13.46 C 0.93333 km/h
2773 02-04-2014 12:00:00 17.03636 C 8.96 g/m*3 17.04 C 4.52727 km/h
2774 02-04-2014 13:00:00 20.98889 C 8.75 g/m*3 20.99 C 8.41111 km/h
2775 02-04-2014 14:00:00 22.40833 C 7.93 g/m*3 22.41 C 12.49167 km/h
Sensor: Nr:Datum:Temp:Abs-Feuchte:Windchill:Wind:
Aussen-T/F 2776 02-04-2014 15:00:00 22.66667 C 7.86 g/m*3 22.67 C 12.1 km/h
2777 02-04-2014 16:00:00 23.2 C 7.78 g/m*3 23.2 C 9.525 km/h
2778 02-04-2014 17:00:00 23.36667 C 7.63 g/m*3 23.37 C 8.86667 km/h
2779 02-04-2014 18:00:00 22.54167 C 8.08 g/m*3 22.54 C 6.96667 km/h
2780 02-04-2014 19:00:00 18.53333 C 9.1 g/m*3 18.53 C 2.8 km/h
2781 02-04-2014 20:00:00 15.90833 C 8.9 g/m*3 15.91 C 3.86667 km/h
2782 02-04-2014 21:00:00 14.90833 C 8.88 g/m*3 14.91 C 2.8 km/h
2783 02-04-2014 22:00:00 13.64167 C 8.79 g/m*3 13.64 C 0.8 km/h
2784 02-04-2014 23:00:00 12.69167 C 8.54 g/m*3 12.69 C 0.4 km/h
2785 03-04-2014 00:00:00 11.5 C 8.33 g/m*3 11.5 C 0 km/h
2786 03-04-2014 01:00:00 11.39167 C 8.38 g/m*3 11.39 C 1.33333 km/h
2787 03-04-2014 02:00:00 10.91667 C 8.28 g/m*3 10.92 C 0.4 km/h
2788 03-04-2014 03:00:00 10.46667 C 8.23 g/m*3 10.47 C 0 km/h
2789 03-04-2014 04:00:00 9.51667 C 7.87 g/m*3 9.52 C 0 km/h
2790 03-04-2014 05:00:00 8.575 C 7.66 g/m*3 8.57 C 0.26667 km/h
2791 03-04-2014 06:00:00 8.21667 C 7.59 g/m*3 8.22 C 0.4 km/h
2792 03-04-2014 07:00:00 8.09167 C 7.63 g/m*3 8.09 C 0.26667 km/h
2793 03-04-2014 08:00:00 9.03333 C 8.03 g/m*3 9.03 C 0.26667 km/h
2794 03-04-2014 09:00:00 10.18333 C 8.29 g/m*3 10.18 C 0.13333 km/h
2795 03-04-2014 10:00:00 11.55833 C 8.63 g/m*3 11.56 C 1.33333 km/h
2796 03-04-2014 11:00:00 13.675 C 9.07 g/m*3 13.68 C 1.46667 km/h
2797 03-04-2014 12:00:00 17.08333 C 9.89 g/m*3 17.08 C 3.73333 km/h
2798 03-04-2014 13:00:00 20.50833 C 8.44 g/m*3 20.51 C 8.74167 km/h
2799 03-04-2014 14:00:00 21.35 C 8.26 g/m*3 21.35 C 7.5 km/h
2800 03-04-2014 18:00:00 20.4 C 9.02 g/m*3 20.4 C 1.6 km/h
Sensor: Nr:Datum:Temp:Abs-Feuchte:Windchill:Wind:
Aussen-T/F 2801 03-04-2014 19:00:00 19.575 C 9.14 g/m*3 19.58 C 3.6 km/h
2802 03-04-2014 20:00:00 16.14286 C 9.25 g/m*3 16.14 C 5.04286 km/h
2803 03-04-2014 21:00:00 15.4 C 8.58 g/m*3 15.4 C 2.66667 km/h
2804 03-04-2014 22:00:00 14.44167 C 8.66 g/m*3 14.44 C 0.93333 km/h
2805 03-04-2014 23:00:00 13.175 C 8.54 g/m*3 13.18 C 0 km/h
2806 04-04-2014 00:00:00 12.34167 C 8.45 g/m*3 12.34 C 0.13333 km/h
2807 04-04-2014 01:00:00 12.79167 C 8.67 g/m*3 12.79 C 1.6 km/h
2808 04-04-2014 02:00:00 12.76667 C 8.73 g/m*3 12.77 C 0.13333 km/h
2809 04-04-2014 03:00:00 12.31667 C 8.79 g/m*3 12.32 C 0.13333 km/h
2810 04-04-2014 04:00:00 12.1 C 8.83 g/m*3 12.1 C 0.26667 km/h
2811 04-04-2014 05:00:00 11.525 C 8.7 g/m*3 11.53 C 0.66667 km/h
2812 04-04-2014 06:00:00 11.3 C 8.72 g/m*3 11.3 C 0.4 km/h
2813 04-04-2014 07:00:00 11.225 C 8.72 g/m*3 11.23 C 0.66667 km/h
2814 04-04-2014 08:00:00 11.05 C 8.79 g/m*3 11.05 C 0 km/h
2815 04-04-2014 09:00:00 11.88333 C 9.07 g/m*3 11.88 C 0.26667 km/h
2816 04-04-2014 10:00:00 13.21667 C 9.37 g/m*3 13.22 C 0.66667 km/h
2817 04-04-2014 11:00:00 14.99167 C 9.87 g/m*3 14.99 C 2.4 km/h
2818 04-04-2014 12:00:00 16.99167 C 10.15 g/m*3 16.99 C 2.26667 km/h
2819 04-04-2014 13:00:00 18.975 C 10.29 g/m*3 18.98 C 3.20833 km/h
2820 04-04-2014 14:00:00 20.21667 C 9.9 g/m*3 20.22 C 6.425 km/h
2821 04-04-2014 15:00:00 20.58333 C 10.03 g/m*3 20.58 C 8.86667 km/h
2822 04-04-2014 16:00:00 20.39167 C 10.17 g/m*3 20.39 C 8.59167 km/h
2823 04-04-2014 17:00:00 20.22857 C 10.53 g/m*3 20.23 C 7.84286 km/h
2824 04-04-2014 18:00:00 19.27143 C 11.92 g/m*3 19.27 C 7.6 km/h
2825 04-04-2014 19:00:00 17.96667 C 9.66 g/m*3 17.97 C 10.08333 km/h
Sensor: Nr:Datum:Temp:Abs-Feuchte:Windchill:Wind:
Aussen-T/F 2826 04-04-2014 20:00:00 16.70833 C 9.83 g/m*3 16.71 C 6.7 km/h
2827 04-04-2014 21:00:00 15.28333 C 10.03 g/m*3 15.28 C 5.475 km/h
2828 04-04-2014 22:00:00 14.9 C 10.09 g/m*3 14.9 C 3.475 km/h
2829 04-04-2014 23:00:00 14 C 10.02 g/m*3 14 C 2 km/h
2830 05-04-2014 00:00:00 13.95833 C 10.22 g/m*3 13.96 C 8.58333 km/h
2831 05-04-2014 01:00:00 13.43333 C 10.13 g/m*3 13.43 C 7.09167 km/h
2832 05-04-2014 02:00:00 13.2 C 9.99 g/m*3 13.2 C 6.44167 km/h
2833 05-04-2014 03:00:00 12.91667 C 9.88 g/m*3 12.92 C 5.34167 km/h
2834 05-04-2014 04:00:00 12.74167 C 9.71 g/m*3 12.74 C 8.05 km/h
2835 05-04-2014 05:00:00 12.53333 C 9.65 g/m*3 12.53 C 8.325 km/h
2836 05-04-2014 06:00:00 12.125 C 9.68 g/m*3 12.13 C 3.86667 km/h
2837 05-04-2014 07:00:00 12.00833 C 9.6 g/m*3 12.01 C 4.95833 km/h
2838 05-04-2014 08:00:00 12.04167 C 9.62 g/m*3 12.04 C 5.35 km/h
2839 05-04-2014 09:00:00 12.2 C 9.66 g/m*3 12.2 C 6.16667 km/h
2840 05-04-2014 10:00:00 12.13333 C 9.62 g/m*3 12.13 C 8.74167 km/h
2841 05-04-2014 11:00:00 12.36667 C 9.6 g/m*3 12.37 C 5.75833 km/h
2842 05-04-2014 12:00:00 13.075 C 9.89 g/m*3 13.08 C 5.36667 km/h
2843 05-04-2014 13:00:00 13.9 C 10.43 g/m*3 13.9 C 5.86667 km/h
2844 05-04-2014 15:00:00 15.43333 C 10.09 g/m*3 15.43 C 5.86667 km/h
2845 05-04-2014 16:00:00 15.125 C 9.85 g/m*3 15.13 C 7.25 km/h
2846 05-04-2014 17:00:00 14.88889 C 10.06 g/m*3 14.89 C 6.42222 km/h
2847 05-04-2014 18:00:00 14.7 C 9.82 g/m*3 14.7 C 6.4 km/h
2848 05-04-2014 19:00:00 14.29167 C 10.09 g/m*3 14.29 C 0.93333 km/h
2849 05-04-2014 20:00:00 13.38333 C 9.75 g/m*3 13.38 C 3.06667 km/h
2850 05-04-2014 21:00:00 13.06667 C 9.74 g/m*3 13.07 C 2.26667 km/h
Sensor: Nr:Datum:Temp:Abs-Feuchte:Windchill:Wind:
Aussen-T/F 2851 05-04-2014 22:00:00 12.70833 C 9.66 g/m*3 12.71 C 0.8 km/h
2852 05-04-2014 23:00:00 11.26667 C 8.99 g/m*3 11.27 C 2.93333 km/h
2853 06-04-2014 00:00:00 10.08333 C 8.63 g/m*3 10.08 C 0.93333 km/h
2854 06-04-2014 01:00:00 9.2 C 8.3 g/m*3 9.2 C 0.13333 km/h
2855 06-04-2014 02:00:00 8.45 C 8.04 g/m*3 8.45 C 0.13333 km/h
2856 06-04-2014 03:00:00 7.9 C 7.8 g/m*3 7.9 C 0.26667 km/h
2857 06-04-2014 04:00:00 7.19167 C 7.49 g/m*3 7.19 C 0 km/h
2858 06-04-2014 05:00:00 7.00833 C 7.46 g/m*3 7.01 C 0 km/h
2859 06-04-2014 06:00:00 7.2 C 7.59 g/m*3 7.2 C 1.2 km/h
2860 06-04-2014 07:00:00 7.21667 C 7.62 g/m*3 7.22 C 0.66667 km/h
2861 06-04-2014 08:00:00 7.71667 C 7.87 g/m*3 7.72 C 0 km/h
2862 06-04-2014 09:00:00 8.19167 C 8.12 g/m*3 8.19 C 0.66667 km/h
2863 06-04-2014 10:00:00 10.23333 C 8.96 g/m*3 10.23 C 2.93333 km/h
2864 06-04-2014 11:00:00 13.87778 C 9.11 g/m*3 13.88 C 9.85556 km/h
2865 06-04-2014 12:00:00 16.50833 C 8.75 g/m*3 16.51 C 13.96667 km/h
2866 06-04-2014 13:00:00 18.53333 C 9.09 g/m*3 18.53 C 11.28889 km/h
2867 06-04-2014 14:00:00 19.44 C 9 g/m*3 19.44 C 13.06 km/h
2868 06-04-2014 15:00:00 19.08571 C 9.06 g/m*3 19.09 C 11.3 km/h
2869 06-04-2014 16:00:00 18.9 C 9.07 g/m*3 18.9 C 14.5 km/h
2870 06-04-2014 17:00:00 18.3 C 9.07 g/m*3 18.3 C 10.32 km/h
2871 06-04-2014 19:00:00 16.45 C 9.47 g/m*3 16.45 C 3.48333 km/h
2872 06-04-2014 20:00:00 14.9 C 9.28 g/m*3 14.9 C 3.46667 km/h
2873 06-04-2014 21:00:00 13.825 C 9.25 g/m*3 13.83 C 2.26667 km/h
2874 06-04-2014 22:00:00 13.9 C 9.37 g/m*3 13.9 C 2.66667 km/h
2875 06-04-2014 23:00:00 13.99167 C 9.32 g/m*3 13.99 C 2.4 km/h
Sensor: Nr:Datum:Temp:Abs-Feuchte:Windchill:Wind:
Aussen-T/F 2876 07-04-2014 00:00:00 13.875 C 9.32 g/m*3 13.88 C 1.86667 km/h
2877 07-04-2014 01:00:00 13.21667 C 9.37 g/m*3 13.22 C 0.26667 km/h
2878 07-04-2014 02:00:00 12.99167 C 9.44 g/m*3 12.99 C 0.53333 km/h
2879 07-04-2014 03:00:00 12.675 C 9.42 g/m*3 12.68 C 0 km/h
2880 07-04-2014 04:00:00 12.5 C 9.43 g/m*3 12.5 C 0.13333 km/h
2881 07-04-2014 05:00:00 12.4 C 9.44 g/m*3 12.4 C 0.8 km/h
2882 07-04-2014 06:00:00 12.38333 C 9.56 g/m*3 12.38 C 0.13333 km/h
2883 07-04-2014 07:00:00 12.26667 C 9.59 g/m*3 12.27 C 0.53333 km/h
2884 07-04-2014 08:00:00 12.95 C 9.85 g/m*3 12.95 C 1.6 km/h
2885 07-04-2014 09:00:00 14.15833 C 10.32 g/m*3 14.16 C 3.35 km/h
2886 07-04-2014 10:00:00 16.19167 C 10.98 g/m*3 16.19 C 9.40833 km/h
2887 07-04-2014 11:00:00 17.8 C 11.41 g/m*3 17.8 C 9.15 km/h
2888 07-04-2014 12:00:00 19.51667 C 11.45 g/m*3 19.52 C 8.875 km/h
2889 07-04-2014 13:00:00 20.51667 C 11.12 g/m*3 20.52 C 7.125 km/h
2890 07-04-2014 14:00:00 21.20833 C 11.29 g/m*3 21.21 C 7.925 km/h
2891 07-04-2014 15:00:00 21.54167 C 10.71 g/m*3 21.54 C 7.525 km/h
2892 07-04-2014 16:00:00 22.16667 C 9.93 g/m*3 22.17 C 8.06667 km/h
2893 07-04-2014 18:00:00 23.36667 C 17.35 g/m*3 23.37 C 6.71667 km/h
2894 07-04-2014 19:00:00 17.9 C 10.04 g/m*3 17.9 C 4.4 km/h
2895 07-04-2014 20:00:00 16.87 C 9.36 g/m*3 16.87 C 4.48 km/h
2896 07-04-2014 21:00:00 16.20909 C 9.62 g/m*3 16.21 C 4.07273 km/h
2897 07-04-2014 22:00:00 16.03333 C 9.12 g/m*3 16.03 C 3.2 km/h
2898 07-04-2014 23:00:00 16.125 C 9.24 g/m*3 16.13 C 3.475 km/h
2899 08-04-2014 00:00:00 15.48333 C 9.38 g/m*3 15.48 C 3.73333 km/h
2900 08-04-2014 01:00:00 15.59167 C 9.87 g/m*3 15.59 C 1.86667 km/h
Sensor: Nr:Datum:Temp:Abs-Feuchte:Windchill:Wind:
Aussen-T/F 2901 08-04-2014 02:00:00 16.025 C 9.85 g/m*3 16.02 C 4.69167 km/h
2902 08-04-2014 03:00:00 15.20833 C 9.75 g/m*3 15.21 C 3.075 km/h
2903 08-04-2014 04:00:00 14.66667 C 9.66 g/m*3 14.67 C 4.69167 km/h
2904 08-04-2014 05:00:00 15.5 C 9.25 g/m*3 15.5 C 10.06667 km/h
2905 08-04-2014 06:00:00 13.175 C 9.53 g/m*3 13.18 C 9.80833 km/h
2906 08-04-2014 07:00:00 11.525 C 7.72 g/m*3 11.53 C 19.16667 km/h
2907 08-04-2014 08:00:00 10.99167 C 6.79 g/m*3 9 C 16.23333 km/h
2908 08-04-2014 09:00:00 11.075 C 6.48 g/m*3 11.08 C 16.23333 km/h
2909 08-04-2014 10:00:00 11.725 C 6.55 g/m*3 11.73 C 15.83333 km/h
2910 08-04-2014 11:00:00 12.28333 C 6.59 g/m*3 12.28 C 15.3 km/h
2911 08-04-2014 12:00:00 12.64167 C 6.53 g/m*3 12.64 C 19.45 km/h
2912 08-04-2014 13:00:00 12.64167 C 6.27 g/m*3 12.64 C 17.43333 km/h
2913 08-04-2014 14:00:00 12.15833 C 6.07 g/m*3 12.16 C 20.375 km/h
2914 08-04-2014 15:00:00 12.63333 C 5.68 g/m*3 12.63 C 19.83333 km/h
2915 08-04-2014 16:00:00 12.6 C 5.43 g/m*3 12.6 C 19.84167 km/h
2916 08-04-2014 17:00:00 10.68333 C 6.09 g/m*3 8.56 C 16.76667 km/h
2917 08-04-2014 18:00:00 10.65833 C 6.2 g/m*3 9.21 C 11.3 km/h
2918 08-04-2014 19:00:00 10.26667 C 6.16 g/m*3 8.1 C 16.24167 km/h
2919 08-04-2014 20:00:00 9.26667 C 6.28 g/m*3 7.69 C 10.4 km/h
2920 08-04-2014 21:00:00 8.75 C 6.46 g/m*3 8.26 C 5.225 km/h
2921 08-04-2014 22:00:00 8.00833 C 6.4 g/m*3 8.01 C 3.46667 km/h
2922 08-04-2014 23:00:00 7.79091 C 6.27 g/m*3 7.12 C 5.39091 km/h
2923 09-04-2014 00:00:00 6.06667 C 6.63 g/m*3 6.07 C 2.66667 km/h
2924 09-04-2014 01:00:00 5.65833 C 6.57 g/m*3 4.75 C 5.21667 km/h
2925 09-04-2014 02:00:00 5.425 C 6.55 g/m*3 5.43 C 3.6 km/h
Sensor: Nr:Datum:Temp:Abs-Feuchte:Windchill:Wind:
Aussen-T/F 2926 09-04-2014 03:00:00 4.9 C 6.33 g/m*3 4.9 C 2 km/h
2927 09-04-2014 04:00:00 4.88333 C 6.32 g/m*3 4.88 C 2.93333 km/h
2928 09-04-2014 05:00:00 5.05833 C 6.29 g/m*3 5.06 C 1.73333 km/h
2929 09-04-2014 06:00:00 4.375 C 6.12 g/m*3 4.38 C 1.2 km/h
2930 09-04-2014 07:00:00 4.18 C 6.05 g/m*3 4.18 C 2.9 km/h
2931 09-04-2014 08:00:00 4.64167 C 6.3 g/m*3 4.64 C 2.13333 km/h
2932 09-04-2014 09:00:00 6.81667 C 6.87 g/m*3 5.12 C 8.61667 km/h
2933 09-04-2014 10:00:00 8.54167 C 7.23 g/m*3 7.37 C 7.65833 km/h
2934 09-04-2014 11:00:00 10.29167 C 7.34 g/m*3 8.92 C 10.35 km/h
2935 09-04-2014 12:00:00 11.375 C 7.23 g/m*3 11.38 C 9.68333 km/h
2936 09-04-2014 13:00:00 12.96667 C 6.67 g/m*3 12.97 C 8.6 km/h
2937 09-04-2014 14:00:00 13.64167 C 6.49 g/m*3 13.64 C 8.06667 km/h
2938 09-04-2014 15:00:00 14.43333 C 6.06 g/m*3 14.43 C 9.28333 km/h
2939 09-04-2014 16:00:00 14.325 C 6.08 g/m*3 14.33 C 9.95833 km/h
2940 09-04-2014 17:00:00 14.80833 C 6.44 g/m*3 14.81 C 9.01667 km/h
2941 09-04-2014 18:00:00 14.58333 C 6.46 g/m*3 14.58 C 8.46667 km/h
2942 09-04-2014 19:00:00 13.15833 C 6.8 g/m*3 13.16 C 3.2 km/h
2943 09-04-2014 20:00:00 10.35833 C 7.02 g/m*3 10.36 C 3.86667 km/h
2944 09-04-2014 21:00:00 9.15 C 6.95 g/m*3 9.15 C 3.06667 km/h
2945 09-04-2014 22:00:00 9 C 6.92 g/m*3 9 C 2.26667 km/h
2946 09-04-2014 23:00:00 8.56667 C 6.77 g/m*3 8.57 C 2 km/h
2947 10-04-2014 00:00:00 9.05833 C 6.74 g/m*3 8.54 C 5.48333 km/h
2948 10-04-2014 01:00:00 8.23333 C 6.68 g/m*3 8.23 C 4.55833 km/h
2949 10-04-2014 02:00:00 7.93333 C 6.75 g/m*3 7.93 C 2.94167 km/h
2950 10-04-2014 03:00:00 8.29167 C 6.87 g/m*3 8.29 C 1.2 km/h
Sensor: Nr:Datum:Temp:Abs-Feuchte:Windchill:Wind:
Aussen-T/F 2951 10-04-2014 04:00:00 7.925 C 6.84 g/m*3 7.93 C 0.53333 km/h
2952 10-04-2014 05:00:00 7.13333 C 6.73 g/m*3 7.13 C 1.2 km/h
2953 10-04-2014 06:00:00 6.48333 C 6.62 g/m*3 6.48 C 0.26667 km/h
2954 10-04-2014 07:00:00 6.50833 C 6.73 g/m*3 6.51 C 0.93333 km/h
2955 10-04-2014 08:00:00 7.35556 C 6.93 g/m*3 6.15 C 6.98889 km/h
2956 10-04-2014 09:00:00 8.65 C 7.67 g/m*3 7.59 C 7.25 km/h
2957 10-04-2014 10:00:00 9.85556 C 7.38 g/m*3 9.86 C 4.11111 km/h
2958 10-04-2014 13:00:00 16.3 C 8.42 g/m*3 16.3 C 6.43333 km/h
2959 10-04-2014 14:00:00 17.6 C 8.7 g/m*3 17.6 C 9.7 km/h
2960 10-04-2014 15:00:00 17.66 C 8.52 g/m*3 17.66 C 7.42 km/h
2961 10-04-2014 16:00:00 18.52 C 9.95 g/m*3 18.52 C 9.04 km/h
2962 10-04-2014 17:00:00 17.91667 C 8.48 g/m*3 17.92 C 8.08333 km/h
2963 10-04-2014 18:00:00 16.5 C 8.31 g/m*3 16.5 C 8.18333 km/h
2964 10-04-2014 19:00:00 16.2 C 8.27 g/m*3 16.2 C 4.8 km/h
2965 11-04-2014 08:00:00 6.86 C 7.29 g/m*3 6.86 C 1.28 km/h
2966 11-04-2014 09:00:00 8.29167 C 8 g/m*3 8.29 C 0.13333 km/h
2967 11-04-2014 10:00:00 11.43333 C 8.82 g/m*3 11.43 C 0 km/h
2968 11-04-2014 11:00:00 15.75 C 9.06 g/m*3 15.75 C 9.7 km/h
2969 11-04-2014 12:00:00 16.90833 C 9.09 g/m*3 16.91 C 4 km/h
2970 11-04-2014 13:00:00 18.85556 C 9.21 g/m*3 18.86 C 5.7 km/h
2971 11-04-2014 14:00:00 18.53333 C 9.04 g/m*3 18.53 C 7.51667 km/h
2972 11-04-2014 16:00:00 19.54286 C 9.71 g/m*3 19.54 C 7.35714 km/h
2973 11-04-2014 17:00:00 18.01667 C 9.63 g/m*3 18.02 C 9.825 km/h
2974 11-04-2014 18:00:00 16.775 C 9.14 g/m*3 16.77 C 11.7 km/h
2975 11-04-2014 19:00:00 15.29167 C 9.16 g/m*3 15.29 C 8.48333 km/h
Sensor: Nr:Datum:Temp:Abs-Feuchte:Windchill:Wind:
Aussen-T/F 2976 11-04-2014 20:00:00 14.31667 C 8.94 g/m*3 14.32 C 6.15833 km/h
2977 11-04-2014 21:00:00 13.6 C 9 g/m*3 13.6 C 6.43333 km/h
2978 11-04-2014 22:00:00 12.85833 C 8.81 g/m*3 12.86 C 6.575 km/h
2979 11-04-2014 23:00:00 12.325 C 8.65 g/m*3 12.33 C 4.825 km/h
2980 12-04-2014 00:00:00 11.46667 C 8.45 g/m*3 11.47 C 3.2 km/h
2981 12-04-2014 01:00:00 10.175 C 8.26 g/m*3 10.18 C 1.86667 km/h
2982 12-04-2014 02:00:00 9.86667 C 8.14 g/m*3 9.87 C 0.66667 km/h
2983 12-04-2014 03:00:00 9.825 C 7.92 g/m*3 9.82 C 1.20833 km/h
2984 12-04-2014 04:00:00 9.85 C 7.77 g/m*3 9.85 C 1.33333 km/h
2985 12-04-2014 05:00:00 9.26667 C 7.75 g/m*3 9.27 C 0.4 km/h
2986 12-04-2014 06:00:00 9.21667 C 7.72 g/m*3 9.22 C 0.13333 km/h
2987 12-04-2014 07:00:00 9.09167 C 7.71 g/m*3 9.09 C 0.66667 km/h
2988 12-04-2014 08:00:00 9.375 C 7.63 g/m*3 9.38 C 2.13333 km/h
2989 12-04-2014 09:00:00 10.05833 C 7.75 g/m*3 10.06 C 3.06667 km/h
2990 12-04-2014 10:00:00 11.45833 C 8.16 g/m*3 11.46 C 5.20833 km/h
2991 12-04-2014 11:00:00 12.66667 C 8.36 g/m*3 12.67 C 6.825 km/h
2992 12-04-2014 12:00:00 13.96667 C 8.63 g/m*3 13.97 C 5.88333 km/h
2993 12-04-2014 13:00:00 16.03333 C 8.67 g/m*3 16.03 C 6.98333 km/h
2994 12-04-2014 14:00:00 16.95833 C 7.93 g/m*3 16.96 C 9.26667 km/h
2995 12-04-2014 15:00:00 17.55 C 7.8 g/m*3 17.55 C 9.15 km/h
2996 12-04-2014 16:00:00 18.20833 C 6.97 g/m*3 18.21 C 8.05 km/h
2997 12-04-2014 17:00:00 17.225 C 6.95 g/m*3 17.23 C 10.09167 km/h
2998 12-04-2014 18:00:00 15.78333 C 7.02 g/m*3 15.78 C 8.06667 km/h
2999 12-04-2014 19:00:00 15.16667 C 6.91 g/m*3 15.17 C 7.88889 km/h
3000 12-04-2014 20:00:00 14.08333 C 6.75 g/m*3 14.08 C 5.35 km/h
Sensor: Nr:Datum:Temp:Abs-Feuchte:Windchill:Wind:
Aussen-T/F 3001 12-04-2014 21:00:00 13.28333 C 7.11 g/m*3 13.28 C 2.93333 km/h
3002 12-04-2014 22:00:00 11.95 C 7.15 g/m*3 11.95 C 0.66667 km/h
3003 12-04-2014 23:00:00 11.79167 C 7.01 g/m*3 11.79 C 1.33333 km/h
3004 13-04-2014 00:00:00 11.44167 C 7.25 g/m*3 11.44 C 0.4 km/h
3005 13-04-2014 01:00:00 11.075 C 7.36 g/m*3 11.08 C 1.86667 km/h
3006 13-04-2014 02:00:00 10.81667 C 7.33 g/m*3 10.82 C 1.33333 km/h
3007 13-04-2014 03:00:00 9.96667 C 7.27 g/m*3 9.97 C 0.93333 km/h
3008 13-04-2014 04:00:00 9.69167 C 7.25 g/m*3 9.69 C 0.8 km/h
3009 13-04-2014 05:00:00 8.63333 C 7.03 g/m*3 8.63 C 0.8 km/h
3010 13-04-2014 06:00:00 7.41667 C 6.82 g/m*3 7.42 C 0.8 km/h
3011 13-04-2014 07:00:00 6.75833 C 6.71 g/m*3 6.76 C 0.53333 km/h
3012 13-04-2014 08:00:00 7.3 C 6.97 g/m*3 7.3 C 1.06667 km/h
3013 13-04-2014 09:00:00 9.475 C 7.35 g/m*3 9.48 C 2.8 km/h
3014 13-04-2014 10:00:00 11 C 7.42 g/m*3 11 C 2.93333 km/h
3015 13-04-2014 11:00:00 12.75833 C 7.5 g/m*3 12.76 C 5.76667 km/h
3016 13-04-2014 12:00:00 14.14444 C 7.57 g/m*3 14.14 C 6.43333 km/h
3017 13-04-2014 13:00:00 14.65455 C 7.81 g/m*3 14.65 C 8.2 km/h
3018 13-04-2014 14:00:00 14.675 C 7.98 g/m*3 14.68 C 6.16667 km/h
3019 13-04-2014 15:00:00 14.9 C 7.97 g/m*3 14.9 C 11.00833 km/h
3020 13-04-2014 16:00:00 14.93333 C 7.91 g/m*3 14.93 C 9.14167 km/h
3021 13-04-2014 17:00:00 15.01667 C 7.35 g/m*3 15.02 C 10.09167 km/h
3022 13-04-2014 18:00:00 15.1 C 7.03 g/m*3 15.1 C 9.675 km/h
3023 13-04-2014 19:00:00 13.84167 C 6.98 g/m*3 13.84 C 8.6 km/h
3024 13-04-2014 20:00:00 13 C 7.29 g/m*3 13 C 3.60833 km/h
3025 13-04-2014 21:00:00 11.98333 C 7.35 g/m*3 11.98 C 2 km/h
Sensor: Nr:Datum:Temp:Abs-Feuchte:Windchill:Wind:
Aussen-T/F 3026 13-04-2014 22:00:00 11.10833 C 7.2 g/m*3 11.11 C 3.6 km/h
3027 13-04-2014 23:00:00 9.75833 C 7.02 g/m*3 9.76 C 3.06667 km/h
3028 14-04-2014 00:00:00 8.85833 C 6.92 g/m*3 8.86 C 3.2 km/h
3029 14-04-2014 01:00:00 9.30833 C 6.96 g/m*3 8.9 C 5.21667 km/h
3030 14-04-2014 02:00:00 8.825 C 6.92 g/m*3 8.82 C 2.66667 km/h
3031 14-04-2014 03:00:00 7.375 C 6.72 g/m*3 7.38 C 4.7 km/h
3032 14-04-2014 04:00:00 7.575 C 6.74 g/m*3 5.82 C 9.55 km/h
3033 14-04-2014 05:00:00 7.875 C 6.79 g/m*3 6.2 C 9.43333 km/h
3034 14-04-2014 06:00:00 8.43333 C 6.89 g/m*3 7.12 C 8.19167 km/h
3035 14-04-2014 07:00:00 8.60833 C 6.97 g/m*3 7.75 C 6.45 km/h
3036 14-04-2014 08:00:00 8.85 C 7.11 g/m*3 7.47 C 8.88333 km/h
3037 14-04-2014 09:00:00 9.825 C 7.05 g/m*3 8.68 C 8.6 km/h
3038 14-04-2014 10:00:00 10.49167 C 6.66 g/m*3 8.33 C 16.64167 km/h
3039 14-04-2014 11:00:00 9.94167 C 6.9 g/m*3 8.46 C 10.60833 km/h
3040 14-04-2014 12:00:00 11.4 C 6.34 g/m*3 11.4 C 16.36667 km/h
3041 14-04-2014 13:00:00 12.83333 C 6.07 g/m*3 12.83 C 17.03333 km/h
3042 14-04-2014 14:00:00 13.39167 C 5.99 g/m*3 13.39 C 21.58333 km/h
3043 14-04-2014 15:00:00 13.20833 C 5.96 g/m*3 13.21 C 22.8 km/h
3044 14-04-2014 16:00:00 12.89167 C 6.4 g/m*3 12.89 C 19.05 km/h
3045 14-04-2014 17:00:00 13.31667 C 6.05 g/m*3 13.32 C 18.63333 km/h
3046 14-04-2014 18:00:00 12.76667 C 5.76 g/m*3 12.77 C 18.76667 km/h
3047 14-04-2014 19:00:00 11.6 C 5.45 g/m*3 11.6 C 19.70833 km/h
3048 14-04-2014 20:00:00 7.96667 C 6.32 g/m*3 5.95 C 11.4 km/h
3049 14-04-2014 21:00:00 6.58889 C 6.34 g/m*3 5.32 C 6.78889 km/h
3050 14-04-2014 22:00:00 5.9 C 6.07 g/m*3 4.8 C 5.88333 km/h
Sensor: Nr:Datum:Temp:Abs-Feuchte:Windchill:Wind:
Aussen-T/F 3051 14-04-2014 23:00:00 5.6 C 6.15 g/m*3 5.6 C 2.26667 km/h
3052 15-04-2014 00:00:00 6.11667 C 6.18 g/m*3 5 C 6.03333 km/h
3053 15-04-2014 01:00:00 5.65833 C 5.95 g/m*3 4.38 C 6.30833 km/h
3054 15-04-2014 02:00:00 5.025 C 5.75 g/m*3 5.03 C 4.95 km/h
3055 15-04-2014 03:00:00 4.64444 C 5.72 g/m*3 4.64 C 1.95556 km/h
3056 15-04-2014 04:00:00 4.04167 C 5.62 g/m*3 4.04 C 2.8 km/h
3057 15-04-2014 05:00:00 3.91667 C 5.62 g/m*3 3.92 C 4.275 km/h
3058 15-04-2014 06:00:00 4.125 C 5.69 g/m*3 4.13 C 2.54167 km/h
3059 15-04-2014 07:00:00 4.01667 C 5.66 g/m*3 4.02 C 4.95833 km/h
3060 15-04-2014 08:00:00 4.9 C 5.84 g/m*3 2.62 C 9.65 km/h
3061 15-04-2014 09:00:00 6.175 C 6.01 g/m*3 3.76 C 11.56667 km/h
3062 15-04-2014 10:00:00 7.16667 C 5.82 g/m*3 5.03 C 11.16667 km/h
3063 15-04-2014 11:00:00 7.175 C 5.59 g/m*3 5.11 C 10.76667 km/h
3064 15-04-2014 12:00:00 7.99167 C 5.41 g/m*3 6.14 C 10.48333 km/h
3065 15-04-2014 13:00:00 9.2 C 5.31 g/m*3 7.66 C 10.08333 km/h
3066 15-04-2014 14:00:00 9.4 C 5.26 g/m*3 7.72 C 11.15833 km/h
3067 15-04-2014 15:00:00 9.44167 C 5.17 g/m*3 7.75 C 11.3 km/h
3068 15-04-2014 16:00:00 9.55833 C 5.22 g/m*3 8.34 C 8.73333 km/h
3069 15-04-2014 17:00:00 10.09167 C 5.21 g/m*3 8.28 C 13.03333 km/h
3070 15-04-2014 18:00:00 10.56667 C 5.87 g/m*3 9 C 12.01111 km/h
3071 15-04-2014 19:00:00 9.64167 C 7.02 g/m*3 9.32 C 5.09167 km/h
3072 15-04-2014 20:00:00 9.02 C 5.42 g/m*3 9.02 C 3.86 km/h
3073 16-04-2014 11:00:00 9.8 C 5.98 g/m*3 9.13 C 6.45 km/h
3074 16-04-2014 12:00:00 11.3 C 5.57 g/m*3 11.3 C 8.86667 km/h
3075 16-04-2014 13:00:00 13.9 C 5.52 g/m*3 13.9 C 9.54167 km/h
Sensor: Nr:Datum:Temp:Abs-Feuchte:Windchill:Wind:
Aussen-T/F 3076 16-04-2014 14:00:00 15.10833 C 5.45 g/m*3 15.11 C 10.21667 km/h
3077 16-04-2014 15:00:00 15.9 C 5.46 g/m*3 15.9 C 9.275 km/h
3078 16-04-2014 16:00:00 16.69167 C 5.29 g/m*3 16.69 C 9.80833 km/h
3079 16-04-2014 17:00:00 16.81667 C 5.26 g/m*3 16.82 C 11.16667 km/h
3080 16-04-2014 18:00:00 16.64167 C 5.16 g/m*3 16.64 C 9.00833 km/h
3081 16-04-2014 19:00:00 15.75 C 5.21 g/m*3 15.75 C 6.70833 km/h
3082 16-04-2014 20:00:00 11.13333 C 5.67 g/m*3 11.13 C 4 km/h
3083 16-04-2014 21:00:00 8.55 C 5.44 g/m*3 8.09 C 5.06667 km/h
3084 16-04-2014 22:00:00 7.675 C 5.45 g/m*3 7.68 C 4.66667 km/h
3085 16-04-2014 23:00:00 6.725 C 5.44 g/m*3 6.73 C 2.53333 km/h
3086 17-04-2014 00:00:00 5.65 C 5.33 g/m*3 5.65 C 0 km/h
3087 17-04-2014 01:00:00 4.85833 C 5.27 g/m*3 4.86 C 0 km/h
3088 17-04-2014 02:00:00 4.08333 C 5.17 g/m*3 4.08 C 0.4 km/h
3089 17-04-2014 03:00:00 3.4 C 5.24 g/m*3 3.4 C 0.4 km/h
3090 17-04-2014 04:00:00 2.60833 C 5.06 g/m*3 2.61 C 0 km/h
3091 17-04-2014 05:00:00 1.88333 C 4.92 g/m*3 1.88 C 0.13333 km/h
3092 17-04-2014 06:00:00 1.5 C 4.89 g/m*3 1.5 C 0 km/h
3093 17-04-2014 07:00:00 1.39167 C 4.9 g/m*3 1.39 C 0 km/h
3094 17-04-2014 08:00:00 2.10833 C 5.14 g/m*3 2.11 C 0 km/h
3095 17-04-2014 09:00:00 4.18333 C 5.6 g/m*3 4.18 C 0.26667 km/h
3096 17-04-2014 10:00:00 7.04167 C 6.11 g/m*3 7.04 C 0.53333 km/h
3097 17-04-2014 11:00:00 10.525 C 5.93 g/m*3 10.53 C 4.84167 km/h
3098 17-04-2014 12:00:00 13.66667 C 5.5 g/m*3 13.67 C 7.91667 km/h
3099 17-04-2014 13:00:00 15.53333 C 5.23 g/m*3 15.53 C 8.61667 km/h
3100 17-04-2014 14:00:00 16.15833 C 5.26 g/m*3 16.16 C 6.425 km/h
Sensor: Nr:Datum:Temp:Abs-Feuchte:Windchill:Wind:
Aussen-T/F 3101 17-04-2014 15:00:00 16.98333 C 5.41 g/m*3 16.98 C 6.15833 km/h
3102 17-04-2014 16:00:00 18.75833 C 5.48 g/m*3 18.76 C 10.2 km/h
3103 17-04-2014 17:00:00 19.475 C 5.21 g/m*3 19.48 C 9.825 km/h
3104 17-04-2014 18:00:00 19.54167 C 5.41 g/m*3 19.54 C 4.95833 km/h
3105 17-04-2014 19:00:00 16.58333 C 6.37 g/m*3 16.58 C 3.46667 km/h
3106 17-04-2014 20:00:00 12.6 C 6.32 g/m*3 12.6 C 3.46667 km/h
3107 17-04-2014 21:00:00 12.46667 C 5.97 g/m*3 12.47 C 2.66667 km/h
3108 17-04-2014 22:00:00 12.91667 C 5.71 g/m*3 12.92 C 3.2 km/h
3109 17-04-2014 23:00:00 12.55833 C 6.03 g/m*3 12.56 C 2.53333 km/h
3110 18-04-2014 00:00:00 11.76667 C 6.27 g/m*3 11.77 C 3.075 km/h
3111 18-04-2014 01:00:00 11.38333 C 7.25 g/m*3 11.38 C 5.09167 km/h
3112 18-04-2014 02:00:00 10.95 C 7.37 g/m*3 10.43 C 6.56667 km/h
3113 18-04-2014 03:00:00 11.55833 C 7.46 g/m*3 11.56 C 10.75 km/h
3114 18-04-2014 04:00:00 10.13333 C 7.71 g/m*3 8.69 C 10.61667 km/h
3115 18-04-2014 05:00:00 8.80833 C 7.54 g/m*3 7.72 C 7.51667 km/h
3116 18-04-2014 06:00:00 8.4 C 7.43 g/m*3 7.15 C 7.90833 km/h
3117 18-04-2014 07:00:00 8.38333 C 7.19 g/m*3 6.95 C 8.725 km/h
3118 18-04-2014 08:00:00 8.54167 C 6.86 g/m*3 6.53 C 12.09167 km/h
3119 18-04-2014 09:00:00 9.05833 C 6.36 g/m*3 6.8 C 14.63333 km/h
3120 18-04-2014 10:00:00 9.225 C 6.36 g/m*3 7.08 C 14.09167 km/h
3121 18-04-2014 11:00:00 9.49167 C 6.54 g/m*3 7.67 C 12.225 km/h
3122 18-04-2014 12:00:00 10.00833 C 6.63 g/m*3 8.13 C 13.425 km/h
3123 18-04-2014 13:00:00 12.375 C 6.14 g/m*3 12.38 C 15.03333 km/h
3124 18-04-2014 14:00:00 13.325 C 5.62 g/m*3 13.33 C 14.9 km/h
3125 18-04-2014 15:00:00 13.6 C 5.09 g/m*3 13.6 C 17.7 km/h
Sensor: Nr:Datum:Temp:Abs-Feuchte:Windchill:Wind:
Aussen-T/F 3126 18-04-2014 16:00:00 14.55 C 4.82 g/m*3 14.55 C 17.3 km/h
3127 18-04-2014 17:00:00 14.13333 C 4.85 g/m*3 14.13 C 17.16667 km/h
3128 18-04-2014 18:00:00 13.90833 C 4.9 g/m*3 13.91 C 14.9 km/h
3129 18-04-2014 19:00:00 13.19167 C 4.8 g/m*3 13.19 C 9.54167 km/h
3130 18-04-2014 20:00:00 10.21667 C 5.22 g/m*3 10.22 C 2.275 km/h
3131 18-04-2014 21:00:00 8.725 C 5.64 g/m*3 8.73 C 1.46667 km/h
3132 18-04-2014 22:00:00 8.20833 C 5.85 g/m*3 8.21 C 1.86667 km/h
3133 18-04-2014 23:00:00 7.35 C 6.01 g/m*3 7.35 C 1.33333 km/h
3134 19-04-2014 00:00:00 7.725 C 6.19 g/m*3 7.73 C 0 km/h
3135 19-04-2014 01:00:00 6.825 C 6.07 g/m*3 6.83 C 1.06667 km/h
3136 19-04-2014 02:00:00 5.83333 C 5.95 g/m*3 5.83 C 2.13333 km/h
3137 19-04-2014 03:00:00 5.14167 C 5.86 g/m*3 5.14 C 1.46667 km/h
3138 19-04-2014 04:00:00 5.16667 C 5.93 g/m*3 5.17 C 0.4 km/h
3139 19-04-2014 05:00:00 4.15833 C 5.69 g/m*3 4.16 C 0.4 km/h
3140 19-04-2014 06:00:00 4.08333 C 5.79 g/m*3 4.08 C 0 km/h
3141 19-04-2014 07:00:00 4.35833 C 5.93 g/m*3 4.36 C 0 km/h
3142 19-04-2014 08:00:00 4.95833 C 6.1 g/m*3 4.96 C 0.53333 km/h
3143 19-04-2014 09:00:00 6.06667 C 6.45 g/m*3 6.07 C 0.13333 km/h
3144 19-04-2014 10:00:00 8.76667 C 6.74 g/m*3 7.7 C 7.39167 km/h
3145 19-04-2014 11:00:00 10.48333 C 6.6 g/m*3 9.02 C 11.15833 km/h
3146 19-04-2014 12:00:00 11.96667 C 6.51 g/m*3 11.97 C 13.29167 km/h
3147 19-04-2014 13:00:00 14.75 C 6.8 g/m*3 14.75 C 14.23333 km/h
3148 19-04-2014 14:00:00 16.4 C 7.06 g/m*3 16.4 C 13.16667 km/h
3149 19-04-2014 15:00:00 17.75 C 7.15 g/m*3 17.75 C 17.3 km/h
3150 19-04-2014 16:00:00 18.675 C 7.77 g/m*3 18.68 C 15.43333 km/h
Sensor: Nr:Datum:Temp:Abs-Feuchte:Windchill:Wind:
Aussen-T/F 3151 19-04-2014 17:00:00 18.325 C 8.01 g/m*3 18.33 C 14.63333 km/h
3152 19-04-2014 18:00:00 17.90833 C 8.26 g/m*3 17.91 C 11.01667 km/h
3153 19-04-2014 19:00:00 17.09167 C 8.38 g/m*3 17.09 C 8.86667 km/h
3154 19-04-2014 20: